Wetterdaten: Samstag, 21.05.2016
Datum Zeit Temp. A. Feuchte A. Luftdruck Regen Wind Richtung Richtung Sonnenschein ET UV Solar Taupunkt Windchill Windben Empfang
21.05.2016 00:00 9,8 C 88 % 1020,4 hPa 0,0 l/m 5,3 km/h (1 Bft) S 180 0 min 0,000 mm 0,0 UV-I 0 W/m 7,9 C 9,8 C 6,4 km/h (2 Bft) 100,00 %
21.05.2016 00:02 9,7 C 88 % 1020,4 hPa 0,0 l/m 5,1 km/h (1 Bft) S 190 0 min 0,000 mm 0,0 UV-I 0 W/m 7,8 C 9,7 C 6,4 km/h (2 Bft) 100,00 %
21.05.2016 00:03 9,7 C 88 % 1020,4 hPa 0,0 l/m 6,2 km/h (2 Bft) S 172 0 min 0,000 mm 0,0 UV-I 0 W/m 7,8 C 9,7 C 8,0 km/h (2 Bft) 100,00 %
21.05.2016 00:04 9,7 C 88 % 1020,4 hPa 0,0 l/m 4,8 km/h (1 Bft) S 184 0 min 0,000 mm 0,0 UV-I 0 W/m 7,8 C 9,7 C 6,4 km/h (2 Bft) 95,65 %
21.05.2016 00:05 9,7 C 88 % 1020,4 hPa 0,0 l/m 5,4 km/h (1 Bft) S 184 0 min 0,000 mm 0,0 UV-I 0 W/m 7,8 C 9,7 C 6,4 km/h (2 Bft) 95,83 %
21.05.2016 00:06 9,6 C 88 % 1020,4 hPa 0,0 l/m 5,4 km/h (1 Bft) S 182 0 min 0,000 mm 0,0 UV-I 0 W/m 7,7 C 9,6 C 6,4 km/h (2 Bft) 95,65 %
21.05.2016 00:07 9,6 C 88 % 1020,4 hPa 0,0 l/m 4,0 km/h (1 Bft) S 177 0 min 0,000 mm 0,0 UV-I 0 W/m 7,7 C 9,6 C 4,8 km/h (1 Bft) 100,00 %
21.05.2016 00:08 9,6 C 88 % 1020,4 hPa 0,0 l/m 4,5 km/h (1 Bft) S 180 0 min 0,000 mm 0,0 UV-I 0 W/m 7,7 C 9,6 C 4,8 km/h (1 Bft) 100,00 %
21.05.2016 00:09 9,6 C 88 % 1020,4 hPa 0,0 l/m 4,4 km/h (1 Bft) S 185 0 min 0,000 mm 0,0 UV-I 0 W/m 7,7 C 9,6 C 6,4 km/h (2 Bft) 100,00 %
21.05.2016 00:10 9,6 C 88 % 1020,4 hPa 0,0 l/m 5,7 km/h (1 Bft) S 183 0 min 0,000 mm 0,0 UV-I 0 W/m 7,7 C 9,6 C 6,4 km/h (2 Bft) 100,00 %
21.05.2016 00:11 9,6 C 88 % 1020,4 hPa 0,0 l/m 4,1 km/h (1 Bft) S 178 0 min 0,000 mm 0,0 UV-I 0 W/m 7,7 C 9,6 C 6,4 km/h (2 Bft) 100,00 %
21.05.2016 00:12 9,6 C 88 % 1020,4 hPa 0,0 l/m 3,9 km/h (1 Bft) S 181 0 min 0,000 mm 0,0 UV-I 0 W/m 7,7 C 9,6 C 4,8 km/h (1 Bft) 100,00 %
21.05.2016 00:13 9,6 C 88 % 1020,4 hPa 0,0 l/m 5,0 km/h (1 Bft) S 173 0 min 0,000 mm 0,0 UV-I 0 W/m 7,7 C 9,6 C 6,4 km/h (2 Bft) 92,31 %
21.05.2016 00:14 9,6 C 88 % 1020,4 hPa 0,0 l/m 4,4 km/h (1 Bft) S 184 0 min 0,000 mm 0,0 UV-I 0 W/m 7,7 C 9,6 C 6,4 km/h (2 Bft) 100,00 %
21.05.2016 00:15 9,6 C 88 % 1020,4 hPa 0,0 l/m 4,2 km/h (1 Bft) S 180 0 min 0,000 mm 0,0 UV-I 0 W/m 7,7 C 9,6 C 4,8 km/h (1 Bft) 100,00 %
21.05.2016 00:16 9,6 C 88 % 1020,4 hPa 0,0 l/m 4,4 km/h (1 Bft) S 176 0 min 0,000 mm 0,0 UV-I 0 W/m 7,7 C 9,6 C 6,4 km/h (2 Bft) 100,00 %
21.05.2016 00:17 9,6 C 88 % 1020,4 hPa 0,0 l/m 4,2 km/h (1 Bft) S 176 0 min 0,000 mm 0,0 UV-I 0 W/m 7,7 C 9,6 C 4,8 km/h (1 Bft) 100,00 %
21.05.2016 00:18 9,5 C 88 % 1020,5 hPa 0,0 l/m 4,6 km/h (1 Bft) S 171 0 min 0,000 mm 0,0 UV-I 0 W/m 7,6 C 9,5 C 6,4 km/h (2 Bft) 100,00 %
21.05.2016 00:19 9,4 C 89 % 1020,5 hPa 0,0 l/m 5,2 km/h (1 Bft) S 171 0 min 0,000 mm 0,0 UV-I 0 W/m 7,7 C 9,4 C 6,4 km/h (2 Bft) 100,00 %
21.05.2016 00:20 9,4 C 89 % 1020,5 hPa 0,0 l/m 4,0 km/h (1 Bft) S 171 0 min 0,000 mm 0,0 UV-I 0 W/m 7,7 C 9,4 C 6,4 km/h (2 Bft) 100,00 %
21.05.2016 00:21 9,4 C 89 % 1020,5 hPa 0,0 l/m 3,1 km/h (1 Bft) S 171 0 min 0,000 mm 0,0 UV-I 0 W/m 7,7 C 9,4 C 3,2 km/h (1 Bft) 100,00 %
21.05.2016 00:22 9,3 C 89 % 1020,5 hPa 0,0 l/m 4,2 km/h (1 Bft) S 185 0 min 0,000 mm 0,0 UV-I 0 W/m 7,6 C 9,3 C 6,4 km/h (2 Bft) 100,00 %
21.05.2016 00:23 9,3 C 89 % 1020,5 hPa 0,0 l/m 4,0 km/h (1 Bft) S 186 0 min 0,000 mm 0,0 UV-I 0 W/m 7,6 C 9,3 C 4,8 km/h (1 Bft) 100,00 %
21.05.2016 00:24 9,2 C 89 % 1020,5 hPa 0,0 l/m 3,4 km/h (1 Bft) S 186 0 min 0,000 mm 0,0 UV-I 0 W/m 7,5 C 9,2 C 4,8 km/h (1 Bft) 100,00 %
21.05.2016 00:25 9,2 C 89 % 1020,5 hPa 0,0 l/m 4,3 km/h (1 Bft) S 186 0 min 0,000 mm 0,0 UV-I 0 W/m 7,5 C 9,2 C 4,8 km/h (1 Bft) 95,65 %
21.05.2016 00:26 9,1 C 89 % 1020,4 hPa 0,0 l/m 5,4 km/h (1 Bft) S-SW 202 0 min 0,000 mm 0,0 UV-I 0 W/m 7,4 C 9,1 C 6,4 km/h (2 Bft) 100,00 %
21.05.2016 00:27 9,1 C 89 % 1020,5 hPa 0,0 l/m 5,1 km/h (1 Bft) S-SW 202 0 min 0,000 mm 0,0 UV-I 0 W/m 7,4 C 9,1 C 6,4 km/h (2 Bft) 100,00 %
21.05.2016 00:28 9,0 C 90 % 1020,4 hPa 0,0 l/m 5,1 km/h (1 Bft) S 183 0 min 0,000 mm 0,0 UV-I 0 W/m 7,4 C 9,0 C 6,4 km/h (2 Bft) 100,00 %
21.05.2016 00:29 9,0 C 90 % 1020,4 hPa 0,0 l/m 6,1 km/h (2 Bft) S-SW 201 0 min 0,000 mm 0,0 UV-I 0 W/m 7,4 C 9,0 C 8,0 km/h (2 Bft) 100,00 %
21.05.2016 00:30 9,0 C 90 % 1020,4 hPa 0,0 l/m 4,7 km/h (1 Bft) S 185 0 min 0,000 mm 0,0 UV-I 0 W/m 7,4 C 9,0 C 6,4 km/h (2 Bft) 100,00 %
21.05.2016 00:31 9,0 C 90 % 1020,4 hPa 0,0 l/m 5,2 km/h (1 Bft) S 178 0 min 0,000 mm 0,0 UV-I 0 W/m 7,4 C 9,0 C 6,4 km/h (2 Bft) 100,00 %
21.05.2016 00:32 9,1 C 90 % 1020,4 hPa 0,0 l/m 4,9 km/h (1 Bft) S 181 0 min 0,000 mm 0,0 UV-I 0 W/m 7,5 C 9,1 C 6,4 km/h (2 Bft) 93,33 %
21.05.2016 00:33 9,1 C 90 % 1020,4 hPa 0,0 l/m 5,1 km/h (1 Bft) S 181 0 min 0,000 mm 0,0 UV-I 0 W/m 7,5 C 9,1 C 6,4 km/h (2 Bft) 100,00 %
21.05.2016 00:34 9,1 C 90 % 1020,4 hPa 0,0 l/m 4,5 km/h (1 Bft) S 180 0 min 0,000 mm 0,0 UV-I 0 W/m 7,5 C 9,1 C 6,4 km/h (2 Bft) 100,00 %
21.05.2016 00:35 9,1 C 90 % 1020,4 hPa 0,0 l/m 5,1 km/h (1 Bft) S 188 0 min 0,000 mm 0,0 UV-I 0 W/m 7,5 C 9,1 C 6,4 km/h (2 Bft) 100,00 %
21.05.2016 00:36 9,1 C 90 % 1020,4 hPa 0,0 l/m 4,0 km/h (1 Bft) S 188 0 min 0,000 mm 0,0 UV-I 0 W/m 7,5 C 9,1 C 4,8 km/h (1 Bft) 100,00 %
21.05.2016 00:37 9,1 C 90 % 1020,4 hPa 0,0 l/m 4,5 km/h (1 Bft) S 188 0 min 0,000 mm 0,0 UV-I 0 W/m 7,5 C 9,1 C 4,8 km/h (1 Bft) 99,17 %
21.05.2016 00:38 9,1 C 90 % 1020,4 hPa 0,0 l/m 4,3 km/h (1 Bft) S 188 0 min 0,000 mm 0,0 UV-I 0 W/m 7,5 C 9,1 C 6,4 km/h (2 Bft) 100,00 %
21.05.2016 00:39 9,1 C 90 % 1020,4 hPa 0,0 l/m 5,1 km/h (1 Bft) S 174 0 min 0,000 mm 0,0 UV-I 0 W/m 7,5 C 9,1 C 8,0 km/h (2 Bft) 100,00 %
21.05.2016 00:40 9,1 C 90 % 1020,4 hPa 0,0 l/m 5,1 km/h (1 Bft) S 188 0 min 0,000 mm 0,0 UV-I 0 W/m 7,5 C 9,1 C 8,0 km/h (2 Bft) 100,00 %
21.05.2016 00:41 9,1 C 90 % 1020,4 hPa 0,0 l/m 4,3 km/h (1 Bft) S 190 0 min 0,000 mm 0,0 UV-I 0 W/m 7,5 C 9,1 C 6,4 km/h (2 Bft) 100,00 %
21.05.2016 00:42 9,1 C 90 % 1020,4 hPa 0,0 l/m 4,7 km/h (1 Bft) S 184 0 min 0,000 mm 0,0 UV-I 0 W/m 7,5 C 9,1 C 6,4 km/h (2 Bft) 100,00 %
21.05.2016 00:43 9,1 C 90 % 1020,4 hPa 0,0 l/m 4,2 km/h (1 Bft) S 184 0 min 0,000 mm 0,0 UV-I 0 W/m 7,5 C 9,1 C 6,4 km/h (2 Bft) 100,00 %
21.05.2016 00:44 9,0 C 90 % 1020,4 hPa 0,0 l/m 5,0 km/h (1 Bft) S 186 0 min 0,000 mm 0,0 UV-I 0 W/m 7,4 C 9,0 C 6,4 km/h (2 Bft) 100,00 %
21.05.2016 00:45 9,0 C 90 % 1020,4 hPa 0,0 l/m 5,1 km/h (1 Bft) S 177 0 min 0,000 mm 0,0 UV-I 0 W/m 7,4 C 9,0 C 6,4 km/h (2 Bft) 95,12 %
21.05.2016 00:46 9,0 C 90 % 1020,4 hPa 0,0 l/m 5,3 km/h (1 Bft) S 183 0 min 0,000 mm 0,0 UV-I 0 W/m 7,4 C 9,0 C 6,4 km/h (2 Bft) 91,67 %
21.05.2016 00:47 9,0 C 90 % 1020,4 hPa 0,0 l/m 6,0 km/h (2 Bft) S-SW 198 0 min 0,000 mm 0,0 UV-I 0 W/m 7,4 C 9,0 C 8,0 km/h (2 Bft) 96,55 %
21.05.2016 00:48 9,0 C 90 % 1020,4 hPa 0,0 l/m 5,3 km/h (1 Bft) S 191 0 min 0,000 mm 0,0 UV-I 0 W/m 7,4 C 9,0 C 8,0 km/h (2 Bft) 98,99 %
21.05.2016 00:49 9,0 C 90 % 1020,4 hPa 0,0 l/m 5,6 km/h (1 Bft) S 173 0 min 0,000 mm 0,0 UV-I 0 W/m 7,4 C 9,0 C 8,0 km/h (2 Bft) 100,00 %
21.05.2016 00:50 8,9 C 90 % 1020,4 hPa 0,0 l/m 6,4 km/h (2 Bft) S 184 0 min 0,000 mm 0,0 UV-I 0 W/m 7,4 C 8,9 C 9,7 km/h (2 Bft) 95,83 %
21.05.2016 00:51 8,9 C 90 % 1020,4 hPa 0,0 l/m 5,0 km/h (1 Bft) S 178 0 min 0,000 mm 0,0 UV-I 0 W/m 7,4 C 8,9 C 6,4 km/h (2 Bft) 100,00 %
21.05.2016 00:52 8,9 C 90 % 1020,4 hPa 0,0 l/m 6,2 km/h (2 Bft) S 188 0 min 0,000 mm 0,0 UV-I 0 W/m 7,4 C 8,9 C 8,0 km/h (2 Bft) 100,00 %
21.05.2016 00:53 8,9 C 90 % 1020,3 hPa 0,0 l/m 5,3 km/h (1 Bft) S-SO 161 0 min 0,000 mm 0,0 UV-I 0 W/m 7,4 C 8,9 C 9,7 km/h (2 Bft) 100,00 %
21.05.2016 00:54 8,9 C 90 % 1020,3 hPa 0,0 l/m 6,0 km/h (2 Bft) S 169 0 min 0,000 mm 0,0 UV-I 0 W/m 7,4 C 8,9 C 11,3 km/h (2 Bft) 100,00 %
21.05.2016 00:55 8,9 C 90 % 1020,3 hPa 0,0 l/m 7,1 km/h (2 Bft) S 182 0 min 0,000 mm 0,0 UV-I 0 W/m 7,4 C 8,4 C 11,3 km/h (2 Bft) 99,05 %
21.05.2016 00:56 8,9 C 90 % 1020,3 hPa 0,0 l/m 6,7 km/h (2 Bft) S 179 0 min 0,000 mm 0,0 UV-I 0 W/m 7,4 C 8,7 C 9,7 km/h (2 Bft) 100,00 %
21.05.2016 00:57 8,9 C 90 % 1020,3 hPa 0,0 l/m 7,5 km/h (2 Bft) S-SW 192 0 min 0,000 mm 0,0 UV-I 0 W/m 7,4 C 8,1 C 9,7 km/h (2 Bft) 96,15 %
21.05.2016 00:58 8,9 C 90 % 1020,3 hPa 0,0 l/m 5,8 km/h (2 Bft) S 173 0 min 0,000 mm 0,0 UV-I 0 W/m 7,4 C 8,9 C 8,0 km/h (2 Bft) 100,00 %
21.05.2016 00:59 8,9 C 90 % 1020,3 hPa 0,0 l/m 6,6 km/h (2 Bft) S-SW 196 0 min 0,000 mm 0,0 UV-I 0 W/m 7,4 C 8,8 C 9,7 km/h (2 Bft) 100,00 %
21.05.2016 01:00 8,9 C 90 % 1020,3 hPa 0,0 l/m 6,9 km/h (2 Bft) S 177 0 min 0,000 mm 0,0 UV-I 0 W/m 7,4 C 8,5 C 8,0 km/h (2 Bft) 100,00 %
21.05.2016 01:02 8,9 C 90 % 1020,3 hPa 0,0 l/m 5,5 km/h (1 Bft) S 186 0 min 0,000 mm 0,0 UV-I 0 W/m 7,4 C 8,9 C 6,4 km/h (2 Bft) 100,00 %
21.05.2016 01:03 8,9 C 90 % 1020,3 hPa 0,0 l/m 5,7 km/h (1 Bft) S 183 0 min 0,000 mm 0,0 UV-I 0 W/m 7,4 C 8,9 C 8,0 km/h (2 Bft) 95,65 %
21.05.2016 01:04 8,9 C 90 % 1020,3 hPa 0,0 l/m 5,1 km/h (1 Bft) S 182 0 min 0,000 mm 0,0 UV-I 0 W/m 7,4 C 8,9 C 8,0 km/h (2 Bft) 100,00 %
21.05.2016 01:05 8,9 C 90 % 1020,3 hPa 0,0 l/m 6,4 km/h (2 Bft) S 178 0 min 0,000 mm 0,0 UV-I 0 W/m 7,4 C 8,9 C 9,7 km/h (2 Bft) 100,00 %
21.05.2016 01:06 8,9 C 90 % 1020,3 hPa 0,0 l/m 5,6 km/h (1 Bft) S 186 0 min 0,000 mm 0,0 UV-I 0 W/m 7,4 C 8,9 C 8,0 km/h (2 Bft) 100,00 %
21.05.2016 01:07 8,9 C 90 % 1020,3 hPa 0,0 l/m 5,6 km/h (1 Bft) S 180 0 min 0,000 mm 0,0 UV-I 0 W/m 7,4 C 8,9 C 6,4 km/h (2 Bft) 100,00 %
21.05.2016 01:08 8,9 C 90 % 1020,3 hPa 0,0 l/m 6,8 km/h (2 Bft) S-SO 165 0 min 0,000 mm 0,0 UV-I 0 W/m 7,4 C 8,6 C 9,7 km/h (2 Bft) 100,00 %
21.05.2016 01:09 8,9 C 90 % 1020,3 hPa 0,0 l/m 6,0 km/h (2 Bft) S 180 0 min 0,000 mm 0,0 UV-I 0 W/m 7,4 C 8,9 C 8,0 km/h (2 Bft) 100,00 %
21.05.2016 01:10 8,9 C 90 % 1020,3 hPa 0,0 l/m 8,1 km/h (2 Bft) S 184 0 min 0,000 mm 0,0 UV-I 0 W/m 7,4 C 7,6 C 11,3 km/h (2 Bft) 95,65 %
21.05.2016 01:11 8,9 C 90 % 1020,2 hPa 0,0 l/m 6,9 km/h (2 Bft) S 189 0 min 0,000 mm 0,0 UV-I 0 W/m 7,4 C 8,5 C 9,7 km/h (2 Bft) 100,00 %
21.05.2016 01:12 8,9 C 89 % 1020,2 hPa 0,0 l/m 8,0 km/h (2 Bft) S-SW 200 0 min 0,000 mm 0,0 UV-I 0 W/m 7,2 C 7,7 C 11,3 km/h (2 Bft) 91,30 %
21.05.2016 01:13 8,9 C 89 % 1020,3 hPa 0,0 l/m 7,2 km/h (2 Bft) S-SW 196 0 min 0,000 mm 0,0 UV-I 0 W/m 7,2 C 8,3 C 9,7 km/h (2 Bft) 100,00 %
21.05.2016 01:14 8,9 C 89 % 1020,3 hPa 0,0 l/m 6,7 km/h (2 Bft) S 176 0 min 0,000 mm 0,0 UV-I 0 W/m 7,2 C 8,7 C 8,0 km/h (2 Bft) 90,91 %
21.05.2016 01:15 8,9 C 89 % 1020,3 hPa 0,0 l/m 5,9 km/h (2 Bft) S 170 0 min 0,000 mm 0,0 UV-I 0 W/m 7,2 C 8,9 C 8,0 km/h (2 Bft) 100,00 %
21.05.2016 01:16 8,9 C 89 % 1020,3 hPa 0,0 l/m 6,4 km/h (2 Bft) S 182 0 min 0,000 mm 0,0 UV-I 0 W/m 7,2 C 8,9 C 8,0 km/h (2 Bft) 96,15 %
21.05.2016 01:17 8,9 C 90 % 1020,3 hPa 0,0 l/m 6,6 km/h (2 Bft) S 181 0 min 0,000 mm 0,0 UV-I 0 W/m 7,4 C 8,8 C 9,7 km/h (2 Bft) 95,83 %
21.05.2016 01:18 8,9 C 90 % 1020,3 hPa 0,0 l/m 6,8 km/h (2 Bft) S 175 0 min 0,000 mm 0,0 UV-I 0 W/m 7,4 C 8,6 C 9,7 km/h (2 Bft) 100,00 %
21.05.2016 01:19 8,9 C 90 % 1020,3 hPa 0,0 l/m 7,0 km/h (2 Bft) S 173 0 min 0,000 mm 0,0 UV-I 0 W/m 7,4 C 8,4 C 9,7 km/h (2 Bft) 95,83 %
21.05.2016 01:20 8,9 C 90 % 1020,3 hPa 0,0 l/m 5,9 km/h (2 Bft) S-SO 164 0 min 0,000 mm 0,0 UV-I 0 W/m 7,4 C 8,9 C 8,0 km/h (2 Bft) 100,00 %
21.05.2016 01:21 8,9 C 89 % 1020,3 hPa 0,0 l/m 5,1 km/h (1 Bft) S 186 0 min 0,000 mm 0,0 UV-I 0 W/m 7,2 C 8,9 C 8,0 km/h (2 Bft) 91,67 %
21.05.2016 01:22 8,9 C 89 % 1020,3 hPa 0,0 l/m 6,7 km/h (2 Bft) S 181 0 min 0,000 mm 0,0 UV-I 0 W/m 7,2 C 8,7 C 8,0 km/h (2 Bft) 100,00 %
21.05.2016 01:23 8,8 C 89 % 1020,3 hPa 0,0 l/m 5,2 km/h (1 Bft) S 181 0 min 0,000 mm 0,0 UV-I 0 W/m 7,1 C 8,8 C 6,4 km/h (2 Bft) 97,56 %
21.05.2016 01:24 8,8 C 89 % 1020,3 hPa 0,0 l/m 5,5 km/h (1 Bft) S 180 0 min 0,000 mm 0,0 UV-I 0 W/m 7,1 C 8,8 C 6,4 km/h (2 Bft) 96,15 %
21.05.2016 01:25 8,8 C 89 % 1020,3 hPa 0,0 l/m 6,4 km/h (2 Bft) S 171 0 min 0,000 mm 0,0 UV-I 0 W/m 7,1 C 8,8 C 8,0 km/h (2 Bft) 95,83 %
21.05.2016 01:26 8,8 C 89 % 1020,3 hPa 0,0 l/m 5,7 km/h (1 Bft) S 178 0 min 0,000 mm 0,0 UV-I 0 W/m 7,1 C 8,8 C 8,0 km/h (2 Bft) 98,74 %
21.05.2016 01:27 8,8 C 89 % 1020,3 hPa 0,0 l/m 6,8 km/h (2 Bft) S-SW 201 0 min 0,000 mm 0,0 UV-I 0 W/m 7,1 C 8,5 C 9,7 km/h (2 Bft) 97,56 %
21.05.2016 01:28 8,8 C 89 % 1020,3 hPa 0,0 l/m 5,9 km/h (2 Bft) S 184 0 min 0,000 mm 0,0 UV-I 0 W/m 7,1 C 8,8 C 8,0 km/h (2 Bft) 96,15 %
21.05.2016 01:29 8,8 C 90 % 1020,3 hPa 0,0 l/m 5,4 km/h (1 Bft) S 189 0 min 0,000 mm 0,0 UV-I 0 W/m 7,3 C 8,8 C 6,4 km/h (2 Bft) 96,30 %
21.05.2016 01:30 8,7 C 90 % 1020,3 hPa 0,0 l/m 6,4 km/h (2 Bft) S 191 0 min 0,000 mm 0,0 UV-I 0 W/m 7,2 C 8,7 C 8,0 km/h (2 Bft) 100,00 %
21.05.2016 01:31 8,7 C 90 % 1020,3 hPa 0,0 l/m 5,9 km/h (2 Bft) S 188 0 min 0,000 mm 0,0 UV-I 0 W/m 7,2 C 8,7 C 6,4 km/h (2 Bft) 100,00 %
21.05.2016 01:32 8,7 C 90 % 1020,3 hPa 0,0 l/m 6,2 km/h (2 Bft) S-SW 207 0 min 0,000 mm 0,0 UV-I 0 W/m 7,2 C 8,7 C 8,0 km/h (2 Bft) 95,83 %
21.05.2016 01:33 8,7 C 90 % 1020,3 hPa 0,0 l/m 6,4 km/h (2 Bft) S-SW 199 0 min 0,000 mm 0,0 UV-I 0 W/m 7,2 C 8,7 C 11,3 km/h (2 Bft) 96,15 %
21.05.2016 01:34 8,7 C 90 % 1020,3 hPa 0,0 l/m 6,0 km/h (2 Bft) S 181 0 min 0,000 mm 0,0 UV-I 0 W/m 7,2 C 8,7 C 6,4 km/h (2 Bft) 100,00 %
21.05.2016 01:35 8,7 C 90 % 1020,2 hPa 0,0 l/m 6,0 km/h (2 Bft) S 180 0 min 0,000 mm 0,0 UV-I 0 W/m 7,2 C 8,7 C 8,0 km/h (2 Bft) 92,86 %
21.05.2016 01:36 8,7 C 90 % 1020,2 hPa 0,0 l/m 5,9 km/h (2 Bft) S 188 0 min 0,000 mm 0,0 UV-I 0 W/m 7,2 C 8,7 C 8,0 km/h (2 Bft) 100,00 %
21.05.2016 01:37 8,7 C 90 % 1020,2 hPa 0,0 l/m 6,6 km/h (2 Bft) S 175 0 min 0,000 mm 0,0 UV-I 0 W/m 7,2 C 8,6 C 8,0 km/h (2 Bft) 95,65 %
21.05.2016 01:38 8,7 C 90 % 1020,2 hPa 0,0 l/m 6,2 km/h (2 Bft) S 184 0 min 0,000 mm 0,0 UV-I 0 W/m 7,2 C 8,7 C 8,0 km/h (2 Bft) 95,83 %
21.05.2016 01:39 8,7 C 90 % 1020,2 hPa 0,0 l/m 5,6 km/h (1 Bft) S 182 0 min 0,000 mm 0,0 UV-I 0 W/m 7,2 C 8,7 C 6,4 km/h (2 Bft) 86,96 %
21.05.2016 01:40 8,7 C 90 % 1020,2 hPa 0,0 l/m 6,4 km/h (2 Bft) S 191 0 min 0,000 mm 0,0 UV-I 0 W/m 7,2 C 8,7 C 8,0 km/h (2 Bft) 96,30 %
21.05.2016 01:41 8,7 C 90 % 1020,1 hPa 0,0 l/m 7,7 km/h (2 Bft) S-SW 193 0 min 0,000 mm 0,0 UV-I 0 W/m 7,2 C 7,7 C 11,3 km/h (2 Bft) 96,15 %
21.05.2016 01:42 8,7 C 90 % 1020,1 hPa 0,0 l/m 7,5 km/h (2 Bft) S-SW 206 0 min 0,000 mm 0,0 UV-I 0 W/m 7,2 C 7,9 C 9,7 km/h (2 Bft) 100,00 %
21.05.2016 01:43 8,7 C 90 % 1020,1 hPa 0,0 l/m 7,1 km/h (2 Bft) S 182 0 min 0,000 mm 0,0 UV-I 0 W/m 7,2 C 8,2 C 11,3 km/h (2 Bft) 96,43 %
21.05.2016 01:44 8,7 C 90 % 1020,1 hPa 0,0 l/m 6,8 km/h (2 Bft) S 190 0 min 0,000 mm 0,0 UV-I 0 W/m 7,2 C 8,4 C 8,0 km/h (2 Bft) 95,83 %
21.05.2016 01:45 8,7 C 90 % 1020,1 hPa 0,0 l/m 7,7 km/h (2 Bft) S-SW 211 0 min 0,000 mm 0,0 UV-I 0 W/m 7,2 C 7,7 C 9,7 km/h (2 Bft) 100,00 %
21.05.2016 01:46 8,7 C 90 % 1020,1 hPa 0,0 l/m 5,8 km/h (2 Bft) S 178 0 min 0,000 mm 0,0 UV-I 0 W/m 7,2 C 8,7 C 8,0 km/h (2 Bft) 100,00 %
21.05.2016 01:47 8,7 C 90 % 1020,2 hPa 0,0 l/m 5,4 km/h (1 Bft) S 178 0 min 0,000 mm 0,0 UV-I 0 W/m 7,2 C 8,7 C 6,4 km/h (2 Bft) 100,00 %
21.05.2016 01:48 8,7 C 90 % 1020,2 hPa 0,0 l/m 5,5 km/h (1 Bft) S 184 0 min 0,000 mm 0,0 UV-I 0 W/m 7,2 C 8,7 C 8,0 km/h (2 Bft) 100,00 %
21.05.2016 01:49 8,7 C 90 % 1020,1 hPa 0,0 l/m 5,9 km/h (2 Bft) S 188 0 min 0,000 mm 0,0 UV-I 0 W/m 7,2 C 8,7 C 8,0 km/h (2 Bft) 100,00 %
21.05.2016 01:50 8,7 C 90 % 1020,1 hPa 0,0 l/m 6,0 km/h (2 Bft) S 188 0 min 0,000 mm 0,0 UV-I 0 W/m 7,2 C 8,7 C 6,4 km/h (2 Bft) 100,00 %
21.05.2016 01:51 8,7 C 90 % 1020,1 hPa 0,0 l/m 6,9 km/h (2 Bft) S 171 0 min 0,000 mm 0,0 UV-I 0 W/m 7,2 C 8,3 C 8,0 km/h (2 Bft) 100,00 %
21.05.2016 01:52 8,7 C 90 % 1020,1 hPa 0,0 l/m 6,6 km/h (2 Bft) S 190 0 min 0,000 mm 0,0 UV-I 0 W/m 7,2 C 8,6 C 8,0 km/h (2 Bft) 100,00 %
21.05.2016 01:53 8,7 C 90 % 1020,1 hPa 0,0 l/m 6,8 km/h (2 Bft) S 180 0 min 0,000 mm 0,0 UV-I 0 W/m 7,2 C 8,4 C 8,0 km/h (2 Bft) 93,33 %
21.05.2016 01:54 8,7 C 90 % 1020,1 hPa 0,0 l/m 6,1 km/h (2 Bft) S 182 0 min 0,000 mm 0,0 UV-I 0 W/m 7,2 C 8,7 C 8,0 km/h (2 Bft) 100,00 %
21.05.2016 01:55 8,7 C 90 % 1020,1 hPa 0,0 l/m 5,3 km/h (1 Bft) S 183 0 min 0,000 mm 0,0 UV-I 0 W/m 7,2 C 8,7 C 8,0 km/h (2 Bft) 97,62 %
21.05.2016 01:56 8,7 C 90 % 1020,1 hPa 0,0 l/m 6,8 km/h (2 Bft) S 172 0 min 0,000 mm 0,0 UV-I 0 W/m 7,2 C 8,4 C 8,0 km/h (2 Bft) 100,00 %
21.05.2016 01:57 8,7 C 90 % 1020,0 hPa 0,0 l/m 6,8 km/h (2 Bft) S 175 0 min 0,000 mm 0,0 UV-I 0 W/m 7,2 C 8,4 C 11,3 km/h (2 Bft) 100,00 %
21.05.2016 01:58 8,7 C 90 % 1020,0 hPa 0,0 l/m 6,9 km/h (2 Bft) S 179 0 min 0,000 mm 0,0 UV-I 0 W/m 7,2 C 8,3 C 8,0 km/h (2 Bft) 100,00 %
21.05.2016 01:59 8,7 C 90 % 1020,0 hPa 0,0 l/m 7,8 km/h (2 Bft) S 175 0 min 0,000 mm 0,0 UV-I 0 W/m 7,2 C 7,6 C 12,9 km/h (3 Bft) 100,00 %
21.05.2016 02:00 8,7 C 90 % 1020,0 hPa 0,0 l/m 6,6 km/h (2 Bft) S-SO 153 0 min 0,000 mm 0,0 UV-I 0 W/m 7,2 C 8,6 C 9,7 km/h (2 Bft) 95,65 %
21.05.2016 02:01 8,7 C 90 % 1020,0 hPa 0,0 l/m 6,0 km/h (2 Bft) S 182 0 min 0,000 mm 0,0 UV-I 0 W/m 7,2 C 8,7 C 8,0 km/h (2 Bft) 95,83 %
21.05.2016 02:02 8,7 C 90 % 1020,0 hPa 0,0 l/m 6,0 km/h (2 Bft) S 190 0 min 0,000 mm 0,0 UV-I 0 W/m 7,2 C 8,7 C 11,3 km/h (2 Bft) 100,00 %
21.05.2016 02:03 8,7 C 90 % 1020,1 hPa 0,0 l/m 5,9 km/h (2 Bft) S 183 0 min 0,000 mm 0,0 UV-I 0 W/m 7,2 C 8,7 C 8,0 km/h (2 Bft) 100,00 %
21.05.2016 02:04 8,7 C 90 % 1020,1 hPa 0,0 l/m 5,2 km/h (1 Bft) S 183 0 min 0,000 mm 0,0 UV-I 0 W/m 7,2 C 8,7 C 8,0 km/h (2 Bft) 100,00 %
21.05.2016 02:05 8,7 C 90 % 1020,1 hPa 0,0 l/m 6,6 km/h (2 Bft) S-SW 204 0 min 0,000 mm 0,0 UV-I 0 W/m 7,2 C 8,6 C 9,7 km/h (2 Bft) 100,00 %
21.05.2016 02:06 8,7 C 90 % 1020,1 hPa 0,0 l/m 5,8 km/h (2 Bft) S-SW 207 0 min 0,000 mm 0,0 UV-I 0 W/m 7,2 C 8,7 C 9,7 km/h (2 Bft) 95,65 %
21.05.2016 02:07 8,7 C 89 % 1020,1 hPa 0,0 l/m 6,7 km/h (2 Bft) S 174 0 min 0,000 mm 0,0 UV-I 0 W/m 7,0 C 8,5 C 9,7 km/h (2 Bft) 100,00 %
21.05.2016 02:08 8,7 C 90 % 1020,1 hPa 0,0 l/m 5,1 km/h (1 Bft) S-SW 197 0 min 0,000 mm 0,0 UV-I 0 W/m 7,2 C 8,7 C 6,4 km/h (2 Bft) 100,00 %
21.05.2016 02:09 8,7 C 89 % 1020,1 hPa 0,0 l/m 5,0 km/h (1 Bft) S 177 0 min 0,000 mm 0,0 UV-I 0 W/m 7,0 C 8,7 C 6,4 km/h (2 Bft) 100,00 %
21.05.2016 02:10 8,7 C 90 % 1020,0 hPa 0,0 l/m 5,4 km/h (1 Bft) S-SW 196 0 min 0,000 mm 0,0 UV-I 0 W/m 7,2 C 8,7 C 6,4 km/h (2 Bft) 95,83 %
21.05.2016 02:11 8,7 C 90 % 1020,0 hPa 0,0 l/m 6,2 km/h (2 Bft) S-SW 198 0 min 0,000 mm 0,0 UV-I 0 W/m 7,2 C 8,7 C 9,7 km/h (2 Bft) 100,00 %
21.05.2016 02:12 8,7 C 90 % 1020,0 hPa 0,0 l/m 3,9 km/h (1 Bft) S-SW 200 0 min 0,000 mm 0,0 UV-I 0 W/m 7,2 C 8,7 C 6,4 km/h (2 Bft) 100,00 %
21.05.2016 02:13 8,6 C 90 % 1020,0 hPa 0,0 l/m 3,6 km/h (1 Bft) S-SW 205 0 min 0,000 mm 0,0 UV-I 0 W/m 7,1 C 8,6 C 6,4 km/h (2 Bft) 100,00 %
21.05.2016 02:14 8,6 C 90 % 1020,0 hPa 0,0 l/m 4,7 km/h (1 Bft) S-SW 193 0 min 0,000 mm 0,0 UV-I 0 W/m 7,1 C 8,6 C 4,8 km/h (1 Bft) 100,00 %
21.05.2016 02:15 8,6 C 90 % 1020,1 hPa 0,0 l/m 5,0 km/h (1 Bft) S-SW 198 0 min 0,000 mm 0,0 UV-I 0 W/m 7,1 C 8,6 C 6,4 km/h (2 Bft) 100,00 %
21.05.2016 02:16 8,5 C 90 % 1020,0 hPa 0,0 l/m 5,9 km/h (2 Bft) S-SW 200 0 min 0,000 mm 0,0 UV-I 0 W/m 7,0 C 8,5 C 8,0 km/h (2 Bft) 100,00 %
21.05.2016 02:17 8,5 C 90 % 1020,0 hPa 0,0 l/m 5,0 km/h (1 Bft) S 182 0 min 0,000 mm 0,0 UV-I 0 W/m 7,0 C 8,5 C 6,4 km/h (2 Bft) 100,00 %
21.05.2016 02:18 8,5 C 90 % 1020,0 hPa 0,0 l/m 5,0 km/h (1 Bft) S-SW 198 0 min 0,000 mm 0,0 UV-I 0 W/m 7,0 C 8,5 C 6,4 km/h (2 Bft) 100,00 %
21.05.2016 02:19 8,5 C 90 % 1020,0 hPa 0,0 l/m 5,5 km/h (1 Bft) S 177 0 min 0,000 mm 0,0 UV-I 0 W/m 7,0 C 8,5 C 8,0 km/h (2 Bft) 95,65 %
21.05.2016 02:20 8,5 C 90 % 1020,0 hPa 0,0 l/m 5,9 km/h (2 Bft) S 179 0 min 0,000 mm 0,0 UV-I 0 W/m 7,0 C 8,5 C 8,0 km/h (2 Bft) 100,00 %
21.05.2016 02:21 8,5 C 90 % 1020,0 hPa 0,0 l/m 6,0 km/h (2 Bft) S 190 0 min 0,000 mm 0,0 UV-I 0 W/m 7,0 C 8,5 C 8,0 km/h (2 Bft) 100,00 %
21.05.2016 02:22 8,5 C 90 % 1020,0 hPa 0,0 l/m 4,5 km/h (1 Bft) S 190 0 min 0,000 mm 0,0 UV-I 0 W/m 7,0 C 8,5 C 8,0 km/h (2 Bft) 100,00 %
21.05.2016 02:23 8,5 C 90 % 1020,0 hPa 0,0 l/m 6,3 km/h (2 Bft) S 188 0 min 0,000 mm 0,0 UV-I 0 W/m 7,0 C 8,5 C 8,0 km/h (2 Bft) 100,00 %
21.05.2016 02:24 8,6 C 90 % 1020,0 hPa 0,0 l/m 5,8 km/h (2 Bft) S 191 0 min 0,000 mm 0,0 UV-I 0 W/m 7,1 C 8,6 C 8,0 km/h (2 Bft) 100,00 %
21.05.2016 02:25 8,5 C 90 % 1020,0 hPa 0,0 l/m 5,8 km/h (2 Bft) S-SW 195 0 min 0,000 mm 0,0 UV-I 0 W/m 7,0 C 8,5 C 8,0 km/h (2 Bft) 100,00 %
21.05.2016 02:26 8,5 C 90 % 1020,0 hPa 0,0 l/m 4,9 km/h (1 Bft) S-SW 206 0 min 0,000 mm 0,0 UV-I 0 W/m 7,0 C 8,5 C 6,4 km/h (2 Bft) 100,00 %
21.05.2016 02:27 8,5 C 90 % 1020,0 hPa 0,0 l/m 4,5 km/h (1 Bft) S 189 0 min 0,000 mm 0,0 UV-I 0 W/m 7,0 C 8,5 C 4,8 km/h (1 Bft) 100,00 %
21.05.2016 02:28 8,5 C 90 % 1020,0 hPa 0,0 l/m 3,8 km/h (1 Bft) S-SW 199 0 min 0,000 mm 0,0 UV-I 0 W/m 7,0 C 8,5 C 4,8 km/h (1 Bft) 100,00 %
21.05.2016 02:29 8,5 C 90 % 1020,0 hPa 0,0 l/m 3,5 km/h (1 Bft) S-SW 201 0 min 0,000 mm 0,0 UV-I 0 W/m 7,0 C 8,5 C 4,8 km/h (1 Bft) 100,00 %
21.05.2016 02:30 8,5 C 90 % 1020,0 hPa 0,0 l/m 3,9 km/h (1 Bft) S-SW 196 0 min 0,000 mm 0,0 UV-I 0 W/m 7,0 C 8,5 C 6,4 km/h (2 Bft) 100,00 %
21.05.2016 02:31 8,5 C 90 % 1020,0 hPa 0,0 l/m 3,0 km/h (1 Bft) S-SW 196 0 min 0,000 mm 0,0 UV-I 0 W/m 7,0 C 8,5 C 4,8 km/h (1 Bft) 95,65 %
21.05.2016 02:32 8,4 C 90 % 1020,0 hPa 0,0 l/m 2,3 km/h (1 Bft) S-SW 196 0 min 0,000 mm 0,0 UV-I 0 W/m 6,9 C 8,4 C 3,2 km/h (1 Bft) 100,00 %
21.05.2016 02:33 8,4 C 90 % 1020,0 hPa 0,0 l/m 2,0 km/h (1 Bft) S-SW 196 0 min 0,000 mm 0,0 UV-I 0 W/m 6,9 C 8,4 C 3,2 km/h (1 Bft) 100,00 %
21.05.2016 02:34 8,4 C 90 % 1020,0 hPa 0,0 l/m 1,5 km/h (1 Bft) S-SW 196 0 min 0,000 mm 0,0 UV-I 0 W/m 6,9 C 8,4 C 3,2 km/h (1 Bft) 100,00 %
21.05.2016 02:35 8,4 C 91 % 1020,0 hPa 0,0 l/m 2,9 km/h (1 Bft) S-SW 199 0 min 0,000 mm 0,0 UV-I 0 W/m 7,0 C 8,4 C 4,8 km/h (1 Bft) 100,00 %
21.05.2016 02:36 8,4 C 90 % 1020,0 hPa 0,0 l/m 2,3 km/h (1 Bft) S-SW 199 0 min 0,000 mm 0,0 UV-I 0 W/m 6,9 C 8,4 C 4,8 km/h (1 Bft) 100,00 %
21.05.2016 02:37 8,5 C 91 % 1020,0 hPa 0,0 l/m 1,3 km/h (1 Bft) S-SW 199 0 min 0,000 mm 0,0 UV-I 0 W/m 7,1 C 8,5 C 3,2 km/h (1 Bft) 100,00 %
21.05.2016 02:38 8,4 C 90 % 1020,0 hPa 0,0 l/m 1,4 km/h (1 Bft) S-SW 199 0 min 0,000 mm 0,0 UV-I 0 W/m 6,9 C 8,4 C 1,6 km/h (1 Bft) 100,00 %
21.05.2016 02:39 8,4 C 90 % 1020,0 hPa 0,0 l/m 0,1 km/h (0 Bft) S-SW 199 0 min 0,000 mm 0,0 UV-I 0 W/m 6,9 C 8,4 C 1,6 km/h (1 Bft) 100,00 %
21.05.2016 02:40 8,4 C 90 % 1020,0 hPa 0,0 l/m 2,2 km/h (1 Bft) S-SW 199 0 min 0,000 mm 0,0 UV-I 0 W/m 6,9 C 8,4 C 4,8 km/h (1 Bft) 100,00 %
21.05.2016 02:41 8,4 C 91 % 1020,0 hPa 0,0 l/m 1,7 km/h (1 Bft) S-SW 199 0 min 0,000 mm 0,0 UV-I 0 W/m 7,0 C 8,4 C 3,2 km/h (1 Bft) 96,30 %
21.05.2016 02:42 8,3 C 90 % 1020,0 hPa 0,0 l/m 1,0 km/h (0 Bft) S-SW 199 0 min 0,000 mm 0,0 UV-I 0 W/m 6,8 C 8,3 C 1,6 km/h (1 Bft) 100,00 %
21.05.2016 02:43 8,3 C 90 % 1019,9 hPa 0,0 l/m 2,4 km/h (1 Bft) S-SW 199 0 min 0,000 mm 0,0 UV-I 0 W/m 6,8 C 8,3 C 4,8 km/h (1 Bft) 100,00 %
21.05.2016 02:44 8,3 C 90 % 1019,9 hPa 0,0 l/m 2,3 km/h (1 Bft) S-SW 199 0 min 0,000 mm 0,0 UV-I 0 W/m 6,8 C 8,3 C 3,2 km/h (1 Bft) 100,00 %
21.05.2016 02:45 8,3 C 90 % 1019,9 hPa 0,0 l/m 1,3 km/h (1 Bft) S-SW 199 0 min 0,000 mm 0,0 UV-I 0 W/m 6,8 C 8,3 C 1,6 km/h (1 Bft) 96,43 %
21.05.2016 02:46 8,3 C 90 % 1019,9 hPa 0,0 l/m 1,3 km/h (1 Bft) S-SW 199 0 min 0,000 mm 0,0 UV-I 0 W/m 6,8 C 8,3 C 1,6 km/h (1 Bft) 100,00 %
21.05.2016 02:47 8,2 C 91 % 1019,9 hPa 0,0 l/m 1,2 km/h (1 Bft) S-SW 199 0 min 0,000 mm 0,0 UV-I 0 W/m 6,8 C 8,2 C 1,6 km/h (1 Bft) 100,00 %
21.05.2016 02:48 8,2 C 91 % 1020,0 hPa 0,0 l/m 1,4 km/h (1 Bft) S-SW 199 0 min 0,000 mm 0,0 UV-I 0 W/m 6,8 C 8,2 C 4,8 km/h (1 Bft) 100,00 %
21.05.2016 02:49 8,2 C 91 % 1020,0 hPa 0,0 l/m 0,1 km/h (0 Bft) S-SW 199 0 min 0,000 mm 0,0 UV-I 0 W/m 6,8 C 8,2 C 1,6 km/h (1 Bft) 100,00 %
21.05.2016 02:50 8,1 C 91 % 1020,0 hPa 0,0 l/m 0,0 km/h (0 Bft) S-SW 199 0 min 0,000 mm 0,0 UV-I 0 W/m 6,7 C 8,1 C 0,0 km/h (0 Bft) 100,00 %
21.05.2016 02:51 8,1 C 91 % 1020,0 hPa 0,0 l/m 0,2 km/h (0 Bft) S-SW 199 0 min 0,000 mm 0,0 UV-I 0 W/m 6,7 C 8,1 C 1,6 km/h (1 Bft) 95,65 %
21.05.2016 02:52 8,1 C 91 % 1020,0 hPa 0,0 l/m 0,1 km/h (0 Bft) S-SW 199 0 min 0,000 mm 0,0 UV-I 0 W/m 6,7 C 8,1 C 1,6 km/h (1 Bft) 100,00 %
21.05.2016 02:53 8,0 C 91 % 1020,0 hPa 0,0 l/m 0,1 km/h (0 Bft) S-SW 199 0 min 0,000 mm 0,0 UV-I 0 W/m 6,6 C 8,0 C 1,6 km/h (1 Bft) 100,00 %
21.05.2016 02:54 8,0 C 91 % 1020,0 hPa 0,0 l/m 0,3 km/h (0 Bft) S-SW 199 0 min 0,000 mm 0,0 UV-I 0 W/m 6,6 C 8,0 C 1,6 km/h (1 Bft) 100,00 %
21.05.2016 02:55 8,0 C 91 % 1020,0 hPa 0,0 l/m 0,3 km/h (0 Bft) S-SW 199 0 min 0,000 mm 0,0 UV-I 0 W/m 6,6 C 8,0 C 1,6 km/h (1 Bft) 100,00 %
21.05.2016 02:56 8,0 C 91 % 1020,0 hPa 0,0 l/m 0,3 km/h (0 Bft) S-SW 199 0 min 0,000 mm 0,0 UV-I 0 W/m 6,6 C 8,0 C 1,6 km/h (1 Bft) 100,00 %
21.05.2016 02:57 8,0 C 91 % 1020,0 hPa 0,0 l/m 0,1 km/h (0 Bft) S-SW 199 0 min 0,000 mm 0,0 UV-I 0 W/m 6,6 C 8,0 C 1,6 km/h (1 Bft) 100,00 %
21.05.2016 02:58 8,0 C 91 % 1020,0 hPa 0,0 l/m 0,0 km/h (0 Bft) S-SW 199 0 min 0,000 mm 0,0 UV-I 0 W/m 6,6 C 8,0 C 0,0 km/h (0 Bft) 93,33 %
21.05.2016 02:59 8,0 C 91 % 1020,1 hPa 0,0 l/m 0,0 km/h (0 Bft) S-SW 199 0 min 0,000 mm 0,0 UV-I 0 W/m 6,6 C 8,0 C 0,0 km/h (0 Bft) 100,00 %
21.05.2016 03:00 8,0 C 91 % 1020,1 hPa 0,0 l/m 0,0 km/h (0 Bft) S-SW 199 0 min 0,000 mm 0,0 UV-I 0 W/m 6,6 C 8,0 C 0,0 km/h (0 Bft) 100,00 %
21.05.2016 03:02 8,0 C 91 % 1020,1 hPa 0,0 l/m 0,0 km/h (0 Bft) S-SW 199 0 min 0,000 mm 0,0 UV-I 0 W/m 6,6 C 8,0 C 0,0 km/h (0 Bft) 100,00 %
21.05.2016 03:03 7,9 C 91 % 1020,1 hPa 0,0 l/m 0,0 km/h (0 Bft) S-SW 199 0 min 0,000 mm 0,0 UV-I 0 W/m 6,5 C 7,9 C 0,0 km/h (0 Bft) 100,00 %
21.05.2016 03:04 7,9 C 91 % 1020,1 hPa 0,0 l/m 0,0 km/h (0 Bft) S-SW 199 0 min 0,000 mm 0,0 UV-I 0 W/m 6,5 C 7,9 C 0,0 km/h (0 Bft) 100,00 %
21.05.2016 03:05 7,8 C 91 % 1020,1 hPa 0,0 l/m 0,0 km/h (0 Bft) S-SW 199 0 min 0,000 mm 0,0 UV-I 0 W/m 6,4 C 7,8 C 0,0 km/h (0 Bft) 96,15 %
21.05.2016 03:06 7,8 C 91 % 1020,1 hPa 0,0 l/m 0,0 km/h (0 Bft) S-SW 199 0 min 0,000 mm 0,0 UV-I 0 W/m 6,4 C 7,8 C 0,0 km/h (0 Bft) 95,83 %
21.05.2016 03:07 7,8 C 91 % 1020,1 hPa 0,0 l/m 0,0 km/h (0 Bft) S-SW 199 0 min 0,000 mm 0,0 UV-I 0 W/m 6,4 C 7,8 C 0,0 km/h (0 Bft) 91,67 %
21.05.2016 03:08 7,8 C 91 % 1020,1 hPa 0,0 l/m 0,3 km/h (0 Bft) S-SW 199 0 min 0,000 mm 0,0 UV-I 0 W/m 6,4 C 7,8 C 1,6 km/h (1 Bft) 100,00 %
21.05.2016 03:09 7,8 C 91 % 1020,1 hPa 0,0 l/m 1,3 km/h (1 Bft) S-SW 199 0 min 0,000 mm 0,0 UV-I 0 W/m 6,4 C 7,8 C 1,6 km/h (1 Bft) 100,00 %
21.05.2016 03:10 7,8 C 91 % 1020,1 hPa 0,0 l/m 1,8 km/h (1 Bft) S-SW 199 0 min 0,000 mm 0,0 UV-I 0 W/m 6,4 C 7,8 C 3,2 km/h (1 Bft) 100,00 %
21.05.2016 03:11 7,7 C 91 % 1020,1 hPa 0,0 l/m 1,7 km/h (1 Bft) S-SW 199 0 min 0,000 mm 0,0 UV-I 0 W/m 6,3 C 7,7 C 3,2 km/h (1 Bft) 100,00 %
21.05.2016 03:12 7,7 C 91 % 1020,1 hPa 0,0 l/m 2,4 km/h (1 Bft) S-SW 199 0 min 0,000 mm 0,0 UV-I 0 W/m 6,3 C 7,7 C 3,2 km/h (1 Bft) 100,00 %
21.05.2016 03:13 7,6 C 92 % 1020,1 hPa 0,0 l/m 3,2 km/h (1 Bft) S-SW 199 0 min 0,000 mm 0,0 UV-I 0 W/m 6,4 C 7,6 C 4,8 km/h (1 Bft) 100,00 %
21.05.2016 03:14 7,6 C 92 % 1020,1 hPa 0,0 l/m 3,4 km/h (1 Bft) S-SW 199 0 min 0,000 mm 0,0 UV-I 0 W/m 6,4 C 7,6 C 4,8 km/h (1 Bft) 100,00 %
21.05.2016 03:15 7,5 C 92 % 1020,1 hPa 0,0 l/m 2,8 km/h (1 Bft) S-SW 199 0 min 0,000 mm 0,0 UV-I 0 W/m 6,3 C 7,5 C 3,2 km/h (1 Bft) 93,33 %
21.05.2016 03:16 7,4 C 92 % 1020,1 hPa 0,0 l/m 1,3 km/h (1 Bft) S-SW 199 0 min 0,000 mm 0,0 UV-I 0 W/m 6,2 C 7,4 C 3,2 km/h (1 Bft) 95,65 %
21.05.2016 03:17 7,4 C 92 % 1020,1 hPa 0,0 l/m 0,9 km/h (0 Bft) S-SW 199 0 min 0,000 mm 0,0 UV-I 0 W/m 6,2 C 7,4 C 1,6 km/h (1 Bft) 95,83 %
21.05.2016 03:18 7,4 C 92 % 1020,1 hPa 0,0 l/m 0,8 km/h (0 Bft) S-SW 199 0 min 0,000 mm 0,0 UV-I 0 W/m 6,2 C 7,4 C 1,6 km/h (1 Bft) 96,15 %
21.05.2016 03:19 7,3 C 92 % 1020,1 hPa 0,0 l/m 1,8 km/h (1 Bft) S-SW 199 0 min 0,000 mm 0,0 UV-I 0 W/m 6,1 C 7,3 C 3,2 km/h (1 Bft) 95,83 %
21.05.2016 03:20 7,3 C 92 % 1020,1 hPa 0,0 l/m 2,0 km/h (1 Bft) S-SW 199 0 min 0,000 mm 0,0 UV-I 0 W/m 6,1 C 7,3 C 3,2 km/h (1 Bft) 100,00 %
21.05.2016 03:21 7,3 C 92 % 1020,1 hPa 0,0 l/m 1,9 km/h (1 Bft) S-SW 199 0 min 0,000 mm 0,0 UV-I 0 W/m 6,1 C 7,3 C 3,2 km/h (1 Bft) 91,67 %
21.05.2016 03:22 7,2 C 92 % 1020,1 hPa 0,0 l/m 1,5 km/h (1 Bft) S-SW 199 0 min 0,000 mm 0,0 UV-I 0 W/m 6,0 C 7,2 C 3,2 km/h (1 Bft) 100,00 %
21.05.2016 03:23 7,2 C 93 % 1020,1 hPa 0,0 l/m 1,6 km/h (1 Bft) S-SW 199 0 min 0,000 mm 0,0 UV-I 0 W/m 6,1 C 7,2 C 3,2 km/h (1 Bft) 96,15 %
21.05.2016 03:24 7,2 C 93 % 1020,1 hPa 0,0 l/m 0,7 km/h (0 Bft) S-SW 199 0 min 0,000 mm 0,0 UV-I 0 W/m 6,1 C 7,2 C 1,6 km/h (1 Bft) 100,00 %
21.05.2016 03:25 7,2 C 93 % 1020,1 hPa 0,0 l/m 0,6 km/h (0 Bft) S-SW 199 0 min 0,000 mm 0,0 UV-I 0 W/m 6,1 C 7,2 C 1,6 km/h (1 Bft) 96,30 %
21.05.2016 03:26 7,2 C 93 % 1020,1 hPa 0,0 l/m 1,4 km/h (1 Bft) S-SW 198 0 min 0,000 mm 0,0 UV-I 0 W/m 6,1 C 7,2 C 3,2 km/h (1 Bft) 95,65 %
21.05.2016 03:27 7,2 C 93 % 1020,1 hPa 0,0 l/m 1,0 km/h (0 Bft) S-SW 198 0 min 0,000 mm 0,0 UV-I 0 W/m 6,1 C 7,2 C 1,6 km/h (1 Bft) 100,00 %
21.05.2016 03:28 7,2 C 94 % 1020,1 hPa 0,0 l/m 0,9 km/h (0 Bft) S-SW 198 0 min 0,000 mm 0,0 UV-I 0 W/m 6,3 C 7,2 C 1,6 km/h (1 Bft) 91,67 %
21.05.2016 03:29 7,2 C 93 % 1020,1 hPa 0,0 l/m 0,6 km/h (0 Bft) S-SW 198 0 min 0,000 mm 0,0 UV-I 0 W/m 6,1 C 7,2 C 1,6 km/h (1 Bft) 100,00 %
21.05.2016 03:30 7,2 C 93 % 1020,1 hPa 0,0 l/m 0,6 km/h (0 Bft) S-SW 198 0 min 0,000 mm 0,0 UV-I 0 W/m 6,1 C 7,2 C 1,6 km/h (1 Bft) 92,59 %
21.05.2016 03:31 7,2 C 93 % 1020,1 hPa 0,0 l/m 0,3 km/h (0 Bft) S-SW 198 0 min 0,000 mm 0,0 UV-I 0 W/m 6,1 C 7,2 C 1,6 km/h (1 Bft) 95,65 %
21.05.2016 03:32 7,2 C 93 % 1020,1 hPa 0,0 l/m 1,1 km/h (1 Bft) S-SW 198 0 min 0,000 mm 0,0 UV-I 0 W/m 6,1 C 7,2 C 1,6 km/h (1 Bft) 95,83 %
21.05.2016 03:33 7,2 C 93 % 1020,1 hPa 0,0 l/m 0,7 km/h (0 Bft) S-SW 198 0 min 0,000 mm 0,0 UV-I 0 W/m 6,1 C 7,2 C 1,6 km/h (1 Bft) 95,65 %
21.05.2016 03:34 7,2 C 93 % 1020,1 hPa 0,0 l/m 0,4 km/h (0 Bft) S-SW 198 0 min 0,000 mm 0,0 UV-I 0 W/m 6,1 C 7,2 C 1,6 km/h (1 Bft) 100,00 %
21.05.2016 03:35 7,1 C 93 % 1020,1 hPa 0,0 l/m 0,5 km/h (0 Bft) S-SW 198 0 min 0,000 mm 0,0 UV-I 0 W/m 6,0 C 7,1 C 1,6 km/h (1 Bft) 95,65 %
21.05.2016 03:36 7,1 C 93 % 1020,1 hPa 0,0 l/m 0,4 km/h (0 Bft) S-SW 198 0 min 0,000 mm 0,0 UV-I 0 W/m 6,0 C 7,1 C 1,6 km/h (1 Bft) 100,00 %
21.05.2016 03:37 7,1 C 94 % 1020,1 hPa 0,0 l/m 1,1 km/h (1 Bft) S-SW 198 0 min 0,000 mm 0,0 UV-I 0 W/m 6,2 C 7,1 C 3,2 km/h (1 Bft) 91,30 %
21.05.2016 03:38 7,1 C 93 % 1020,1 hPa 0,0 l/m 1,4 km/h (1 Bft) S-SW 198 0 min 0,000 mm 0,0 UV-I 0 W/m 6,0 C 7,1 C 3,2 km/h (1 Bft) 100,00 %
21.05.2016 03:39 7,0 C 93 % 1020,1 hPa 0,0 l/m 1,2 km/h (1 Bft) S-SW 196 0 min 0,000 mm 0,0 UV-I 0 W/m 5,9 C 7,0 C 1,6 km/h (1 Bft) 92,86 %
21.05.2016 03:40 7,0 C 94 % 1020,1 hPa 0,0 l/m 1,0 km/h (0 Bft) S-SW 196 0 min 0,000 mm 0,0 UV-I 0 W/m 6,1 C 7,0 C 3,2 km/h (1 Bft) 95,83 %
21.05.2016 03:41 7,0 C 94 % 1020,1 hPa 0,0 l/m 1,6 km/h (1 Bft) S-SW 196 0 min 0,000 mm 0,0 UV-I 0 W/m 6,1 C 7,0 C 3,2 km/h (1 Bft) 96,15 %
21.05.2016 03:42 7,0 C 94 % 1020,1 hPa 0,0 l/m 2,1 km/h (1 Bft) S-SW 192 0 min 0,000 mm 0,0 UV-I 0 W/m 6,1 C 7,0 C 3,2 km/h (1 Bft) 95,83 %
21.05.2016 03:43 7,0 C 94 % 1020,1 hPa 0,0 l/m 2,7 km/h (1 Bft) S 182 0 min 0,000 mm 0,0 UV-I 0 W/m 6,1 C 7,0 C 3,2 km/h (1 Bft) 100,00 %
21.05.2016 03:44 7,0 C 94 % 1020,1 hPa 0,0 l/m 2,0 km/h (1 Bft) S 182 0 min 0,000 mm 0,0 UV-I 0 W/m 6,1 C 7,0 C 3,2 km/h (1 Bft) 93,33 %
21.05.2016 03:45 7,0 C 94 % 1020,2 hPa 0,0 l/m 2,6 km/h (1 Bft) S 180 0 min 0,000 mm 0,0 UV-I 0 W/m 6,1 C 7,0 C 4,8 km/h (1 Bft) 100,00 %
21.05.2016 03:46 7,0 C 94 % 1020,2 hPa 0,0 l/m 2,2 km/h (1 Bft) S 179 0 min 0,000 mm 0,0 UV-I 0 W/m 6,1 C 7,0 C 3,2 km/h (1 Bft) 95,83 %
21.05.2016 03:47 7,0 C 94 % 1020,2 hPa 0,0 l/m 2,3 km/h (1 Bft) S 179 0 min 0,000 mm 0,0 UV-I 0 W/m 6,1 C 7,0 C 3,2 km/h (1 Bft) 95,65 %
21.05.2016 03:48 6,9 C 94 % 1020,2 hPa 0,0 l/m 1,6 km/h (1 Bft) S 179 0 min 0,000 mm 0,0 UV-I 0 W/m 6,0 C 6,9 C 3,2 km/h (1 Bft) 95,83 %
21.05.2016 03:49 6,9 C 94 % 1020,2 hPa 0,0 l/m 2,1 km/h (1 Bft) S 179 0 min 0,000 mm 0,0 UV-I 0 W/m 6,0 C 6,9 C 3,2 km/h (1 Bft) 100,00 %
21.05.2016 03:50 6,9 C 94 % 1020,2 hPa 0,0 l/m 2,0 km/h (1 Bft) S 179 0 min 0,000 mm 0,0 UV-I 0 W/m 6,0 C 6,9 C 3,2 km/h (1 Bft) 95,65 %
21.05.2016 03:51 6,9 C 94 % 1020,2 hPa 0,0 l/m 2,2 km/h (1 Bft) S 179 0 min 0,000 mm 0,0 UV-I 0 W/m 6,0 C 6,9 C 3,2 km/h (1 Bft) 100,00 %
21.05.2016 03:52 6,8 C 94 % 1020,2 hPa 0,0 l/m 1,8 km/h (1 Bft) S 179 0 min 0,000 mm 0,0 UV-I 0 W/m 5,9 C 6,8 C 3,2 km/h (1 Bft) 100,00 %
21.05.2016 03:53 6,8 C 94 % 1020,2 hPa 0,0 l/m 2,2 km/h (1 Bft) S 179 0 min 0,000 mm 0,0 UV-I 0 W/m 5,9 C 6,8 C 3,2 km/h (1 Bft) 100,00 %
21.05.2016 03:54 6,8 C 94 % 1020,2 hPa 0,0 l/m 1,5 km/h (1 Bft) S 179 0 min 0,000 mm 0,0 UV-I 0 W/m 5,9 C 6,8 C 3,2 km/h (1 Bft) 100,00 %
21.05.2016 03:55 6,8 C 94 % 1020,2 hPa 0,0 l/m 1,3 km/h (1 Bft) S 179 0 min 0,000 mm 0,0 UV-I 0 W/m 5,9 C 6,8 C 1,6 km/h (1 Bft) 100,00 %
21.05.2016 03:56 6,8 C 94 % 1020,2 hPa 0,0 l/m 1,5 km/h (1 Bft) S 179 0 min 0,000 mm 0,0 UV-I 0 W/m 5,9 C 6,8 C 3,2 km/h (1 Bft) 100,00 %
21.05.2016 03:57 6,8 C 94 % 1020,2 hPa 0,0 l/m 2,4 km/h (1 Bft) S 179 0 min 0,000 mm 0,0 UV-I 0 W/m 5,9 C 6,8 C 3,2 km/h (1 Bft) 100,00 %
21.05.2016 03:58 6,8 C 94 % 1020,2 hPa 0,0 l/m 3,3 km/h (1 Bft) S 179 0 min 0,000 mm 0,0 UV-I 0 W/m 5,9 C 6,8 C 4,8 km/h (1 Bft) 96,55 %
21.05.2016 03:59 6,8 C 94 % 1020,2 hPa 0,0 l/m 3,9 km/h (1 Bft) S 179 0 min 0,000 mm 0,0 UV-I 0 W/m 5,9 C 6,8 C 4,8 km/h (1 Bft) 95,83 %
21.05.2016 04:00 6,8 C 94 % 1020,2 hPa 0,0 l/m 3,6 km/h (1 Bft) S 178 0 min 0,000 mm 0,0 UV-I 0 W/m 5,9 C 6,8 C 4,8 km/h (1 Bft) 100,00 %
21.05.2016 04:01 6,8 C 94 % 1020,2 hPa 0,0 l/m 3,3 km/h (1 Bft) S 178 0 min 0,000 mm 0,0 UV-I 0 W/m 5,9 C 6,8 C 4,8 km/h (1 Bft) 100,00 %
21.05.2016 04:02 6,8 C 94 % 1020,2 hPa 0,0 l/m 2,6 km/h (1 Bft) S 178 0 min 0,000 mm 0,0 UV-I 0 W/m 5,9 C 6,8 C 3,2 km/h (1 Bft) 100,00 %
21.05.2016 04:03 6,8 C 94 % 1020,2 hPa 0,0 l/m 2,3 km/h (1 Bft) S 178 0 min 0,000 mm 0,0 UV-I 0 W/m 5,9 C 6,8 C 3,2 km/h (1 Bft) 100,00 %
21.05.2016 04:04 6,8 C 94 % 1020,2 hPa 0,0 l/m 2,1 km/h (1 Bft) S 178 0 min 0,000 mm 0,0 UV-I 0 W/m 5,9 C 6,8 C 3,2 km/h (1 Bft) 100,00 %
21.05.2016 04:05 6,7 C 94 % 1020,2 hPa 0,0 l/m 0,6 km/h (0 Bft) S 178 0 min 0,000 mm 0,0 UV-I 0 W/m 5,8 C 6,7 C 1,6 km/h (1 Bft) 100,00 %
21.05.2016 04:06 6,7 C 94 % 1020,3 hPa 0,0 l/m 1,6 km/h (1 Bft) S 178 0 min 0,000 mm 0,0 UV-I 0 W/m 5,8 C 6,7 C 3,2 km/h (1 Bft) 100,00 %
21.05.2016 04:07 6,7 C 94 % 1020,3 hPa 0,0 l/m 1,0 km/h (0 Bft) S 178 0 min 0,000 mm 0,0 UV-I 0 W/m 5,8 C 6,7 C 1,6 km/h (1 Bft) 100,00 %
21.05.2016 04:08 6,7 C 94 % 1020,3 hPa 0,0 l/m 2,0 km/h (1 Bft) S 178 0 min 0,000 mm 0,0 UV-I 0 W/m 5,8 C 6,7 C 3,2 km/h (1 Bft) 95,65 %
21.05.2016 04:09 6,7 C 94 % 1020,3 hPa 0,0 l/m 1,4 km/h (1 Bft) S 178 0 min 0,000 mm 0,0 UV-I 0 W/m 5,8 C 6,7 C 3,2 km/h (1 Bft) 100,00 %
21.05.2016 04:10 6,6 C 94 % 1020,3 hPa 0,0 l/m 1,8 km/h (1 Bft) S 178 0 min 0,000 mm 0,0 UV-I 0 W/m 5,7 C 6,6 C 3,2 km/h (1 Bft) 100,00 %
21.05.2016 04:11 6,6 C 94 % 1020,3 hPa 0,0 l/m 1,6 km/h (1 Bft) S 178 0 min 0,000 mm 0,0 UV-I 0 W/m 5,7 C 6,6 C 1,6 km/h (1 Bft) 100,00 %
21.05.2016 04:12 6,5 C 94 % 1020,4 hPa 0,0 l/m 1,0 km/h (0 Bft) S 178 0 min 0,000 mm 0,0 UV-I 0 W/m 5,6 C 6,5 C 3,2 km/h (1 Bft) 94,44 %
21.05.2016 04:13 6,5 C 94 % 1020,4 hPa 0,0 l/m 0,4 km/h (0 Bft) S 178 0 min 0,000 mm 0,0 UV-I 0 W/m 5,6 C 6,5 C 1,6 km/h (1 Bft) 100,00 %
21.05.2016 04:14 6,4 C 94 % 1020,3 hPa 0,0 l/m 2,1 km/h (1 Bft) S 178 0 min 0,000 mm 0,0 UV-I 0 W/m 5,5 C 6,4 C 3,2 km/h (1 Bft) 100,00 %
21.05.2016 04:15 6,4 C 94 % 1020,3 hPa 0,0 l/m 3,1 km/h (1 Bft) S 178 0 min 0,000 mm 0,0 UV-I 0 W/m 5,5 C 6,4 C 4,8 km/h (1 Bft) 100,00 %
21.05.2016 04:16 6,4 C 94 % 1020,3 hPa 0,0 l/m 2,8 km/h (1 Bft) S 178 0 min 0,000 mm 0,0 UV-I 0 W/m 5,5 C 6,4 C 3,2 km/h (1 Bft) 100,00 %
21.05.2016 04:17 6,4 C 94 % 1020,3 hPa 0,0 l/m 2,9 km/h (1 Bft) S 178 0 min 0,000 mm 0,0 UV-I 0 W/m 5,5 C 6,4 C 3,2 km/h (1 Bft) 96,15 %
21.05.2016 04:18 6,4 C 94 % 1020,4 hPa 0,0 l/m 3,0 km/h (1 Bft) S 178 0 min 0,000 mm 0,0 UV-I 0 W/m 5,5 C 6,4 C 3,2 km/h (1 Bft) 100,00 %
21.05.2016 04:19 6,4 C 94 % 1020,3 hPa 0,0 l/m 3,0 km/h (1 Bft) S 178 0 min 0,000 mm 0,0 UV-I 0 W/m 5,5 C 6,4 C 4,8 km/h (1 Bft) 100,00 %
21.05.2016 04:20 6,4 C 94 % 1020,3 hPa 0,0 l/m 2,7 km/h (1 Bft) S 178 0 min 0,000 mm 0,0 UV-I 0 W/m 5,5 C 6,4 C 3,2 km/h (1 Bft) 100,00 %
21.05.2016 04:21 6,4 C 94 % 1020,4 hPa 0,0 l/m 2,3 km/h (1 Bft) S 178 0 min 0,000 mm 0,0 UV-I 0 W/m 5,5 C 6,4 C 3,2 km/h (1 Bft) 100,00 %
21.05.2016 04:22 6,4 C 94 % 1020,4 hPa 0,0 l/m 2,1 km/h (1 Bft) S 178 0 min 0,000 mm 0,0 UV-I 0 W/m 5,5 C 6,4 C 3,2 km/h (1 Bft) 100,00 %
21.05.2016 04:23 6,4 C 94 % 1020,4 hPa 0,0 l/m 2,1 km/h (1 Bft) S 178 0 min 0,000 mm 0,0 UV-I 0 W/m 5,5 C 6,4 C 3,2 km/h (1 Bft) 100,00 %
21.05.2016 04:24 6,4 C 94 % 1020,4 hPa 0,0 l/m 1,9 km/h (1 Bft) S 178 0 min 0,000 mm 0,0 UV-I 0 W/m 5,5 C 6,4 C 3,2 km/h (1 Bft) 100,00 %
21.05.2016 04:25 6,3 C 94 % 1020,4 hPa 0,0 l/m 1,0 km/h (0 Bft) S 178 0 min 0,000 mm 0,0 UV-I 0 W/m 5,4 C 6,3 C 1,6 km/h (1 Bft) 100,00 %
21.05.2016 04:26 6,4 C 94 % 1020,4 hPa 0,0 l/m 0,4 km/h (0 Bft) S 178 0 min 0,000 mm 0,0 UV-I 0 W/m 5,5 C 6,4 C 1,6 km/h (1 Bft) 100,00 %
21.05.2016 04:27 6,4 C 94 % 1020,4 hPa 0,0 l/m 0,5 km/h (0 Bft) S 178 0 min 0,000 mm 0,0 UV-I 0 W/m 5,5 C 6,4 C 1,6 km/h (1 Bft) 100,00 %
21.05.2016 04:28 6,4 C 94 % 1020,4 hPa 0,0 l/m 0,3 km/h (0 Bft) S 178 0 min 0,000 mm 0,0 UV-I 0 W/m 5,5 C 6,4 C 1,6 km/h (1 Bft) 95,83 %
21.05.2016 04:29 6,4 C 95 % 1020,4 hPa 0,0 l/m 0,2 km/h (0 Bft) S 178 0 min 0,000 mm 0,0 UV-I 0 W/m 5,7 C 6,4 C 1,6 km/h (1 Bft) 100,00 %
21.05.2016 04:30 6,4 C 95 % 1020,4 hPa 0,0 l/m 0,3 km/h (0 Bft) S 178 0 min 0,000 mm 0,0 UV-I 0 W/m 5,7 C 6,4 C 1,6 km/h (1 Bft) 100,00 %
21.05.2016 04:31 6,4 C 95 % 1020,4 hPa 0,0 l/m 0,8 km/h (0 Bft) S 178 0 min 0,000 mm 0,0 UV-I 0 W/m 5,7 C 6,4 C 1,6 km/h (1 Bft) 100,00 %
21.05.2016 04:32 6,4 C 95 % 1020,3 hPa 0,0 l/m 0,9 km/h (0 Bft) S 178 0 min 0,000 mm 0,0 UV-I 0 W/m 5,7 C 6,4 C 1,6 km/h (1 Bft) 90,91 %
21.05.2016 04:33 6,4 C 95 % 1020,3 hPa 0,0 l/m 0,9 km/h (0 Bft) S 178 0 min 0,000 mm 0,0 UV-I 0 W/m 5,7 C 6,4 C 3,2 km/h (1 Bft) 100,00 %
21.05.2016 04:34 6,4 C 95 % 1020,3 hPa 0,0 l/m 0,9 km/h (0 Bft) S 178 0 min 0,000 mm 0,0 UV-I 0 W/m 5,7 C 6,4 C 1,6 km/h (1 Bft) 100,00 %
21.05.2016 04:35 6,4 C 95 % 1020,4 hPa 0,0 l/m 1,2 km/h (1 Bft) S 178 0 min 0,000 mm 0,0 UV-I 0 W/m 5,7 C 6,4 C 3,2 km/h (1 Bft) 100,00 %
21.05.2016 04:36 6,5 C 94 % 1020,4 hPa 0,0 l/m 0,6 km/h (0 Bft) S 178 0 min 0,000 mm 0,0 UV-I 0 W/m 5,6 C 6,5 C 1,6 km/h (1 Bft) 100,00 %
21.05.2016 04:37 6,4 C 95 % 1020,4 hPa 0,0 l/m 1,0 km/h (0 Bft) S 178 0 min 0,000 mm 0,0 UV-I 0 W/m 5,7 C 6,4 C 3,2 km/h (1 Bft) 100,00 %
21.05.2016 04:38 6,4 C 94 % 1020,4 hPa 0,0 l/m 0,3 km/h (0 Bft) S 178 0 min 0,000 mm 0,0 UV-I 0 W/m 5,5 C 6,4 C 1,6 km/h (1 Bft) 95,65 %
21.05.2016 04:39 6,4 C 94 % 1020,3 hPa 0,0 l/m 0,0 km/h (0 Bft) S 178 0 min 0,000 mm 0,0 UV-I 0 W/m 5,5 C 6,4 C 0,0 km/h (0 Bft) 100,00 %
21.05.2016 04:40 6,4 C 94 % 1020,4 hPa 0,0 l/m 0,3 km/h (0 Bft) S 178 0 min 0,000 mm 0,0 UV-I 0 W/m 5,5 C 6,4 C 1,6 km/h (1 Bft) 95,65 %
21.05.2016 04:41 6,4 C 94 % 1020,4 hPa 0,0 l/m 0,0 km/h (0 Bft) S 178 0 min 0,000 mm 0,0 UV-I 0 W/m 5,5 C 6,4 C 0,0 km/h (0 Bft) 95,83 %
21.05.2016 04:42 6,4 C 94 % 1020,4 hPa 0,0 l/m 0,2 km/h (0 Bft) S 178 0 min 0,000 mm 0,0 UV-I 0 W/m 5,5 C 6,4 C 1,6 km/h (1 Bft) 100,00 %
21.05.2016 04:43 6,3 C 94 % 1020,4 hPa 0,0 l/m 0,6 km/h (0 Bft) S 178 0 min 0,000 mm 0,0 UV-I 0 W/m 5,4 C 6,3 C 1,6 km/h (1 Bft) 100,00 %
21.05.2016 04:44 6,3 C 94 % 1020,4 hPa 0,0 l/m 0,4 km/h (0 Bft) S 178 0 min 0,000 mm 0,0 UV-I 0 W/m 5,4 C 6,3 C 1,6 km/h (1 Bft) 100,00 %
21.05.2016 04:45 6,3 C 94 % 1020,4 hPa 0,0 l/m 0,9 km/h (0 Bft) S 178 0 min 0,000 mm 0,0 UV-I 0 W/m 5,4 C 6,3 C 1,6 km/h (1 Bft) 100,00 %
21.05.2016 04:46 6,3 C 94 % 1020,4 hPa 0,0 l/m 0,4 km/h (0 Bft) S 178 0 min 0,000 mm 0,0 UV-I 0 W/m 5,4 C 6,3 C 1,6 km/h (1 Bft) 100,00 %
21.05.2016 04:47 6,3 C 94 % 1020,4 hPa 0,0 l/m 0,4 km/h (0 Bft) S 178 0 min 0,000 mm 0,0 UV-I 0 W/m 5,4 C 6,3 C 1,6 km/h (1 Bft) 100,00 %
21.05.2016 04:48 6,3 C 94 % 1020,4 hPa 0,0 l/m 0,3 km/h (0 Bft) S 178 0 min 0,000 mm 0,0 UV-I 0 W/m 5,4 C 6,3 C 1,6 km/h (1 Bft) 100,00 %
21.05.2016 04:49 6,3 C 94 % 1020,4 hPa 0,0 l/m 1,1 km/h (1 Bft) S 178 0 min 0,000 mm 0,0 UV-I 0 W/m 5,4 C 6,3 C 1,6 km/h (1 Bft) 100,00 %
21.05.2016 04:50 6,3 C 94 % 1020,4 hPa 0,0 l/m 1,7 km/h (1 Bft) S 178 0 min 0,000 mm 0,0 UV-I 0 W/m 5,4 C 6,3 C 3,2 km/h (1 Bft) 100,00 %
21.05.2016 04:51 6,3 C 94 % 1020,4 hPa 0,0 l/m 1,4 km/h (1 Bft) S 178 0 min 0,000 mm 0,0 UV-I 0 W/m 5,4 C 6,3 C 3,2 km/h (1 Bft) 100,00 %
21.05.2016 04:52 6,4 C 95 % 1020,4 hPa 0,0 l/m 2,3 km/h (1 Bft) S 178 0 min 0,000 mm 0,0 UV-I 0 W/m 5,7 C 6,4 C 3,2 km/h (1 Bft) 100,00 %
21.05.2016 04:53 6,4 C 95 % 1020,4 hPa 0,0 l/m 3,2 km/h (1 Bft) S 178 0 min 0,000 mm 0,0 UV-I 0 W/m 5,7 C 6,4 C 4,8 km/h (1 Bft) 100,00 %
21.05.2016 04:54 6,4 C 95 % 1020,4 hPa 0,0 l/m 3,0 km/h (1 Bft) S 178 0 min 0,000 mm 0,0 UV-I 0 W/m 5,7 C 6,4 C 4,8 km/h (1 Bft) 100,00 %
21.05.2016 04:55 6,5 C 95 % 1020,4 hPa 0,0 l/m 4,2 km/h (1 Bft) S 170 0 min 0,000 mm 0,0 UV-I 0 W/m 5,8 C 6,5 C 6,4 km/h (2 Bft) 100,00 %
21.05.2016 04:56 6,5 C 95 % 1020,3 hPa 0,0 l/m 2,3 km/h (1 Bft) S 170 0 min 0,000 mm 0,0 UV-I 0 W/m 5,8 C 6,5 C 6,4 km/h (2 Bft) 100,00 %
21.05.2016 04:57 6,5 C 94 % 1020,3 hPa 0,0 l/m 1,3 km/h (1 Bft) S 170 0 min 0,000 mm 0,0 UV-I 0 W/m 5,6 C 6,5 C 3,2 km/h (1 Bft) 100,00 %
21.05.2016 04:58 6,5 C 95 % 1020,3 hPa 0,0 l/m 1,4 km/h (1 Bft) S 170 0 min 0,000 mm 0,0 UV-I 0 W/m 5,8 C 6,5 C 3,2 km/h (1 Bft) 100,00 %
21.05.2016 04:59 6,6 C 95 % 1020,3 hPa 0,0 l/m 1,6 km/h (1 Bft) S 170 0 min 0,000 mm 0,0 UV-I 0 W/m 5,9 C 6,6 C 3,2 km/h (1 Bft) 100,00 %
21.05.2016 05:00 6,6 C 95 % 1020,3 hPa 0,0 l/m 2,0 km/h (1 Bft) S 170 0 min 0,000 mm 0,0 UV-I 0 W/m 5,9 C 6,6 C 3,2 km/h (1 Bft) 100,00 %
21.05.2016 05:01 6,6 C 95 % 1020,3 hPa 0,0 l/m 1,5 km/h (1 Bft) S 170 0 min 0,000 mm 0,0 UV-I 0 W/m 5,9 C 6,6 C 3,2 km/h (1 Bft) 100,00 %
21.05.2016 05:02 6,6 C 95 % 1020,3 hPa 0,0 l/m 1,6 km/h (1 Bft) S 170 0 min 0,000 mm 0,0 UV-I 0 W/m 5,9 C 6,6 C 3,2 km/h (1 Bft) 100,00 %
21.05.2016 05:03 6,6 C 95 % 1020,3 hPa 0,0 l/m 1,4 km/h (1 Bft) S 170 0 min 0,000 mm 0,0 UV-I 0 W/m 5,9 C 6,6 C 3,2 km/h (1 Bft) 100,00 %
21.05.2016 05:04 6,6 C 94 % 1020,3 hPa 0,0 l/m 2,7 km/h (1 Bft) S 170 0 min 0,000 mm 0,0 UV-I 0 W/m 5,7 C 6,6 C 3,2 km/h (1 Bft) 100,00 %
21.05.2016 05:05 6,6 C 95 % 1020,3 hPa 0,0 l/m 2,6 km/h (1 Bft) S 170 0 min 0,000 mm 0,0 UV-I 0 W/m 5,9 C 6,6 C 3,2 km/h (1 Bft) 100,00 %
21.05.2016 05:06 6,6 C 95 % 1020,3 hPa 0,0 l/m 1,3 km/h (1 Bft) S 170 0 min 0,000 mm 0,0 UV-I 0 W/m 5,9 C 6,6 C 3,2 km/h (1 Bft) 100,00 %
21.05.2016 05:07 6,6 C 95 % 1020,3 hPa 0,0 l/m 0,6 km/h (0 Bft) S 170 0 min 0,000 mm 0,0 UV-I 0 W/m 5,9 C 6,6 C 1,6 km/h (1 Bft) 96,15 %
21.05.2016 05:08 6,6 C 95 % 1020,3 hPa 0,0 l/m 0,5 km/h (0 Bft) S 170 0 min 0,000 mm 0,0 UV-I 0 W/m 5,9 C 6,6 C 1,6 km/h (1 Bft) 100,00 %
21.05.2016 05:09 6,6 C 95 % 1020,3 hPa 0,0 l/m 0,4 km/h (0 Bft) S 170 0 min 0,000 mm 0,0 UV-I 0 W/m 5,9 C 6,6 C 1,6 km/h (1 Bft) 93,33 %
21.05.2016 05:10 6,6 C 95 % 1020,4 hPa 0,0 l/m 0,8 km/h (0 Bft) S 170 0 min 0,000 mm 0,0 UV-I 0 W/m 5,9 C 6,6 C 1,6 km/h (1 Bft) 100,00 %
21.05.2016 05:11 6,6 C 95 % 1020,3 hPa 0,0 l/m 0,8 km/h (0 Bft) S 170 0 min 0,000 mm 0,0 UV-I 0 W/m 5,9 C 6,6 C 3,2 km/h (1 Bft) 100,00 %
21.05.2016 05:12 6,6 C 95 % 1020,4 hPa 0,0 l/m 0,1 km/h (0 Bft) S 170 0 min 0,000 mm 0,0 UV-I 0 W/m 5,9 C 6,6 C 1,6 km/h (1 Bft) 100,00 %
21.05.2016 05:13 6,5 C 94 % 1020,4 hPa 0,0 l/m 0,3 km/h (0 Bft) S 170 0 min 0,000 mm 0,0 UV-I 0 W/m 5,6 C 6,5 C 1,6 km/h (1 Bft) 100,00 %
21.05.2016 05:14 6,4 C 94 % 1020,3 hPa 0,0 l/m 0,7 km/h (0 Bft) S 170 0 min 0,000 mm 0,0 UV-I 0 W/m 5,5 C 6,4 C 1,6 km/h (1 Bft) 95,65 %
21.05.2016 05:15 6,4 C 94 % 1020,3 hPa 0,0 l/m 0,4 km/h (0 Bft) S 170 0 min 0,000 mm 0,0 UV-I 2 W/m 5,5 C 6,4 C 1,6 km/h (1 Bft) 100,00 %
21.05.2016 05:16 6,4 C 94 % 1020,3 hPa 0,0 l/m 0,4 km/h (0 Bft) S 170 0 min 0,000 mm 0,0 UV-I 5 W/m 5,5 C 6,4 C 1,6 km/h (1 Bft) 100,00 %
21.05.2016 05:17 6,4 C 95 % 1020,3 hPa 0,0 l/m 2,4 km/h (1 Bft) S 170 0 min 0,000 mm 0,0 UV-I 5 W/m 5,7 C 6,4 C 6,4 km/h (2 Bft) 100,00 %
21.05.2016 05:18 6,4 C 95 % 1020,3 hPa 0,0 l/m 2,6 km/h (1 Bft) S 170 0 min 0,000 mm 0,0 UV-I 5 W/m 5,7 C 6,4 C 6,4 km/h (2 Bft) 100,00 %
21.05.2016 05:19 6,4 C 94 % 1020,3 hPa 0,0 l/m 2,0 km/h (1 Bft) S 170 0 min 0,000 mm 0,0 UV-I 5 W/m 5,5 C 6,4 C 3,2 km/h (1 Bft) 95,83 %
21.05.2016 05:20 6,4 C 94 % 1020,3 hPa 0,0 l/m 2,6 km/h (1 Bft) S 170 0 min 0,000 mm 0,0 UV-I 5 W/m 5,5 C 6,4 C 3,2 km/h (1 Bft) 100,00 %
21.05.2016 05:21 6,4 C 94 % 1020,3 hPa 0,0 l/m 2,3 km/h (1 Bft) S 170 0 min 0,000 mm 0,0 UV-I 5 W/m 5,5 C 6,4 C 3,2 km/h (1 Bft) 96,30 %
21.05.2016 05:22 6,3 C 94 % 1020,3 hPa 0,0 l/m 2,3 km/h (1 Bft) S 170 0 min 0,000 mm 0,0 UV-I 5 W/m 5,4 C 6,3 C 3,2 km/h (1 Bft) 100,00 %
21.05.2016 05:23 6,3 C 94 % 1020,3 hPa 0,0 l/m 2,7 km/h (1 Bft) S 170 0 min 0,000 mm 0,0 UV-I 6 W/m 5,4 C 6,3 C 3,2 km/h (1 Bft) 95,83 %
21.05.2016 05:24 6,3 C 95 % 1020,3 hPa 0,0 l/m 1,8 km/h (1 Bft) S 170 0 min 0,000 mm 0,0 UV-I 7 W/m 5,6 C 6,3 C 3,2 km/h (1 Bft) 96,55 %
21.05.2016 05:25 6,3 C 95 % 1020,3 hPa 0,0 l/m 1,9 km/h (1 Bft) S 170 0 min 0,000 mm 0,0 UV-I 7 W/m 5,6 C 6,3 C 3,2 km/h (1 Bft) 100,00 %
21.05.2016 05:26 6,3 C 95 % 1020,3 hPa 0,0 l/m 1,9 km/h (1 Bft) S 170 0 min 0,000 mm 0,0 UV-I 7 W/m 5,6 C 6,3 C 3,2 km/h (1 Bft) 100,00 %
21.05.2016 05:27 6,3 C 95 % 1020,3 hPa 0,0 l/m 0,1 km/h (0 Bft) S 170 0 min 0,000 mm 0,0 UV-I 7 W/m 5,6 C 6,3 C 1,6 km/h (1 Bft) 96,55 %
21.05.2016 05:28 6,4 C 95 % 1020,4 hPa 0,0 l/m 0,7 km/h (0 Bft) S 170 0 min 0,000 mm 0,0 UV-I 8 W/m 5,7 C 6,4 C 1,6 km/h (1 Bft) 91,30 %
21.05.2016 05:29 6,3 C 95 % 1020,3 hPa 0,0 l/m 0,9 km/h (0 Bft) S 170 1 min 0,000 mm 0,0 UV-I 9 W/m 5,6 C 6,3 C 1,6 km/h (1 Bft) 100,00 %
21.05.2016 05:30 6,3 C 94 % 1020,4 hPa 0,0 l/m 0,0 km/h (0 Bft) S 170 0 min 0,000 mm 0,0 UV-I 9 W/m 5,4 C 6,3 C 0,0 km/h (0 Bft) 95,83 %
21.05.2016 05:31 6,2 C 94 % 1020,4 hPa 0,0 l/m 0,1 km/h (0 Bft) S 170 0 min 0,000 mm 0,0 UV-I 9 W/m 5,3 C 6,2 C 1,6 km/h (1 Bft) 100,00 %
21.05.2016 05:32 6,2 C 94 % 1020,4 hPa 0,0 l/m 1,0 km/h (0 Bft) S 170 0 min 0,000 mm 0,0 UV-I 10 W/m 5,3 C 6,2 C 3,2 km/h (1 Bft) 95,83 %
21.05.2016 05:33 6,1 C 94 % 1020,4 hPa 0,0 l/m 2,3 km/h (1 Bft) S 170 0 min 0,000 mm 0,0 UV-I 11 W/m 5,2 C 6,1 C 3,2 km/h (1 Bft) 95,65 %
21.05.2016 05:34 6,0 C 94 % 1020,4 hPa 0,0 l/m 2,1 km/h (1 Bft) S 170 0 min 0,000 mm 0,0 UV-I 11 W/m 5,1 C 6,0 C 3,2 km/h (1 Bft) 100,00 %
21.05.2016 05:35 5,9 C 94 % 1020,3 hPa 0,0 l/m 1,8 km/h (1 Bft) S 170 0 min 0,000 mm 0,0 UV-I 12 W/m 5,0 C 5,9 C 3,2 km/h (1 Bft) 96,55 %
21.05.2016 05:36 5,8 C 94 % 1020,3 hPa 0,0 l/m 1,6 km/h (1 Bft) S 170 0 min 0,000 mm 0,0 UV-I 12 W/m 4,9 C 5,8 C 1,6 km/h (1 Bft) 100,00 %
21.05.2016 05:37 5,8 C 94 % 1020,3 hPa 0,0 l/m 1,5 km/h (1 Bft) S 170 0 min 0,000 mm 0,0 UV-I 14 W/m 4,9 C 5,8 C 1,6 km/h (1 Bft) 95,65 %
21.05.2016 05:38 5,8 C 94 % 1020,4 hPa 0,0 l/m 1,7 km/h (1 Bft) S 170 0 min 0,000 mm 0,0 UV-I 14 W/m 4,9 C 5,8 C 3,2 km/h (1 Bft) 100,00 %
21.05.2016 05:39 5,7 C 94 % 1020,4 hPa 0,0 l/m 1,4 km/h (1 Bft) S 170 0 min 0,000 mm 0,0 UV-I 15 W/m 4,8 C 5,7 C 3,2 km/h (1 Bft) 92,31 %
21.05.2016 05:40 5,7 C 95 % 1020,4 hPa 0,0 l/m 1,0 km/h (0 Bft) S 170 0 min 0,000 mm 0,0 UV-I 16 W/m 5,0 C 5,7 C 1,6 km/h (1 Bft) 93,33 %
21.05.2016 05:41 5,7 C 95 % 1020,4 hPa 0,0 l/m 0,9 km/h (0 Bft) S 170 0 min 0,000 mm 0,0 UV-I 16 W/m 5,0 C 5,7 C 1,6 km/h (1 Bft) 96,55 %
21.05.2016 05:42 5,7 C 95 % 1020,5 hPa 0,0 l/m 0,8 km/h (0 Bft) S 170 0 min 0,000 mm 0,0 UV-I 18 W/m 5,0 C 5,7 C 1,6 km/h (1 Bft) 96,30 %
21.05.2016 05:43 5,7 C 95 % 1020,5 hPa 0,0 l/m 1,3 km/h (1 Bft) S 170 0 min 0,000 mm 0,0 UV-I 18 W/m 5,0 C 5,7 C 1,6 km/h (1 Bft) 100,00 %
21.05.2016 05:44 5,8 C 95 % 1020,5 hPa 0,0 l/m 0,7 km/h (0 Bft) S 170 0 min 0,000 mm 0,0 UV-I 18 W/m 5,1 C 5,8 C 1,6 km/h (1 Bft) 95,83 %
21.05.2016 05:45 5,8 C 95 % 1020,5 hPa 0,0 l/m 0,4 km/h (0 Bft) S 170 0 min 0,000 mm 0,0 UV-I 19 W/m 5,1 C 5,8 C 1,6 km/h (1 Bft) 100,00 %
21.05.2016 05:46 5,8 C 95 % 1020,5 hPa 0,0 l/m 0,0 km/h (0 Bft) S 170 0 min 0,000 mm 0,0 UV-I 19 W/m 5,1 C 5,8 C 0,0 km/h (0 Bft) 95,83 %
21.05.2016 05:47 5,8 C 95 % 1020,5 hPa 0,0 l/m 0,0 km/h (0 Bft) S 170 0 min 0,000 mm 0,0 UV-I 19 W/m 5,1 C 5,8 C 0,0 km/h (0 Bft) 100,00 %
21.05.2016 05:48 5,8 C 95 % 1020,5 hPa 0,0 l/m 0,0 km/h (0 Bft) S 170 0 min 0,000 mm 0,0 UV-I 21 W/m 5,1 C 5,8 C 0,0 km/h (0 Bft) 91,67 %
21.05.2016 05:49 5,8 C 95 % 1020,5 hPa 0,0 l/m 0,0 km/h (0 Bft) S 170 0 min 0,000 mm 0,0 UV-I 21 W/m 5,1 C 5,8 C 0,0 km/h (0 Bft) 100,00 %
21.05.2016 05:50 5,8 C 95 % 1020,5 hPa 0,0 l/m 0,0 km/h (0 Bft) S 170 0 min 0,000 mm 0,0 UV-I 22 W/m 5,1 C 5,8 C 0,0 km/h (0 Bft) 95,65 %
21.05.2016 05:51 5,8 C 95 % 1020,5 hPa 0,0 l/m 0,0 km/h (0 Bft) S 170 0 min 0,000 mm 0,0 UV-I 23 W/m 5,1 C 5,8 C 0,0 km/h (0 Bft) 100,00 %
21.05.2016 05:52 5,8 C 95 % 1020,5 hPa 0,0 l/m 0,0 km/h (0 Bft) S 170 0 min 0,000 mm 0,0 UV-I 23 W/m 5,1 C 5,8 C 0,0 km/h (0 Bft) 95,65 %
21.05.2016 05:53 5,8 C 95 % 1020,5 hPa 0,0 l/m 0,0 km/h (0 Bft) S 170 0 min 0,000 mm 0,0 UV-I 25 W/m 5,1 C 5,8 C 0,0 km/h (0 Bft) 96,30 %
21.05.2016 05:54 5,8 C 95 % 1020,5 hPa 0,0 l/m 0,0 km/h (0 Bft) S 170 0 min 0,000 mm 0,0 UV-I 25 W/m 5,1 C 5,8 C 0,0 km/h (0 Bft) 100,00 %
21.05.2016 05:55 5,8 C 95 % 1020,5 hPa 0,0 l/m 0,0 km/h (0 Bft) S 170 0 min 0,000 mm 0,0 UV-I 25 W/m 5,1 C 5,8 C 0,0 km/h (0 Bft) 96,30 %
21.05.2016 05:56 5,8 C 95 % 1020,5 hPa 0,0 l/m 0,0 km/h (0 Bft) S 170 0 min 0,000 mm 0,0 UV-I 25 W/m 5,1 C 5,8 C 0,0 km/h (0 Bft) 100,00 %
21.05.2016 05:57 5,8 C 95 % 1020,5 hPa 0,0 l/m 0,0 km/h (0 Bft) S 170 0 min 0,000 mm 0,0 UV-I 26 W/m 5,1 C 5,8 C 0,0 km/h (0 Bft) 100,00 %
21.05.2016 05:58 5,8 C 95 % 1020,5 hPa 0,0 l/m 0,0 km/h (0 Bft) S 170 0 min 0,000 mm 0,0 UV-I 26 W/m 5,1 C 5,8 C 0,0 km/h (0 Bft) 100,00 %
21.05.2016 05:59 5,9 C 95 % 1020,5 hPa 0,0 l/m 0,1 km/h (0 Bft) S 170 0 min 0,000 mm 0,0 UV-I 26 W/m 5,2 C 5,9 C 1,6 km/h (1 Bft) 100,00 %
21.05.2016 06:00 5,9 C 95 % 1020,5 hPa 0,0 l/m 1,4 km/h (1 Bft) S 170 0 min 0,000 mm 0,0 UV-I 26 W/m 5,2 C 5,9 C 1,6 km/h (1 Bft) 100,00 %
21.05.2016 06:01 5,9 C 95 % 1020,5 hPa 0,0 l/m 1,7 km/h (1 Bft) S 170 0 min 0,000 mm 0,0 UV-I 28 W/m 5,2 C 5,9 C 3,2 km/h (1 Bft) 95,83 %
21.05.2016 06:02 5,9 C 95 % 1020,5 hPa 0,0 l/m 1,9 km/h (1 Bft) S 170 0 min 0,000 mm 0,0 UV-I 28 W/m 5,2 C 5,9 C 3,2 km/h (1 Bft) 100,00 %
21.05.2016 06:03 5,9 C 95 % 1020,5 hPa 0,0 l/m 1,6 km/h (1 Bft) S 170 0 min 0,000 mm 0,0 UV-I 28 W/m 5,2 C 5,9 C 1,6 km/h (1 Bft) 100,00 %
21.05.2016 06:04 6,0 C 95 % 1020,5 hPa 0,0 l/m 1,5 km/h (1 Bft) S 170 0 min 0,000 mm 0,0 UV-I 28 W/m 5,3 C 6,0 C 3,2 km/h (1 Bft) 95,65 %
21.05.2016 06:05 6,1 C 96 % 1020,5 hPa 0,0 l/m 2,0 km/h (1 Bft) S 170 0 min 0,000 mm 0,0 UV-I 28 W/m 5,5 C 6,1 C 3,2 km/h (1 Bft) 100,00 %
21.05.2016 06:06 6,1 C 96 % 1020,4 hPa 0,0 l/m 1,8 km/h (1 Bft) S 170 0 min 0,000 mm 0,0 UV-I 28 W/m 5,5 C 6,1 C 3,2 km/h (1 Bft) 100,00 %
21.05.2016 06:07 6,1 C 96 % 1020,5 hPa 0,0 l/m 1,7 km/h (1 Bft) S 170 0 min 0,000 mm 0,0 UV-I 30 W/m 5,5 C 6,1 C 3,2 km/h (1 Bft) 91,30 %
21.05.2016 06:08 6,2 C 96 % 1020,5 hPa 0,0 l/m 1,2 km/h (1 Bft) S 170 0 min 0,000 mm 0,0 UV-I 30 W/m 5,6 C 6,2 C 1,6 km/h (1 Bft) 100,00 %
21.05.2016 06:09 6,2 C 96 % 1020,5 hPa 0,0 l/m 1,5 km/h (1 Bft) S 170 0 min 0,000 mm 0,0 UV-I 30 W/m 5,6 C 6,2 C 1,6 km/h (1 Bft) 100,00 %
21.05.2016 06:10 6,2 C 96 % 1020,5 hPa 0,0 l/m 0,7 km/h (0 Bft) S 170 0 min 0,000 mm 0,0 UV-I 30 W/m 5,6 C 6,2 C 1,6 km/h (1 Bft) 96,30 %
21.05.2016 06:11 6,2 C 96 % 1020,5 hPa 0,0 l/m 1,6 km/h (1 Bft) S 170 0 min 0,000 mm 0,0 UV-I 32 W/m 5,6 C 6,2 C 1,6 km/h (1 Bft) 100,00 %
21.05.2016 06:12 6,2 C 95 % 1020,5 hPa 0,0 l/m 1,3 km/h (1 Bft) S 170 0 min 0,000 mm 0,0 UV-I 32 W/m 5,5 C 6,2 C 1,6 km/h (1 Bft) 100,00 %
21.05.2016 06:13 6,2 C 95 % 1020,5 hPa 0,0 l/m 1,2 km/h (1 Bft) S 170 0 min 0,000 mm 0,0 UV-I 32 W/m 5,5 C 6,2 C 1,6 km/h (1 Bft) 91,30 %
21.05.2016 06:14 6,3 C 95 % 1020,5 hPa 0,0 l/m 1,1 km/h (1 Bft) S 170 0 min 0,000 mm 0,0 UV-I 32 W/m 5,6 C 6,3 C 3,2 km/h (1 Bft) 100,00 %
21.05.2016 06:15 6,3 C 95 % 1020,6 hPa 0,0 l/m 1,8 km/h (1 Bft) S 170 0 min 0,000 mm 0,0 UV-I 33 W/m 5,6 C 6,3 C 3,2 km/h (1 Bft) 100,00 %
21.05.2016 06:16 6,3 C 95 % 1020,6 hPa 0,0 l/m 1,7 km/h (1 Bft) S 170 0 min 0,000 mm 0,0 UV-I 33 W/m 5,6 C 6,3 C 3,2 km/h (1 Bft) 100,00 %
21.05.2016 06:17 6,3 C 95 % 1020,6 hPa 0,0 l/m 1,5 km/h (1 Bft) S 170 0 min 0,000 mm 0,0 UV-I 33 W/m 5,6 C 6,3 C 1,6 km/h (1 Bft) 100,00 %
21.05.2016 06:18 6,4 C 95 % 1020,6 hPa 0,0 l/m 1,0 km/h (0 Bft) S 170 0 min 0,000 mm 0,0 UV-I 35 W/m 5,7 C 6,4 C 1,6 km/h (1 Bft) 100,00 %
21.05.2016 06:19 6,4 C 96 % 1020,6 hPa 0,0 l/m 0,8 km/h (0 Bft) S 170 0 min 0,000 mm 0,0 UV-I 35 W/m 5,8 C 6,4 C 1,6 km/h (1 Bft) 100,00 %
21.05.2016 06:20 6,4 C 96 % 1020,6 hPa 0,0 l/m 0,0 km/h (0 Bft) S 170 0 min 0,000 mm 0,0 UV-I 35 W/m 5,8 C 6,4 C 0,0 km/h (0 Bft) 100,00 %
21.05.2016 06:21 6,5 C 96 % 1020,6 hPa 0,0 l/m 0,1 km/h (0 Bft) S 170 0 min 0,000 mm 0,0 UV-I 36 W/m 5,9 C 6,5 C 1,6 km/h (1 Bft) 100,00 %
21.05.2016 06:22 6,5 C 96 % 1020,6 hPa 0,0 l/m 0,0 km/h (0 Bft) S 170 0 min 0,000 mm 0,0 UV-I 37 W/m 5,9 C 6,5 C 0,0 km/h (0 Bft) 100,00 %
21.05.2016 06:23 6,6 C 96 % 1020,6 hPa 0,0 l/m 0,0 km/h (0 Bft) S 170 0 min 0,000 mm 0,0 UV-I 37 W/m 6,0 C 6,6 C 0,0 km/h (0 Bft) 100,00 %
21.05.2016 06:24 6,6 C 96 % 1020,6 hPa 0,0 l/m 0,0 km/h (0 Bft) S 170 0 min 0,000 mm 0,0 UV-I 37 W/m 6,0 C 6,6 C 0,0 km/h (0 Bft) 100,00 %
21.05.2016 06:25 6,7 C 96 % 1020,6 hPa 0,0 l/m 0,0 km/h (0 Bft) S 170 0 min 0,000 mm 0,0 UV-I 38 W/m 6,1 C 6,7 C 0,0 km/h (0 Bft) 100,00 %
21.05.2016 06:26 6,7 C 96 % 1020,6 hPa 0,0 l/m 0,0 km/h (0 Bft) S 170 0 min 0,000 mm 0,0 UV-I 39 W/m 6,1 C 6,7 C 0,0 km/h (0 Bft) 100,00 %
21.05.2016 06:27 6,7 C 96 % 1020,6 hPa 0,0 l/m 0,0 km/h (0 Bft) S 170 0 min 0,000 mm 0,0 UV-I 39 W/m 6,1 C 6,7 C 0,0 km/h (0 Bft) 95,83 %
21.05.2016 06:28 6,8 C 96 % 1020,6 hPa 0,0 l/m 0,0 km/h (0 Bft) S 170 0 min 0,000 mm 0,0 UV-I 39 W/m 6,2 C 6,8 C 0,0 km/h (0 Bft) 100,00 %
21.05.2016 06:29 6,8 C 96 % 1020,6 hPa 0,0 l/m 0,1 km/h (0 Bft) S 170 0 min 0,000 mm 0,0 UV-I 39 W/m 6,2 C 6,8 C 1,6 km/h (1 Bft) 100,00 %
21.05.2016 06:30 6,9 C 96 % 1020,6 hPa 0,0 l/m 0,0 km/h (0 Bft) S 170 0 min 0,000 mm 0,0 UV-I 40 W/m 6,3 C 6,9 C 0,0 km/h (0 Bft) 100,00 %
21.05.2016 06:31 7,0 C 96 % 1020,6 hPa 0,0 l/m 0,0 km/h (0 Bft) S 170 0 min 0,000 mm 0,0 UV-I 40 W/m 6,4 C 7,0 C 0,0 km/h (0 Bft) 100,00 %
21.05.2016 06:32 7,1 C 96 % 1020,6 hPa 0,0 l/m 0,0 km/h (0 Bft) S 170 0 min 0,000 mm 0,0 UV-I 40 W/m 6,5 C 7,1 C 0,0 km/h (0 Bft) 100,00 %
21.05.2016 06:33 7,1 C 96 % 1020,6 hPa 0,0 l/m 0,0 km/h (0 Bft) S 170 0 min 0,000 mm 0,0 UV-I 40 W/m 6,5 C 7,1 C 0,0 km/h (0 Bft) 100,00 %
21.05.2016 06:34 7,2 C 96 % 1020,6 hPa 0,0 l/m 0,0 km/h (0 Bft) S 170 0 min 0,000 mm 0,0 UV-I 42 W/m 6,6 C 7,2 C 0,0 km/h (0 Bft) 100,00 %
21.05.2016 06:35 7,3 C 96 % 1020,6 hPa 0,0 l/m 0,2 km/h (0 Bft) S 170 0 min 0,000 mm 0,0 UV-I 42 W/m 6,7 C 7,3 C 1,6 km/h (1 Bft) 100,00 %
21.05.2016 06:36 7,3 C 96 % 1020,5 hPa 0,0 l/m 0,7 km/h (0 Bft) S 170 0 min 0,000 mm 0,0 UV-I 45 W/m 6,7 C 7,3 C 1,6 km/h (1 Bft) 100,00 %
21.05.2016 06:37 7,4 C 96 % 1020,6 hPa 0,0 l/m 0,1 km/h (0 Bft) S 170 0 min 0,000 mm 0,0 UV-I 63 W/m 6,8 C 7,4 C 1,6 km/h (1 Bft) 100,00 %
21.05.2016 06:38 7,4 C 95 % 1020,6 hPa 0,0 l/m 0,0 km/h (0 Bft) S 170 0 min 0,000 mm 0,0 UV-I 92 W/m 6,7 C 7,4 C 0,0 km/h (0 Bft) 100,00 %
21.05.2016 06:39 7,5 C 95 % 1020,6 hPa 0,0 l/m 0,0 km/h (0 Bft) S 170 0 min 0,000 mm 0,0 UV-I 105 W/m 6,8 C 7,5 C 0,0 km/h (0 Bft) 100,00 %
21.05.2016 06:40 7,6 C 95 % 1020,6 hPa 0,0 l/m 0,0 km/h (0 Bft) S 170 0 min 0,000 mm 0,0 UV-I 109 W/m 6,9 C 7,6 C 0,0 km/h (0 Bft) 92,31 %
21.05.2016 06:41 7,6 C 95 % 1020,6 hPa 0,0 l/m 0,0 km/h (0 Bft) S 170 0 min 0,000 mm 0,0 UV-I 109 W/m 6,9 C 7,6 C 0,0 km/h (0 Bft) 100,00 %
21.05.2016 06:42 7,7 C 95 % 1020,6 hPa 0,0 l/m 0,0 km/h (0 Bft) S 170 0 min 0,000 mm 0,0 UV-I 111 W/m 7,0 C 7,7 C 0,0 km/h (0 Bft) 100,00 %
21.05.2016 06:43 7,7 C 95 % 1020,5 hPa 0,0 l/m 0,0 km/h (0 Bft) S 170 0 min 0,000 mm 0,0 UV-I 113 W/m 7,0 C 7,7 C 0,0 km/h (0 Bft) 100,00 %
21.05.2016 06:44 7,7 C 95 % 1020,5 hPa 0,0 l/m 0,0 km/h (0 Bft) S 170 0 min 0,000 mm 0,0 UV-I 115 W/m 7,0 C 7,7 C 0,0 km/h (0 Bft) 100,00 %
21.05.2016 06:45 7,8 C 95 % 1020,6 hPa 0,0 l/m 0,0 km/h (0 Bft) S 170 1 min 0,000 mm 0,0 UV-I 120 W/m 7,0 C 7,8 C 0,0 km/h (0 Bft) 100,00 %
21.05.2016 06:46 7,8 C 95 % 1020,6 hPa 0,0 l/m 0,0 km/h (0 Bft) S 170 1 min 0,000 mm 0,0 UV-I 121 W/m 7,0 C 7,8 C 0,0 km/h (0 Bft) 100,00 %
21.05.2016 06:47 7,8 C 95 % 1020,6 hPa 0,0 l/m 0,0 km/h (0 Bft) S 170 1 min 0,000 mm 0,0 UV-I 121 W/m 7,0 C 7,8 C 0,0 km/h (0 Bft) 95,65 %
21.05.2016 06:48 7,8 C 95 % 1020,6 hPa 0,0 l/m 0,0 km/h (0 Bft) S 170 1 min 0,000 mm 0,0 UV-I 122 W/m 7,0 C 7,8 C 0,0 km/h (0 Bft) 100,00 %
21.05.2016 06:49 7,9 C 95 % 1020,6 hPa 0,0 l/m 0,0 km/h (0 Bft) S 170 1 min 0,000 mm 0,0 UV-I 126 W/m 7,1 C 7,9 C 0,0 km/h (0 Bft) 100,00 %
21.05.2016 06:50 7,9 C 95 % 1020,6 hPa 0,0 l/m 0,0 km/h (0 Bft) S 170 1 min 0,000 mm 0,0 UV-I 128 W/m 7,1 C 7,9 C 0,0 km/h (0 Bft) 100,00 %
21.05.2016 06:51 8,0 C 94 % 1020,6 hPa 0,0 l/m 0,0 km/h (0 Bft) S 170 1 min 0,000 mm 0,0 UV-I 127 W/m 7,1 C 8,0 C 0,0 km/h (0 Bft) 100,00 %
21.05.2016 06:52 8,1 C 94 % 1020,6 hPa 0,0 l/m 0,0 km/h (0 Bft) S 170 0 min 0,000 mm 0,0 UV-I 124 W/m 7,2 C 8,1 C 0,0 km/h (0 Bft) 100,00 %
21.05.2016 06:53 8,1 C 94 % 1020,6 hPa 0,0 l/m 0,0 km/h (0 Bft) S 170 0 min 0,000 mm 0,0 UV-I 126 W/m 7,2 C 8,1 C 0,0 km/h (0 Bft) 100,00 %
21.05.2016 06:54 8,2 C 94 % 1020,6 hPa 0,0 l/m 0,0 km/h (0 Bft) S 170 1 min 0,000 mm 0,0 UV-I 132 W/m 7,3 C 8,2 C 0,0 km/h (0 Bft) 100,00 %
21.05.2016 06:55 8,3 C 94 % 1020,6 hPa 0,0 l/m 0,0 km/h (0 Bft) S 170 1 min 0,000 mm 0,0 UV-I 133 W/m 7,4 C 8,3 C 0,0 km/h (0 Bft) 100,00 %
21.05.2016 06:56 8,3 C 93 % 1020,6 hPa 0,0 l/m 0,0 km/h (0 Bft) S 170 0 min 0,000 mm 0,0 UV-I 132 W/m 7,2 C 8,3 C 0,0 km/h (0 Bft) 100,00 %
21.05.2016 06:57 8,4 C 93 % 1020,6 hPa 0,0 l/m 0,0 km/h (0 Bft) S 170 0 min 0,000 mm 0,0 UV-I 134 W/m 7,3 C 8,4 C 0,0 km/h (0 Bft) 100,00 %
21.05.2016 06:58 8,4 C 93 % 1020,6 hPa 0,0 l/m 0,0 km/h (0 Bft) S 170 1 min 0,000 mm 0,0 UV-I 145 W/m 7,3 C 8,4 C 0,0 km/h (0 Bft) 100,00 %
21.05.2016 06:59 8,5 C 92 % 1020,6 hPa 0,0 l/m 0,0 km/h (0 Bft) S 170 1 min 0,000 mm 0,0 UV-I 153 W/m 7,3 C 8,5 C 0,0 km/h (0 Bft) 100,00 %
21.05.2016 07:00 8,6 C 92 % 1020,6 hPa 0,0 l/m 0,0 km/h (0 Bft) S 170 1 min 0,025 mm 0,0 UV-I 155 W/m 7,4 C 8,6 C 0,0 km/h (0 Bft) 100,00 %
21.05.2016 07:02 8,7 C 92 % 1020,6 hPa 0,0 l/m 0,0 km/h (0 Bft) S 170 2 min 0,000 mm 0,0 UV-I 160 W/m 7,5 C 8,7 C 1,6 km/h (1 Bft) 100,00 %
21.05.2016 07:03 8,8 C 91 % 1020,6 hPa 0,0 l/m 0,0 km/h (0 Bft) S 170 1 min 0,000 mm 0,0 UV-I 163 W/m 7,4 C 8,8 C 0,0 km/h (0 Bft) 100,00 %
21.05.2016 07:04 8,8 C 91 % 1020,6 hPa 0,0 l/m 0,6 km/h (0 Bft) S 170 1 min 0,000 mm 0,0 UV-I 165 W/m 7,4 C 8,8 C 1,6 km/h (1 Bft) 97,56 %
21.05.2016 07:05 8,9 C 91 % 1020,6 hPa 0,0 l/m 0,2 km/h (0 Bft) S 170 1 min 0,000 mm 0,0 UV-I 165 W/m 7,5 C 8,9 C 1,6 km/h (1 Bft) 100,00 %
21.05.2016 07:06 9,0 C 91 % 1020,6 hPa 0,0 l/m 0,0 km/h (0 Bft) S 170 1 min 0,000 mm 0,0 UV-I 166 W/m 7,6 C 9,0 C 0,0 km/h (0 Bft) 100,00 %
21.05.2016 07:07 9,1 C 92 % 1020,6 hPa 0,0 l/m 1,1 km/h (1 Bft) S 170 1 min 0,000 mm 0,0 UV-I 167 W/m 7,9 C 9,1 C 1,6 km/h (1 Bft) 100,00 %
21.05.2016 07:08 9,2 C 92 % 1020,6 hPa 0,0 l/m 0,1 km/h (0 Bft) S 170 1 min 0,000 mm 0,0 UV-I 170 W/m 8,0 C 9,2 C 1,6 km/h (1 Bft) 87,50 %
21.05.2016 07:09 9,3 C 92 % 1020,6 hPa 0,0 l/m 0,1 km/h (0 Bft) S 170 1 min 0,000 mm 0,0 UV-I 173 W/m 8,1 C 9,3 C 1,6 km/h (1 Bft) 95,83 %
21.05.2016 07:10 9,3 C 91 % 1020,6 hPa 0,0 l/m 0,7 km/h (0 Bft) S 170 1 min 0,000 mm 0,0 UV-I 174 W/m 7,9 C 9,3 C 1,6 km/h (1 Bft) 100,00 %
21.05.2016 07:11 9,4 C 91 % 1020,6 hPa 0,0 l/m 0,0 km/h (0 Bft) S 170 1 min 0,000 mm 0,0 UV-I 180 W/m 8,0 C 9,4 C 0,0 km/h (0 Bft) 100,00 %
21.05.2016 07:12 9,4 C 91 % 1020,6 hPa 0,0 l/m 0,0 km/h (0 Bft) S 170 1 min 0,000 mm 0,0 UV-I 184 W/m 8,0 C 9,4 C 0,0 km/h (0 Bft) 96,15 %
21.05.2016 07:13 9,5 C 91 % 1020,6 hPa 0,0 l/m 0,6 km/h (0 Bft) S 170 1 min 0,000 mm 0,0 UV-I 189 W/m 8,1 C 9,5 C 1,6 km/h (1 Bft) 100,00 %
21.05.2016 07:14 9,6 C 91 % 1020,6 hPa 0,0 l/m 0,3 km/h (0 Bft) S 170 1 min 0,000 mm 0,0 UV-I 196 W/m 8,2 C 9,6 C 1,6 km/h (1 Bft) 100,00 %
21.05.2016 07:15 9,7 C 91 % 1020,6 hPa 0,0 l/m 0,0 km/h (0 Bft) S 170 1 min 0,000 mm 0,0 UV-I 197 W/m 8,3 C 9,7 C 0,0 km/h (0 Bft) 100,00 %
21.05.2016 07:16 9,7 C 91 % 1020,6 hPa 0,0 l/m 0,0 km/h (0 Bft) S 170 1 min 0,000 mm 0,0 UV-I 197 W/m 8,3 C 9,7 C 0,0 km/h (0 Bft) 100,00 %
21.05.2016 07:17 9,8 C 91 % 1020,6 hPa 0,0 l/m 0,2 km/h (0 Bft) S 170 1 min 0,000 mm 0,0 UV-I 196 W/m 8,4 C 9,8 C 1,6 km/h (1 Bft) 100,00 %
21.05.2016 07:18 9,8 C 91 % 1020,6 hPa 0,0 l/m 0,0 km/h (0 Bft) S 170 1 min 0,000 mm 0,0 UV-I 193 W/m 8,4 C 9,8 C 0,0 km/h (0 Bft) 88,24 %
21.05.2016 07:19 9,9 C 91 % 1020,5 hPa 0,0 l/m 0,0 km/h (0 Bft) S 170 1 min 0,000 mm 0,0 UV-I 189 W/m 8,5 C 9,9 C 0,0 km/h (0 Bft) 95,83 %
21.05.2016 07:20 9,9 C 91 % 1020,6 hPa 0,0 l/m 0,0 km/h (0 Bft) S 170 1 min 0,000 mm 0,0 UV-I 184 W/m 8,5 C 9,9 C 0,0 km/h (0 Bft) 100,00 %
21.05.2016 07:21 9,9 C 91 % 1020,6 hPa 0,0 l/m 0,5 km/h (0 Bft) S 170 1 min 0,000 mm 0,0 UV-I 177 W/m 8,5 C 9,9 C 1,6 km/h (1 Bft) 100,00 %
21.05.2016 07:22 9,9 C 91 % 1020,6 hPa 0,0 l/m 1,3 km/h (1 Bft) S 170 1 min 0,000 mm 0,0 UV-I 173 W/m 8,5 C 9,9 C 1,6 km/h (1 Bft) 100,00 %
21.05.2016 07:23 9,9 C 91 % 1020,6 hPa 0,0 l/m 1,0 km/h (0 Bft) S 170 1 min 0,000 mm 0,5 UV-I 179 W/m 8,5 C 9,9 C 1,6 km/h (1 Bft) 100,00 %
21.05.2016 07:24 9,9 C 91 % 1020,6 hPa 0,0 l/m 0,7 km/h (0 Bft) S 170 1 min 0,000 mm 0,5 UV-I 179 W/m 8,5 C 9,9 C 1,6 km/h (1 Bft) 100,00 %
21.05.2016 07:25 10,1 C 91 % 1020,6 hPa 0,0 l/m 0,8 km/h (0 Bft) S 170 0 min 0,000 mm 0,5 UV-I 170 W/m 8,7 C 10,1 C 1,6 km/h (1 Bft) 100,00 %
21.05.2016 07:26 10,2 C 90 % 1020,6 hPa 0,0 l/m 0,2 km/h (0 Bft) S 170 0 min 0,000 mm 0,5 UV-I 178 W/m 8,6 C 10,2 C 1,6 km/h (1 Bft) 100,00 %
21.05.2016 07:27 10,3 C 90 % 1020,6 hPa 0,0 l/m 0,7 km/h (0 Bft) S 170 1 min 0,000 mm 0,5 UV-I 189 W/m 8,7 C 10,3 C 3,2 km/h (1 Bft) 100,00 %
21.05.2016 07:28 10,3 C 91 % 1020,6 hPa 0,0 l/m 0,5 km/h (0 Bft) S 170 1 min 0,000 mm 0,5 UV-I 189 W/m 8,9 C 10,3 C 1,6 km/h (1 Bft) 95,83 %
21.05.2016 07:29 10,3 C 91 % 1020,6 hPa 0,0 l/m 0,4 km/h (0 Bft) S 170 1 min 0,000 mm 0,5 UV-I 195 W/m 8,9 C 10,3 C 1,6 km/h (1 Bft) 100,00 %
21.05.2016 07:30 10,4 C 91 % 1020,6 hPa 0,0 l/m 1,2 km/h (1 Bft) S 170 1 min 0,000 mm 0,5 UV-I 202 W/m 9,0 C 10,4 C 1,6 km/h (1 Bft) 100,00 %
21.05.2016 07:31 10,4 C 90 % 1020,6 hPa 0,0 l/m 1,1 km/h (1 Bft) S 170 1 min 0,000 mm 0,5 UV-I 209 W/m 8,8 C 10,4 C 1,6 km/h (1 Bft) 100,00 %
21.05.2016 07:32 10,4 C 90 % 1020,6 hPa 0,0 l/m 0,2 km/h (0 Bft) S 170 1 min 0,000 mm 0,6 UV-I 209 W/m 8,8 C 10,4 C 1,6 km/h (1 Bft) 100,00 %
21.05.2016 07:33 10,5 C 90 % 1020,6 hPa 0,0 l/m 1,5 km/h (1 Bft) S 170 1 min 0,000 mm 0,6 UV-I 220 W/m 8,9 C 10,5 C 3,2 km/h (1 Bft) 100,00 %
21.05.2016 07:34 10,6 C 90 % 1020,6 hPa 0,0 l/m 1,1 km/h (1 Bft) S 170 1 min 0,000 mm 0,6 UV-I 219 W/m 9,0 C 10,6 C 1,6 km/h (1 Bft) 100,00 %
21.05.2016 07:35 10,6 C 90 % 1020,6 hPa 0,0 l/m 1,0 km/h (0 Bft) S 170 1 min 0,000 mm 0,6 UV-I 230 W/m 9,0 C 10,6 C 1,6 km/h (1 Bft) 100,00 %
21.05.2016 07:36 10,6 C 89 % 1020,6 hPa 0,0 l/m 1,0 km/h (0 Bft) S 170 1 min 0,000 mm 0,6 UV-I 241 W/m 8,9 C 10,6 C 1,6 km/h (1 Bft) 100,00 %
21.05.2016 07:37 10,6 C 88 % 1020,6 hPa 0,0 l/m 1,4 km/h (1 Bft) S 170 1 min 0,000 mm 0,6 UV-I 251 W/m 8,7 C 10,6 C 3,2 km/h (1 Bft) 100,00 %
21.05.2016 07:38 10,6 C 89 % 1020,6 hPa 0,0 l/m 0,6 km/h (0 Bft) S 170 1 min 0,000 mm 0,6 UV-I 254 W/m 8,9 C 10,6 C 1,6 km/h (1 Bft) 100,00 %
21.05.2016 07:39 10,6 C 88 % 1020,6 hPa 0,0 l/m 0,2 km/h (0 Bft) S 170 1 min 0,000 mm 0,7 UV-I 245 W/m 8,7 C 10,6 C 1,6 km/h (1 Bft) 100,00 %
21.05.2016 07:40 10,6 C 88 % 1020,6 hPa 0,0 l/m 0,0 km/h (0 Bft) S 170 1 min 0,000 mm 0,7 UV-I 246 W/m 8,7 C 10,6 C 0,0 km/h (0 Bft) 100,00 %
21.05.2016 07:41 10,7 C 89 % 1020,6 hPa 0,0 l/m 0,7 km/h (0 Bft) S 170 1 min 0,000 mm 0,7 UV-I 263 W/m 9,0 C 10,7 C 1,6 km/h (1 Bft) 95,65 %
21.05.2016 07:42 10,7 C 89 % 1020,6 hPa 0,0 l/m 1,5 km/h (1 Bft) S 170 1 min 0,000 mm 0,7 UV-I 270 W/m 9,0 C 10,7 C 3,2 km/h (1 Bft) 95,83 %
21.05.2016 07:43 10,8 C 88 % 1020,6 hPa 0,0 l/m 1,3 km/h (1 Bft) S 170 1 min 0,000 mm 0,7 UV-I 273 W/m 8,9 C 10,8 C 1,6 km/h (1 Bft) 91,67 %
21.05.2016 07:44 10,8 C 88 % 1020,6 hPa 0,0 l/m 1,3 km/h (1 Bft) S 170 1 min 0,000 mm 0,7 UV-I 276 W/m 8,9 C 10,8 C 3,2 km/h (1 Bft) 100,00 %
21.05.2016 07:45 10,9 C 88 % 1020,6 hPa 0,0 l/m 1,3 km/h (1 Bft) S 170 1 min 0,000 mm 0,7 UV-I 287 W/m 9,0 C 10,9 C 3,2 km/h (1 Bft) 95,83 %
21.05.2016 07:46 10,9 C 87 % 1020,6 hPa 0,0 l/m 0,0 km/h (0 Bft) S 170 1 min 0,000 mm 0,7 UV-I 292 W/m 8,8 C 10,9 C 0,0 km/h (0 Bft) 95,65 %
21.05.2016 07:47 11,0 C 87 % 1020,6 hPa 0,0 l/m 0,0 km/h (0 Bft) S 170 1 min 0,000 mm 0,8 UV-I 295 W/m 8,9 C 11,0 C 0,0 km/h (0 Bft) 100,00 %
21.05.2016 07:48 11,1 C 87 % 1020,6 hPa 0,0 l/m 0,0 km/h (0 Bft) S 170 1 min 0,000 mm 0,8 UV-I 298 W/m 9,0 C 11,1 C 0,0 km/h (0 Bft) 95,65 %
21.05.2016 07:49 11,1 C 87 % 1020,6 hPa 0,0 l/m 1,1 km/h (1 Bft) S 170 1 min 0,000 mm 0,8 UV-I 301 W/m 9,0 C 11,1 C 3,2 km/h (1 Bft) 100,00 %
21.05.2016 07:50 11,1 C 86 % 1020,6 hPa 0,0 l/m 0,5 km/h (0 Bft) S 170 1 min 0,000 mm 0,8 UV-I 305 W/m 8,8 C 11,1 C 1,6 km/h (1 Bft) 96,15 %
21.05.2016 07:51 11,1 C 87 % 1020,6 hPa 0,0 l/m 0,4 km/h (0 Bft) S 170 1 min 0,000 mm 0,8 UV-I 309 W/m 9,0 C 11,1 C 1,6 km/h (1 Bft) 100,00 %
21.05.2016 07:52 11,1 C 85 % 1020,6 hPa 0,0 l/m 1,3 km/h (1 Bft) S 170 1 min 0,000 mm 0,8 UV-I 310 W/m 8,7 C 11,1 C 1,6 km/h (1 Bft) 96,15 %
21.05.2016 07:53 11,2 C 85 % 1020,6 hPa 0,0 l/m 1,2 km/h (1 Bft) S 170 1 min 0,000 mm 0,8 UV-I 316 W/m 8,8 C 11,2 C 3,2 km/h (1 Bft) 100,00 %
21.05.2016 07:54 11,2 C 86 % 1020,6 hPa 0,0 l/m 0,1 km/h (0 Bft) S 170 1 min 0,000 mm 0,8 UV-I 319 W/m 8,9 C 11,2 C 1,6 km/h (1 Bft) 95,65 %
21.05.2016 07:55 11,3 C 86 % 1020,6 hPa 0,0 l/m 0,3 km/h (0 Bft) S 169 1 min 0,000 mm 0,9 UV-I 322 W/m 9,0 C 11,3 C 1,6 km/h (1 Bft) 95,83 %
21.05.2016 07:56 11,3 C 85 % 1020,6 hPa 0,0 l/m 3,8 km/h (1 Bft) O 88 1 min 0,000 mm 0,9 UV-I 326 W/m 8,9 C 11,3 C 4,8 km/h (1 Bft) 100,00 %
21.05.2016 07:57 11,4 C 84 % 1020,6 hPa 0,0 l/m 3,5 km/h (1 Bft) O-NO 65 1 min 0,000 mm 0,9 UV-I 330 W/m 8,8 C 11,4 C 4,8 km/h (1 Bft) 95,83 %
21.05.2016 07:58 11,4 C 84 % 1020,6 hPa 0,0 l/m 2,9 km/h (1 Bft) O-NO 62 1 min 0,000 mm 0,9 UV-I 334 W/m 8,8 C 11,4 C 4,8 km/h (1 Bft) 100,00 %
21.05.2016 07:59 11,4 C 83 % 1020,6 hPa 0,0 l/m 2,7 km/h (1 Bft) NO 37 1 min 0,000 mm 0,9 UV-I 337 W/m 8,6 C 11,4 C 8,0 km/h (2 Bft) 96,15 %
21.05.2016 08:00 11,6 C 85 % 1020,6 hPa 0,0 l/m 6,0 km/h (2 Bft) NO 49 1 min 0,000 mm 0,9 UV-I 341 W/m 9,2 C 11,6 C 8,0 km/h (2 Bft) 100,00 %
21.05.2016 08:01 11,6 C 84 % 1020,6 hPa 0,0 l/m 4,5 km/h (1 Bft) O-NO 63 1 min 0,102 mm 0,9 UV-I 344 W/m 9,0 C 11,6 C 6,4 km/h (2 Bft) 96,15 %
21.05.2016 08:02 11,6 C 83 % 1020,6 hPa 0,0 l/m 4,1 km/h (1 Bft) O-NO 59 1 min 0,000 mm 1,0 UV-I 348 W/m 8,8 C 11,6 C 6,4 km/h (2 Bft) 100,00 %
21.05.2016 08:03 11,6 C 82 % 1020,6 hPa 0,0 l/m 5,6 km/h (1 Bft) O 83 1 min 0,000 mm 1,0 UV-I 352 W/m 8,6 C 11,6 C 6,4 km/h (2 Bft) 95,83 %
21.05.2016 08:05 11,6 C 82 % 1020,6 hPa 0,0 l/m 4,8 km/h (1 Bft) O-NO 67 2 min 0,000 mm 1,0 UV-I 352 W/m 8,6 C 11,6 C 8,0 km/h (2 Bft) 99,12 %
21.05.2016 08:06 11,5 C 82 % 1020,6 hPa 0,0 l/m 3,4 km/h (1 Bft) O 88 1 min 0,000 mm 1,0 UV-I 359 W/m 8,5 C 11,5 C 4,8 km/h (1 Bft) 97,30 %
21.05.2016 08:07 11,5 C 82 % 1020,6 hPa 0,0 l/m 3,4 km/h (1 Bft) O-NO 76 1 min 0,000 mm 1,0 UV-I 364 W/m 8,5 C 11,5 C 4,8 km/h (1 Bft) 100,00 %
21.05.2016 08:08 11,5 C 82 % 1020,6 hPa 0,0 l/m 5,2 km/h (1 Bft) O-NO 74 1 min 0,000 mm 1,0 UV-I 367 W/m 8,5 C 11,5 C 6,4 km/h (2 Bft) 91,67 %
21.05.2016 08:09 11,5 C 82 % 1020,6 hPa 0,0 l/m 4,0 km/h (1 Bft) O-NO 74 1 min 0,000 mm 1,0 UV-I 369 W/m 8,5 C 11,5 C 4,8 km/h (1 Bft) 100,00 %
21.05.2016 08:10 11,6 C 83 % 1020,6 hPa 0,0 l/m 3,8 km/h (1 Bft) O-NO 74 1 min 0,000 mm 1,0 UV-I 371 W/m 8,8 C 11,6 C 6,4 km/h (2 Bft) 96,30 %
21.05.2016 08:11 11,6 C 83 % 1020,6 hPa 0,0 l/m 5,2 km/h (1 Bft) O-NO 73 1 min 0,000 mm 1,1 UV-I 376 W/m 8,8 C 11,6 C 6,4 km/h (2 Bft) 95,65 %
21.05.2016 08:12 11,6 C 84 % 1020,6 hPa 0,0 l/m 3,7 km/h (1 Bft) O-NO 73 1 min 0,000 mm 1,1 UV-I 379 W/m 9,0 C 11,6 C 4,8 km/h (1 Bft) 100,00 %
21.05.2016 08:13 11,6 C 84 % 1020,6 hPa 0,0 l/m 3,9 km/h (1 Bft) NO 41 1 min 0,000 mm 1,1 UV-I 381 W/m 9,0 C 11,6 C 8,0 km/h (2 Bft) 100,00 %
21.05.2016 08:14 11,7 C 85 % 1020,6 hPa 0,0 l/m 6,7 km/h (2 Bft) NO 41 1 min 0,000 mm 1,1 UV-I 385 W/m 9,3 C 11,5 C 8,0 km/h (2 Bft) 100,00 %
21.05.2016 08:15 11,8 C 86 % 1020,6 hPa 0,0 l/m 6,0 km/h (2 Bft) NO 38 1 min 0,000 mm 1,1 UV-I 388 W/m 9,5 C 11,8 C 8,0 km/h (2 Bft) 100,00 %
21.05.2016 08:16 11,8 C 85 % 1020,6 hPa 0,0 l/m 8,0 km/h (2 Bft) N-NO 28 1 min 0,000 mm 1,1 UV-I 390 W/m 9,4 C 10,7 C 9,7 km/h (2 Bft) 100,00 %
21.05.2016 08:17 11,8 C 85 % 1020,6 hPa 0,0 l/m 8,1 km/h (2 Bft) NO 38 1 min 0,000 mm 1,1 UV-I 391 W/m 9,4 C 10,7 C 9,7 km/h (2 Bft) 100,00 %
21.05.2016 08:18 11,9 C 84 % 1020,6 hPa 0,0 l/m 8,0 km/h (2 Bft) O-NO 57 1 min 0,000 mm 1,1 UV-I 395 W/m 9,3 C 10,8 C 9,7 km/h (2 Bft) 97,37 %
21.05.2016 08:19 11,9 C 83 % 1020,6 hPa 0,0 l/m 6,9 km/h (2 Bft) N-NO 28 1 min 0,000 mm 1,2 UV-I 398 W/m 9,1 C 11,6 C 9,7 km/h (2 Bft) 100,00 %
21.05.2016 08:20 11,9 C 84 % 1020,6 hPa 0,0 l/m 5,7 km/h (1 Bft) O-NO 67 1 min 0,000 mm 1,2 UV-I 401 W/m 9,3 C 11,9 C 6,4 km/h (2 Bft) 100,00 %
21.05.2016 08:21 11,9 C 83 % 1020,6 hPa 0,0 l/m 6,0 km/h (2 Bft) O-NO 57 1 min 0,000 mm 1,2 UV-I 402 W/m 9,1 C 11,9 C 9,7 km/h (2 Bft) 100,00 %
21.05.2016 08:22 11,9 C 84 % 1020,6 hPa 0,0 l/m 7,3 km/h (2 Bft) O-NO 59 1 min 0,000 mm 1,2 UV-I 405 W/m 9,3 C 11,3 C 8,0 km/h (2 Bft) 100,00 %
21.05.2016 08:23 11,9 C 83 % 1020,5 hPa 0,0 l/m 6,0 km/h (2 Bft) NO 48 1 min 0,000 mm 1,2 UV-I 408 W/m 9,1 C 11,9 C 8,0 km/h (2 Bft) 100,00 %
21.05.2016 08:24 11,9 C 84 % 1020,5 hPa 0,0 l/m 6,9 km/h (2 Bft) NO 47 1 min 0,000 mm 1,2 UV-I 410 W/m 9,3 C 11,6 C 9,7 km/h (2 Bft) 100,00 %
21.05.2016 08:25 12,0 C 84 % 1020,5 hPa 0,0 l/m 6,1 km/h (2 Bft) N-NO 30 1 min 0,000 mm 1,3 UV-I 408 W/m 9,4 C 12,0 C 8,0 km/h (2 Bft) 100,00 %
21.05.2016 08:26 12,0 C 83 % 1020,5 hPa 0,0 l/m 5,9 km/h (2 Bft) O-NO 60 1 min 0,000 mm 1,3 UV-I 414 W/m 9,2 C 12,0 C 6,4 km/h (2 Bft) 100,00 %
21.05.2016 08:27 12,1 C 83 % 1020,5 hPa 0,0 l/m 5,6 km/h (1 Bft) N-NO 23 1 min 0,000 mm 1,3 UV-I 417 W/m 9,3 C 12,1 C 8,0 km/h (2 Bft) 100,00 %
21.05.2016 08:28 12,1 C 84 % 1020,5 hPa 0,0 l/m 6,1 km/h (2 Bft) O-NO 57 1 min 0,000 mm 1,3 UV-I 420 W/m 9,5 C 12,1 C 8,0 km/h (2 Bft) 100,00 %
21.05.2016 08:29 12,2 C 83 % 1020,5 hPa 0,0 l/m 6,2 km/h (2 Bft) O-NO 61 1 min 0,000 mm 1,3 UV-I 424 W/m 9,4 C 12,2 C 8,0 km/h (2 Bft) 100,00 %
21.05.2016 08:30 12,2 C 82 % 1020,5 hPa 0,0 l/m 6,4 km/h (2 Bft) N-NO 28 1 min 0,000 mm 1,3 UV-I 427 W/m 9,2 C 12,2 C 8,0 km/h (2 Bft) 95,65 %
21.05.2016 08:31 12,2 C 85 % 1020,5 hPa 0,0 l/m 5,5 km/h (1 Bft) N-NO 33 1 min 0,000 mm 1,3 UV-I 433 W/m 9,8 C 12,2 C 8,0 km/h (2 Bft) 100,00 %
21.05.2016 08:32 12,3 C 83 % 1020,5 hPa 0,0 l/m 6,1 km/h (2 Bft) NO 46 1 min 0,000 mm 1,3 UV-I 433 W/m 9,5 C 12,3 C 8,0 km/h (2 Bft) 100,00 %
21.05.2016 08:33 12,3 C 83 % 1020,5 hPa 0,0 l/m 5,7 km/h (1 Bft) NO 44 1 min 0,000 mm 1,4 UV-I 423 W/m 9,5 C 12,3 C 8,0 km/h (2 Bft) 100,00 %
21.05.2016 08:34 12,3 C 84 % 1020,5 hPa 0,0 l/m 5,7 km/h (1 Bft) NO 36 1 min 0,000 mm 1,4 UV-I 425 W/m 9,7 C 12,3 C 8,0 km/h (2 Bft) 100,00 %
21.05.2016 08:35 12,3 C 83 % 1020,5 hPa 0,0 l/m 6,4 km/h (2 Bft) O-NO 58 1 min 0,000 mm 1,4 UV-I 438 W/m 9,5 C 12,3 C 9,7 km/h (2 Bft) 100,00 %
21.05.2016 08:36 12,4 C 83 % 1020,5 hPa 0,0 l/m 5,3 km/h (1 Bft) N-NO 26 1 min 0,000 mm 1,4 UV-I 444 W/m 9,6 C 12,4 C 6,4 km/h (2 Bft) 100,00 %
21.05.2016 08:37 12,4 C 84 % 1020,5 hPa 0,0 l/m 5,9 km/h (2 Bft) NO 51 1 min 0,000 mm 1,4 UV-I 444 W/m 9,8 C 12,4 C 8,0 km/h (2 Bft) 100,00 %
21.05.2016 08:38 12,5 C 83 % 1020,5 hPa 0,0 l/m 6,0 km/h (2 Bft) N-NO 30 1 min 0,000 mm 1,4 UV-I 442 W/m 9,7 C 12,5 C 8,0 km/h (2 Bft) 100,00 %
21.05.2016 08:39 12,6 C 83 % 1020,4 hPa 0,0 l/m 7,9 km/h (2 Bft) NO 49 1 min 0,000 mm 1,5 UV-I 455 W/m 9,8 C 11,6 C 11,3 km/h (2 Bft) 100,00 %
21.05.2016 08:40 12,6 C 83 % 1020,5 hPa 0,0 l/m 9,8 km/h (2 Bft) O-NO 72 1 min 0,000 mm 1,5 UV-I 456 W/m 9,8 C 10,6 C 12,9 km/h (3 Bft) 100,00 %
21.05.2016 08:41 12,6 C 79 % 1020,5 hPa 0,0 l/m 7,3 km/h (2 Bft) O-NO 66 1 min 0,000 mm 1,5 UV-I 457 W/m 9,1 C 12,0 C 12,9 km/h (3 Bft) 100,00 %
21.05.2016 08:42 12,6 C 79 % 1020,5 hPa 0,0 l/m 9,2 km/h (2 Bft) O-NO 66 1 min 0,000 mm 1,5 UV-I 456 W/m 9,1 C 10,9 C 9,7 km/h (2 Bft) 100,00 %
21.05.2016 08:43 12,5 C 81 % 1020,5 hPa 0,0 l/m 6,0 km/h (2 Bft) NO 53 1 min 0,000 mm 1,5 UV-I 455 W/m 9,3 C 12,5 C 9,7 km/h (2 Bft) 100,00 %
21.05.2016 08:44 12,5 C 80 % 1020,5 hPa 0,0 l/m 5,8 km/h (2 Bft) O-NO 57 1 min 0,000 mm 1,5 UV-I 448 W/m 9,1 C 12,5 C 11,3 km/h (2 Bft) 100,00 %
21.05.2016 08:45 12,5 C 80 % 1020,5 hPa 0,0 l/m 8,0 km/h (2 Bft) NO 45 1 min 0,000 mm 1,6 UV-I 445 W/m 9,1 C 11,5 C 11,3 km/h (2 Bft) 100,00 %
21.05.2016 08:46 12,6 C 81 % 1020,5 hPa 0,0 l/m 5,2 km/h (1 Bft) NO 54 1 min 0,000 mm 1,6 UV-I 443 W/m 9,4 C 12,6 C 8,0 km/h (2 Bft) 100,00 %
21.05.2016 08:47 12,6 C 81 % 1020,5 hPa 0,0 l/m 4,5 km/h (1 Bft) NO 50 1 min 0,000 mm 1,6 UV-I 444 W/m 9,4 C 12,6 C 6,4 km/h (2 Bft) 100,00 %
21.05.2016 08:48 12,7 C 81 % 1020,5 hPa 0,0 l/m 6,7 km/h (2 Bft) O-NO 61 1 min 0,000 mm 1,6 UV-I 440 W/m 9,5 C 12,5 C 12,9 km/h (3 Bft) 100,00 %
21.05.2016 08:49 12,7 C 79 % 1020,5 hPa 0,0 l/m 8,8 km/h (2 Bft) O-NO 61 1 min 0,000 mm 1,6 UV-I 435 W/m 9,2 C 11,2 C 14,5 km/h (3 Bft) 96,15 %
21.05.2016 08:50 12,7 C 79 % 1020,5 hPa 0,0 l/m 7,1 km/h (2 Bft) O-NO 58 1 min 0,000 mm 1,7 UV-I 435 W/m 9,2 C 12,3 C 9,7 km/h (2 Bft) 100,00 %
21.05.2016 08:51 12,7 C 80 % 1020,5 hPa 0,0 l/m 6,1 km/h (2 Bft) NO 38 1 min 0,000 mm 1,7 UV-I 432 W/m 9,3 C 12,7 C 8,0 km/h (2 Bft) 100,00 %
21.05.2016 08:52 12,7 C 80 % 1020,5 hPa 0,0 l/m 5,1 km/h (1 Bft) O-NO 71 1 min 0,000 mm 1,7 UV-I 429 W/m 9,3 C 12,7 C 8,0 km/h (2 Bft) 93,33 %
21.05.2016 08:53 12,8 C 80 % 1020,5 hPa 0,0 l/m 8,9 km/h (2 Bft) O-NO 61 1 min 0,000 mm 1,7 UV-I 419 W/m 9,4 C 11,3 C 12,9 km/h (3 Bft) 100,00 %
21.05.2016 08:54 12,8 C 80 % 1020,6 hPa 0,0 l/m 9,4 km/h (2 Bft) O-NO 57 1 min 0,000 mm 1,7 UV-I 423 W/m 9,4 C 11,0 C 11,3 km/h (2 Bft) 100,00 %
21.05.2016 08:55 12,9 C 80 % 1020,5 hPa 0,0 l/m 8,0 km/h (2 Bft) O-NO 59 1 min 0,000 mm 1,7 UV-I 424 W/m 9,5 C 11,9 C 11,3 km/h (2 Bft) 100,00 %
21.05.2016 08:56 12,9 C 79 % 1020,5 hPa 0,0 l/m 9,7 km/h (2 Bft) O-NO 76 1 min 0,000 mm 1,7 UV-I 415 W/m 9,3 C 11,0 C 12,9 km/h (3 Bft) 100,00 %
21.05.2016 08:57 12,9 C 80 % 1020,6 hPa 0,0 l/m 7,3 km/h (2 Bft) O-NO 61 1 min 0,000 mm 1,8 UV-I 417 W/m 9,5 C 12,3 C 12,9 km/h (3 Bft) 100,00 %
21.05.2016 08:58 12,9 C 79 % 1020,6 hPa 0,0 l/m 8,2 km/h (2 Bft) NO 37 1 min 0,000 mm 1,8 UV-I 412 W/m 9,3 C 11,8 C 11,3 km/h (2 Bft) 100,00 %
21.05.2016 08:59 12,9 C 79 % 1020,6 hPa 0,0 l/m 7,0 km/h (2 Bft) NO 50 1 min 0,000 mm 1,8 UV-I 410 W/m 9,3 C 12,5 C 8,0 km/h (2 Bft) 100,00 %
21.05.2016 09:00 12,9 C 79 % 1020,6 hPa 0,0 l/m 9,3 km/h (2 Bft) NO 51 1 min 0,203 mm 1,8 UV-I 410 W/m 9,3 C 11,2 C 12,9 km/h (3 Bft) 100,00 %
21.05.2016 09:02 13,0 C 80 % 1020,5 hPa 0,0 l/m 9,0 km/h (2 Bft) O-NO 69 2 min 0,000 mm 1,8 UV-I 401 W/m 9,6 C 11,4 C 14,5 km/h (3 Bft) 100,00 %
21.05.2016 09:03 13,0 C 79 % 1020,5 hPa 0,0 l/m 9,0 km/h (2 Bft) O-NO 59 1 min 0,000 mm 1,8 UV-I 404 W/m 9,4 C 11,4 C 14,5 km/h (3 Bft) 100,00 %
21.05.2016 09:04 13,0 C 79 % 1020,5 hPa 0,0 l/m 8,4 km/h (2 Bft) NO 47 1 min 0,000 mm 1,9 UV-I 409 W/m 9,4 C 11,8 C 11,3 km/h (2 Bft) 100,00 %
21.05.2016 09:05 13,1 C 80 % 1020,5 hPa 0,0 l/m 6,4 km/h (2 Bft) NO 49 1 min 0,000 mm 1,9 UV-I 414 W/m 9,7 C 13,1 C 8,0 km/h (2 Bft) 100,00 %
21.05.2016 09:06 13,1 C 81 % 1020,6 hPa 0,0 l/m 6,3 km/h (2 Bft) O-NO 60 1 min 0,000 mm 1,9 UV-I 415 W/m 9,9 C 13,1 C 9,7 km/h (2 Bft) 92,86 %
21.05.2016 09:07 13,2 C 81 % 1020,5 hPa 0,0 l/m 9,3 km/h (2 Bft) NO 48 1 min 0,000 mm 1,9 UV-I 413 W/m 10,0 C 11,5 C 11,3 km/h (2 Bft) 100,00 %
21.05.2016 09:08 13,2 C 80 % 1020,5 hPa 0,0 l/m 7,2 km/h (2 Bft) NO 44 1 min 0,000 mm 2,0 UV-I 417 W/m 9,8 C 12,7 C 11,3 km/h (2 Bft) 97,73 %
21.05.2016 09:09 13,3 C 81 % 1020,5 hPa 0,0 l/m 5,1 km/h (1 Bft) NO 44 1 min 0,000 mm 2,0 UV-I 414 W/m 10,1 C 13,3 C 6,4 km/h (2 Bft) 91,67 %
21.05.2016 09:10 13,3 C 79 % 1020,5 hPa 0,0 l/m 7,2 km/h (2 Bft) NO 55 1 min 0,000 mm 2,0 UV-I 416 W/m 9,7 C 12,8 C 9,7 km/h (2 Bft) 93,10 %
21.05.2016 09:11 13,4 C 78 % 1020,5 hPa 0,0 l/m 6,8 km/h (2 Bft) NO 48 1 min 0,000 mm 2,0 UV-I 429 W/m 9,6 C 13,2 C 8,0 km/h (2 Bft) 100,00 %
21.05.2016 09:12 13,4 C 79 % 1020,5 hPa 0,0 l/m 4,8 km/h (1 Bft) O-NO 60 1 min 0,000 mm 2,0 UV-I 435 W/m 9,8 C 13,4 C 6,4 km/h (2 Bft) 100,00 %
21.05.2016 09:13 13,5 C 79 % 1020,5 hPa 0,0 l/m 9,1 km/h (2 Bft) O-NO 72 1 min 0,000 mm 2,1 UV-I 439 W/m 9,9 C 11,9 C 12,9 km/h (3 Bft) 100,00 %
21.05.2016 09:14 13,5 C 78 % 1020,5 hPa 0,0 l/m 5,8 km/h (2 Bft) O-NO 78 1 min 0,000 mm 2,1 UV-I 447 W/m 9,7 C 13,5 C 8,0 km/h (2 Bft) 100,00 %
21.05.2016 09:15 13,6 C 79 % 1020,5 hPa 0,0 l/m 4,0 km/h (1 Bft) O 96 1 min 0,000 mm 2,1 UV-I 447 W/m 10,0 C 13,6 C 8,0 km/h (2 Bft) 100,00 %
21.05.2016 09:16 13,6 C 78 % 1020,5 hPa 0,0 l/m 3,7 km/h (1 Bft) NO 44 1 min 0,000 mm 2,1 UV-I 454 W/m 9,8 C 13,6 C 6,4 km/h (2 Bft) 95,65 %
21.05.2016 09:17 13,6 C 79 % 1020,4 hPa 0,0 l/m 8,2 km/h (2 Bft) O-NO 59 1 min 0,000 mm 2,1 UV-I 462 W/m 10,0 C 12,5 C 9,7 km/h (2 Bft) 100,00 %
21.05.2016 09:18 13,7 C 78 % 1020,4 hPa 0,0 l/m 5,9 km/h (2 Bft) O-NO 61 1 min 0,000 mm 2,1 UV-I 460 W/m 9,9 C 13,7 C 11,3 km/h (2 Bft) 100,00 %
21.05.2016 09:19 13,7 C 78 % 1020,4 hPa 0,0 l/m 6,4 km/h (2 Bft) O-NO 67 1 min 0,000 mm 2,2 UV-I 474 W/m 9,9 C 13,7 C 9,7 km/h (2 Bft) 100,00 %
21.05.2016 09:20 13,7 C 78 % 1020,4 hPa 0,0 l/m 8,2 km/h (2 Bft) O-NO 62 1 min 0,000 mm 2,2 UV-I 472 W/m 9,9 C 12,6 C 11,3 km/h (2 Bft) 96,30 %
21.05.2016 09:21 13,8 C 80 % 1020,4 hPa 0,0 l/m 8,2 km/h (2 Bft) NO 55 1 min 0,000 mm 2,2 UV-I 477 W/m 10,4 C 12,7 C 12,9 km/h (3 Bft) 100,00 %
21.05.2016 09:22 13,8 C 79 % 1020,4 hPa 0,0 l/m 4,4 km/h (1 Bft) NO 54 1 min 0,000 mm 2,2 UV-I 485 W/m 10,2 C 13,8 C 6,4 km/h (2 Bft) 96,15 %
21.05.2016 09:23 13,9 C 77 % 1020,5 hPa 0,0 l/m 7,0 km/h (2 Bft) O-NO 61 1 min 0,000 mm 2,2 UV-I 493 W/m 9,9 C 13,5 C 9,7 km/h (2 Bft) 100,00 %
21.05.2016 09:24 13,9 C 79 % 1020,4 hPa 0,0 l/m 5,5 km/h (1 Bft) O 101 1 min 0,000 mm 2,2 UV-I 505 W/m 10,3 C 13,9 C 6,4 km/h (2 Bft) 100,00 %
21.05.2016 09:25 14,0 C 78 % 1020,4 hPa 0,0 l/m 4,8 km/h (1 Bft) O-SO 119 1 min 0,000 mm 2,3 UV-I 518 W/m 10,2 C 14,0 C 6,4 km/h (2 Bft) 100,00 %
21.05.2016 09:26 14,1 C 78 % 1020,4 hPa 0,0 l/m 5,3 km/h (1 Bft) O-NO 61 1 min 0,000 mm 2,3 UV-I 520 W/m 10,3 C 14,1 C 8,0 km/h (2 Bft) 100,00 %
21.05.2016 09:27 14,2 C 77 % 1020,4 hPa 0,0 l/m 6,7 km/h (2 Bft) O-NO 62 1 min 0,000 mm 2,3 UV-I 524 W/m 10,2 C 14,0 C 8,0 km/h (2 Bft) 96,55 %
21.05.2016 09:28 14,2 C 76 % 1020,4 hPa 0,0 l/m 8,6 km/h (2 Bft) O-NO 73 1 min 0,000 mm 2,3 UV-I 535 W/m 10,0 C 12,9 C 12,9 km/h (3 Bft) 100,00 %
21.05.2016 09:29 14,2 C 76 % 1020,4 hPa 0,0 l/m 4,2 km/h (1 Bft) O-NO 74 1 min 0,000 mm 2,3 UV-I 548 W/m 10,0 C 14,2 C 6,4 km/h (2 Bft) 95,65 %
21.05.2016 09:30 14,2 C 76 % 1020,4 hPa 0,0 l/m 4,1 km/h (1 Bft) NO 40 1 min 0,000 mm 2,4 UV-I 556 W/m 10,0 C 14,2 C 4,8 km/h (1 Bft) 100,00 %
21.05.2016 09:31 14,3 C 80 % 1020,4 hPa 0,0 l/m 6,9 km/h (2 Bft) O 88 1 min 0,000 mm 2,4 UV-I 558 W/m 10,9 C 14,0 C 12,9 km/h (3 Bft) 100,00 %
21.05.2016 09:32 14,4 C 77 % 1020,4 hPa 0,0 l/m 9,7 km/h (2 Bft) O-NO 63 1 min 0,000 mm 2,4 UV-I 578 W/m 10,4 C 12,6 C 12,9 km/h (3 Bft) 95,83 %
21.05.2016 09:33 14,4 C 74 % 1020,4 hPa 0,0 l/m 7,2 km/h (2 Bft) O-NO 73 1 min 0,000 mm 2,5 UV-I 589 W/m 9,8 C 13,9 C 9,7 km/h (2 Bft) 100,00 %
21.05.2016 09:34 14,4 C 74 % 1020,4 hPa 0,0 l/m 5,2 km/h (1 Bft) NO 54 1 min 0,000 mm 2,5 UV-I 584 W/m 9,8 C 14,4 C 8,0 km/h (2 Bft) 95,83 %
21.05.2016 09:35 14,4 C 76 % 1020,4 hPa 0,0 l/m 5,5 km/h (1 Bft) O-NO 76 1 min 0,000 mm 2,5 UV-I 564 W/m 10,2 C 14,4 C 6,4 km/h (2 Bft) 100,00 %
21.05.2016 09:36 14,6 C 75 % 1020,5 hPa 0,0 l/m 5,0 km/h (1 Bft) O-SO 109 1 min 0,000 mm 2,4 UV-I 551 W/m 10,2 C 14,6 C 6,4 km/h (2 Bft) 93,10 %
21.05.2016 09:37 14,5 C 74 % 1020,5 hPa 0,0 l/m 2,5 km/h (1 Bft) O 86 1 min 0,000 mm 2,5 UV-I 566 W/m 9,9 C 14,5 C 6,4 km/h (2 Bft) 100,00 %
21.05.2016 09:38 14,6 C 77 % 1020,5 hPa 0,0 l/m 5,0 km/h (1 Bft) O-SO 112 1 min 0,000 mm 2,5 UV-I 595 W/m 10,6 C 14,6 C 6,4 km/h (2 Bft) 97,37 %
21.05.2016 09:39 14,7 C 77 % 1020,5 hPa 0,0 l/m 8,4 km/h (2 Bft) O-SO 120 1 min 0,000 mm 2,6 UV-I 599 W/m 10,7 C 13,6 C 11,3 km/h (2 Bft) 96,55 %
21.05.2016 09:40 14,7 C 73 % 1020,5 hPa 0,0 l/m 4,0 km/h (1 Bft) SO 133 1 min 0,000 mm 2,7 UV-I 614 W/m 9,9 C 14,7 C 9,7 km/h (2 Bft) 100,00 %
21.05.2016 09:41 14,7 C 74 % 1020,5 hPa 0,0 l/m 2,2 km/h (1 Bft) O-SO 121 1 min 0,000 mm 2,7 UV-I 622 W/m 10,1 C 14,7 C 3,2 km/h (1 Bft) 96,67 %
21.05.2016 09:42 14,7 C 75 % 1020,5 hPa 0,0 l/m 6,5 km/h (2 Bft) NO 34 1 min 0,000 mm 2,7 UV-I 628 W/m 10,3 C 14,7 C 9,7 km/h (2 Bft) 100,00 %
21.05.2016 09:43 14,8 C 74 % 1020,5 hPa 0,0 l/m 8,5 km/h (2 Bft) O-NO 64 1 min 0,000 mm 2,8 UV-I 635 W/m 10,2 C 13,6 C 14,5 km/h (3 Bft) 91,67 %
21.05.2016 09:44 14,9 C 76 % 1020,5 hPa 0,0 l/m 6,2 km/h (2 Bft) NO 51 1 min 0,000 mm 2,8 UV-I 636 W/m 10,7 C 14,9 C 11,3 km/h (2 Bft) 95,65 %
21.05.2016 09:45 15,1 C 75 % 1020,5 hPa 0,0 l/m 9,7 km/h (2 Bft) O-NO 74 1 min 0,000 mm 2,8 UV-I 638 W/m 10,7 C 13,4 C 16,1 km/h (3 Bft) 91,67 %
21.05.2016 09:46 15,1 C 75 % 1020,5 hPa 0,0 l/m 5,1 km/h (1 Bft) NO 53 1 min 0,000 mm 2,8 UV-I 641 W/m 10,7 C 15,1 C 6,4 km/h (2 Bft) 91,30 %
21.05.2016 09:47 15,2 C 75 % 1020,5 hPa 0,0 l/m 5,0 km/h (1 Bft) NO 43 1 min 0,000 mm 2,9 UV-I 634 W/m 10,8 C 15,2 C 6,4 km/h (2 Bft) 100,00 %
21.05.2016 09:48 15,2 C 75 % 1020,5 hPa 0,0 l/m 5,3 km/h (1 Bft) O-SO 123 1 min 0,000 mm 2,9 UV-I 636 W/m 10,8 C 15,2 C 8,0 km/h (2 Bft) 95,65 %
21.05.2016 09:49 15,2 C 74 % 1020,5 hPa 0,0 l/m 3,7 km/h (1 Bft) O-NO 78 1 min 0,000 mm 2,9 UV-I 636 W/m 10,6 C 15,2 C 4,8 km/h (1 Bft) 100,00 %
21.05.2016 09:50 15,2 C 74 % 1020,5 hPa 0,0 l/m 7,3 km/h (2 Bft) SO 129 1 min 0,000 mm 3,0 UV-I 642 W/m 10,6 C 14,7 C 11,3 km/h (2 Bft) 95,65 %
21.05.2016 09:51 15,2 C 73 % 1020,5 hPa 0,0 l/m 7,0 km/h (2 Bft) O-NO 59 1 min 0,000 mm 3,0 UV-I 650 W/m 10,4 C 14,9 C 11,3 km/h (2 Bft) 100,00 %
21.05.2016 09:52 15,2 C 73 % 1020,4 hPa 0,0 l/m 6,4 km/h (2 Bft) NO 53 1 min 0,000 mm 3,0 UV-I 649 W/m 10,4 C 15,2 C 8,0 km/h (2 Bft) 96,55 %
21.05.2016 09:53 15,3 C 76 % 1020,4 hPa 0,0 l/m 5,6 km/h (1 Bft) NO 35 1 min 0,000 mm 3,0 UV-I 651 W/m 11,1 C 15,3 C 8,0 km/h (2 Bft) 100,00 %
21.05.2016 09:54 15,4 C 76 % 1020,4 hPa 0,0 l/m 6,6 km/h (2 Bft) NO 52 1 min 0,000 mm 3,1 UV-I 657 W/m 11,2 C 15,3 C 8,0 km/h (2 Bft) 96,15 %
21.05.2016 09:55 15,5 C 78 % 1020,4 hPa 0,0 l/m 4,9 km/h (1 Bft) N-NO 28 1 min 0,000 mm 3,1 UV-I 657 W/m 11,7 C 15,5 C 6,4 km/h (2 Bft) 100,00 %
21.05.2016 09:56 15,6 C 77 % 1020,4 hPa 0,0 l/m 2,6 km/h (1 Bft) N-NO 23 1 min 0,000 mm 3,1 UV-I 658 W/m 11,6 C 15,6 C 4,8 km/h (1 Bft) 96,15 %
21.05.2016 09:57 15,7 C 77 % 1020,4 hPa 0,0 l/m 6,5 km/h (2 Bft) O-NO 60 1 min 0,000 mm 3,1 UV-I 659 W/m 11,7 C 15,7 C 11,3 km/h (2 Bft) 95,83 %
21.05.2016 09:58 15,7 C 77 % 1020,4 hPa 0,0 l/m 7,4 km/h (2 Bft) NO 40 1 min 0,000 mm 3,1 UV-I 660 W/m 11,7 C 15,2 C 9,7 km/h (2 Bft) 100,00 %
21.05.2016 09:59 15,6 C 71 % 1020,4 hPa 0,0 l/m 3,8 km/h (1 Bft) NO 52 1 min 0,000 mm 3,1 UV-I 657 W/m 10,4 C 15,6 C 8,0 km/h (2 Bft) 97,37 %
21.05.2016 10:00 15,6 C 72 % 1020,5 hPa 0,0 l/m 4,5 km/h (1 Bft) NO 44 1 min 0,305 mm 3,2 UV-I 663 W/m 10,6 C 15,6 C 6,4 km/h (2 Bft) 100,00 %
21.05.2016 10:01 15,6 C 73 % 1020,5 hPa 0,0 l/m 4,4 km/h (1 Bft) O-NO 68 1 min 0,000 mm 3,2 UV-I 656 W/m 10,8 C 15,6 C 4,8 km/h (1 Bft) 95,83 %
21.05.2016 10:02 15,6 C 73 % 1020,4 hPa 0,0 l/m 6,4 km/h (2 Bft) O-NO 63 1 min 0,000 mm 3,2 UV-I 672 W/m 10,8 C 15,6 C 8,0 km/h (2 Bft) 100,00 %
21.05.2016 10:03 15,6 C 72 % 1020,4 hPa 0,0 l/m 6,0 km/h (2 Bft) NO 55 1 min 0,000 mm 3,2 UV-I 674 W/m 10,6 C 15,6 C 8,0 km/h (2 Bft) 96,15 %
21.05.2016 10:04 15,6 C 74 % 1020,4 hPa 0,0 l/m 4,9 km/h (1 Bft) N-NO 33 1 min 0,000 mm 3,3 UV-I 675 W/m 11,0 C 15,6 C 6,4 km/h (2 Bft) 100,00 %
21.05.2016 10:05 15,7 C 76 % 1020,4 hPa 0,0 l/m 7,4 km/h (2 Bft) NO 55 1 min 0,000 mm 3,3 UV-I 677 W/m 11,5 C 15,2 C 9,7 km/h (2 Bft) 100,00 %
21.05.2016 10:06 15,8 C 73 % 1020,4 hPa 0,0 l/m 6,3 km/h (2 Bft) N-NO 32 1 min 0,000 mm 3,3 UV-I 682 W/m 11,0 C 15,8 C 9,7 km/h (2 Bft) 96,30 %
21.05.2016 10:07 15,9 C 77 % 1020,4 hPa 0,0 l/m 7,8 km/h (2 Bft) O-NO 70 1 min 0,000 mm 3,3 UV-I 684 W/m 11,9 C 15,1 C 9,7 km/h (2 Bft) 100,00 %
21.05.2016 10:08 15,9 C 72 % 1020,4 hPa 0,0 l/m 7,9 km/h (2 Bft) O-NO 72 1 min 0,000 mm 3,4 UV-I 686 W/m 10,9 C 15,1 C 11,3 km/h (2 Bft) 100,00 %
21.05.2016 10:09 15,9 C 73 % 1020,3 hPa 0,0 l/m 5,3 km/h (1 Bft) NO 38 1 min 0,000 mm 3,4 UV-I 686 W/m 11,1 C 15,9 C 8,0 km/h (2 Bft) 100,00 %
21.05.2016 10:10 15,9 C 75 % 1020,3 hPa 0,0 l/m 6,4 km/h (2 Bft) NO 43 1 min 0,000 mm 3,4 UV-I 688 W/m 11,5 C 15,9 C 8,0 km/h (2 Bft) 100,00 %
21.05.2016 10:11 16,1 C 75 % 1020,3 hPa 0,0 l/m 5,4 km/h (1 Bft) O-NO 72 1 min 0,000 mm 3,4 UV-I 689 W/m 11,7 C 16,1 C 6,4 km/h (2 Bft) 100,00 %
21.05.2016 10:12 16,1 C 72 % 1020,4 hPa 0,0 l/m 5,1 km/h (1 Bft) NO 50 1 min 0,000 mm 3,5 UV-I 658 W/m 11,0 C 16,1 C 8,0 km/h (2 Bft) 100,00 %
21.05.2016 10:13 16,1 C 75 % 1020,4 hPa 0,0 l/m 6,8 km/h (2 Bft) NO 47 1 min 0,000 mm 3,5 UV-I 638 W/m 11,7 C 15,9 C 9,7 km/h (2 Bft) 100,00 %
21.05.2016 10:14 16,1 C 74 % 1020,3 hPa 0,0 l/m 7,9 km/h (2 Bft) N-NO 31 1 min 0,000 mm 3,5 UV-I 594 W/m 11,5 C 15,3 C 9,7 km/h (2 Bft) 100,00 %
21.05.2016 10:15 16,2 C 77 % 1020,3 hPa 0,0 l/m 7,2 km/h (2 Bft) O 80 1 min 0,000 mm 3,5 UV-I 583 W/m 12,2 C 15,8 C 11,3 km/h (2 Bft) 95,65 %
21.05.2016 10:16 16,2 C 71 % 1020,3 hPa 0,0 l/m 7,6 km/h (2 Bft) O-NO 73 1 min 0,000 mm 3,6 UV-I 582 W/m 10,9 C 15,6 C 11,3 km/h (2 Bft) 100,00 %
21.05.2016 10:17 16,2 C 73 % 1020,3 hPa 0,0 l/m 3,9 km/h (1 Bft) O-NO 60 1 min 0,000 mm 3,6 UV-I 676 W/m 11,4 C 16,2 C 8,0 km/h (2 Bft) 100,00 %
21.05.2016 10:18 16,3 C 72 % 1020,3 hPa 0,0 l/m 6,7 km/h (2 Bft) O-NO 69 1 min 0,000 mm 3,6 UV-I 708 W/m 11,2 C 16,2 C 8,0 km/h (2 Bft) 100,00 %
21.05.2016 10:19 16,3 C 71 % 1020,3 hPa 0,0 l/m 6,5 km/h (2 Bft) NO 48 1 min 0,000 mm 3,6 UV-I 711 W/m 11,0 C 16,3 C 8,0 km/h (2 Bft) 91,67 %
21.05.2016 10:20 16,3 C 73 % 1020,3 hPa 0,0 l/m 10,1 km/h (2 Bft) NO 36 1 min 0,000 mm 3,6 UV-I 707 W/m 11,4 C 14,5 C 16,1 km/h (3 Bft) 97,73 %
21.05.2016 10:21 16,3 C 74 % 1020,3 hPa 0,0 l/m 4,8 km/h (1 Bft) NO 46 1 min 0,000 mm 3,6 UV-I 706 W/m 11,7 C 16,3 C 8,0 km/h (2 Bft) 100,00 %
21.05.2016 10:22 16,3 C 72 % 1020,3 hPa 0,0 l/m 1,8 km/h (1 Bft) NO 36 1 min 0,000 mm 3,6 UV-I 692 W/m 11,2 C 16,3 C 4,8 km/h (1 Bft) 100,00 %
21.05.2016 10:23 16,3 C 72 % 1020,3 hPa 0,0 l/m 2,9 km/h (1 Bft) NO 55 1 min 0,000 mm 3,7 UV-I 714 W/m 11,2 C 16,3 C 4,8 km/h (1 Bft) 96,30 %
21.05.2016 10:24 16,3 C 70 % 1020,3 hPa 0,0 l/m 2,8 km/h (1 Bft) NO 43 1 min 0,000 mm 3,7 UV-I 701 W/m 10,8 C 16,3 C 4,8 km/h (1 Bft) 100,00 %
21.05.2016 10:25 16,4 C 74 % 1020,3 hPa 0,0 l/m 8,0 km/h (2 Bft) NO 46 1 min 0,000 mm 3,7 UV-I 713 W/m 11,8 C 15,6 C 11,3 km/h (2 Bft) 100,00 %
21.05.2016 10:26 16,4 C 73 % 1020,2 hPa 0,0 l/m 4,8 km/h (1 Bft) O-NO 57 1 min 0,000 mm 3,8 UV-I 712 W/m 11,5 C 16,4 C 6,4 km/h (2 Bft) 100,00 %
21.05.2016 10:27 16,4 C 74 % 1020,2 hPa 0,0 l/m 5,1 km/h (1 Bft) O-NO 71 1 min 0,000 mm 3,7 UV-I 694 W/m 11,8 C 16,4 C 8,0 km/h (2 Bft) 100,00 %
21.05.2016 10:28 16,6 C 73 % 1020,3 hPa 0,0 l/m 8,3 km/h (2 Bft) O-NO 57 1 min 0,000 mm 3,9 UV-I 730 W/m 11,7 C 15,6 C 11,3 km/h (2 Bft) 100,00 %
21.05.2016 10:29 16,7 C 73 % 1020,2 hPa 0,0 l/m 6,0 km/h (2 Bft) NO 52 1 min 0,000 mm 3,8 UV-I 727 W/m 11,8 C 16,7 C 8,0 km/h (2 Bft) 100,00 %
21.05.2016 10:30 16,8 C 73 % 1020,2 hPa 0,0 l/m 6,3 km/h (2 Bft) NO 41 1 min 0,000 mm 3,9 UV-I 723 W/m 11,9 C 16,8 C 8,0 km/h (2 Bft) 100,00 %
21.05.2016 10:31 16,8 C 71 % 1020,2 hPa 0,0 l/m 5,4 km/h (1 Bft) O-SO 106 1 min 0,000 mm 3,9 UV-I 725 W/m 11,5 C 16,8 C 11,3 km/h (2 Bft) 100,00 %
21.05.2016 10:32 16,7 C 69 % 1020,2 hPa 0,0 l/m 2,3 km/h (1 Bft) SO 134 1 min 0,000 mm 3,9 UV-I 730 W/m 11,0 C 16,7 C 4,8 km/h (1 Bft) 100,00 %
21.05.2016 10:33 16,7 C 69 % 1020,2 hPa 0,0 l/m 5,6 km/h (1 Bft) NO 50 1 min 0,000 mm 4,0 UV-I 732 W/m 11,0 C 16,7 C 6,4 km/h (2 Bft) 100,00 %
21.05.2016 10:34 16,8 C 72 % 1020,2 hPa 0,0 l/m 8,0 km/h (2 Bft) O-NO 59 1 min 0,000 mm 4,0 UV-I 748 W/m 11,7 C 16,0 C 9,7 km/h (2 Bft) 100,00 %
21.05.2016 10:35 16,9 C 71 % 1020,2 hPa 0,0 l/m 7,7 km/h (2 Bft) O-NO 65 1 min 0,000 mm 4,0 UV-I 743 W/m 11,6 C 16,2 C 9,7 km/h (2 Bft) 96,15 %
21.05.2016 10:36 16,8 C 69 % 1020,2 hPa 0,0 l/m 7,1 km/h (2 Bft) NO 38 1 min 0,000 mm 3,9 UV-I 731 W/m 11,1 C 16,4 C 11,3 km/h (2 Bft) 100,00 %
21.05.2016 10:37 16,9 C 73 % 1020,2 hPa 0,0 l/m 8,1 km/h (2 Bft) NO 34 1 min 0,000 mm 3,9 UV-I 712 W/m 12,0 C 16,0 C 11,3 km/h (2 Bft) 100,00 %
21.05.2016 10:38 16,8 C 71 % 1020,1 hPa 0,0 l/m 2,6 km/h (1 Bft) NO 34 1 min 0,000 mm 4,0 UV-I 733 W/m 11,5 C 16,8 C 8,0 km/h (2 Bft) 100,00 %
21.05.2016 10:39 16,8 C 71 % 1020,1 hPa 0,0 l/m 7,3 km/h (2 Bft) O-NO 67 1 min 0,000 mm 4,0 UV-I 737 W/m 11,5 C 16,3 C 14,5 km/h (3 Bft) 100,00 %
21.05.2016 10:40 16,9 C 70 % 1020,2 hPa 0,0 l/m 8,8 km/h (2 Bft) O 83 1 min 0,000 mm 4,1 UV-I 752 W/m 11,4 C 15,7 C 11,3 km/h (2 Bft) 100,00 %
21.05.2016 10:41 16,9 C 70 % 1020,2 hPa 0,0 l/m 6,5 km/h (2 Bft) O-NO 64 1 min 0,000 mm 4,1 UV-I 751 W/m 11,4 C 16,9 C 9,7 km/h (2 Bft) 100,00 %
21.05.2016 10:42 17,1 C 73 % 1020,2 hPa 0,0 l/m 6,0 km/h (2 Bft) O-NO 59 1 min 0,000 mm 4,1 UV-I 754 W/m 12,2 C 17,1 C 8,0 km/h (2 Bft) 100,00 %
21.05.2016 10:43 17,2 C 72 % 1020,1 hPa 0,0 l/m 6,7 km/h (2 Bft) O-NO 67 1 min 0,000 mm 4,1 UV-I 749 W/m 12,1 C 17,1 C 11,3 km/h (2 Bft) 100,00 %
21.05.2016 10:44 17,2 C 70 % 1020,1 hPa 0,0 l/m 7,5 km/h (2 Bft) O-NO 74 1 min 0,000 mm 4,1 UV-I 745 W/m 11,7 C 16,7 C 12,9 km/h (3 Bft) 95,83 %
21.05.2016 10:45 17,2 C 72 % 1020,1 hPa 0,0 l/m 5,2 km/h (1 Bft) O 86 1 min 0,000 mm 4,1 UV-I 745 W/m 12,1 C 17,2 C 9,7 km/h (2 Bft) 95,65 %
21.05.2016 10:46 17,3 C 71 % 1020,1 hPa 0,0 l/m 10,4 km/h (2 Bft) O-NO 57 1 min 0,000 mm 4,1 UV-I 741 W/m 12,0 C 15,5 C 14,5 km/h (3 Bft) 100,00 %
21.05.2016 10:47 17,3 C 67 % 1020,1 hPa 0,0 l/m 10,9 km/h (2 Bft) O-NO 69 1 min 0,000 mm 4,2 UV-I 751 W/m 11,1 C 15,3 C 12,9 km/h (3 Bft) 100,00 %
21.05.2016 10:48 17,3 C 66 % 1020,1 hPa 0,0 l/m 7,2 km/h (2 Bft) O 80 1 min 0,000 mm 4,2 UV-I 765 W/m 10,9 C 16,9 C 9,7 km/h (2 Bft) 100,00 %
21.05.2016 10:49 17,2 C 66 % 1020,1 hPa 0,0 l/m 3,4 km/h (1 Bft) O 80 1 min 0,000 mm 4,2 UV-I 770 W/m 10,8 C 17,2 C 4,8 km/h (1 Bft) 100,00 %
21.05.2016 10:50 17,2 C 72 % 1020,1 hPa 0,0 l/m 3,3 km/h (1 Bft) NO 51 1 min 0,000 mm 4,3 UV-I 767 W/m 12,1 C 17,2 C 4,8 km/h (1 Bft) 96,30 %
21.05.2016 10:51 17,3 C 72 % 1020,1 hPa 0,0 l/m 7,5 km/h (2 Bft) N-NO 22 1 min 0,000 mm 4,3 UV-I 763 W/m 12,2 C 16,8 C 9,7 km/h (2 Bft) 100,00 %
21.05.2016 10:52 17,5 C 73 % 1020,0 hPa 0,0 l/m 7,1 km/h (2 Bft) O-NO 63 1 min 0,000 mm 4,3 UV-I 763 W/m 12,6 C 17,2 C 9,7 km/h (2 Bft) 100,00 %
21.05.2016 10:53 17,6 C 71 % 1020,0 hPa 0,0 l/m 7,1 km/h (2 Bft) O-NO 72 1 min 0,000 mm 4,4 UV-I 770 W/m 12,3 C 17,3 C 9,7 km/h (2 Bft) 100,00 %
21.05.2016 10:54 17,6 C 68 % 1020,0 hPa 0,0 l/m 6,8 km/h (2 Bft) NO 51 1 min 0,000 mm 4,4 UV-I 776 W/m 11,6 C 17,4 C 11,3 km/h (2 Bft) 100,00 %
21.05.2016 10:55 17,7 C 72 % 1020,0 hPa 0,0 l/m 9,8 km/h (2 Bft) NO 42 1 min 0,000 mm 4,4 UV-I 781 W/m 12,6 C 16,2 C 14,5 km/h (3 Bft) 100,00 %
21.05.2016 10:56 17,7 C 72 % 1020,0 hPa 0,0 l/m 9,4 km/h (2 Bft) NO 37 1 min 0,000 mm 4,4 UV-I 775 W/m 12,6 C 16,3 C 11,3 km/h (2 Bft) 100,00 %
21.05.2016 10:57 17,7 C 69 % 1020,0 hPa 0,0 l/m 7,0 km/h (2 Bft) NO 42 1 min 0,000 mm 4,4 UV-I 770 W/m 11,9 C 17,4 C 9,7 km/h (2 Bft) 100,00 %
21.05.2016 10:58 17,8 C 72 % 1020,0 hPa 0,0 l/m 10,1 km/h (2 Bft) NO 34 1 min 0,000 mm 4,4 UV-I 776 W/m 12,7 C 16,2 C 16,1 km/h (3 Bft) 96,15 %
21.05.2016 10:59 17,8 C 69 % 1020,0 hPa 0,0 l/m 12,7 km/h (3 Bft) N-NO 19 1 min 0,000 mm 4,5 UV-I 739 W/m 12,0 C 15,3 C 16,1 km/h (3 Bft) 100,00 %
21.05.2016 11:00 17,8 C 73 % 1020,0 hPa 0,0 l/m 13,2 km/h (3 Bft) O-NO 62 1 min 0,000 mm 4,4 UV-I 584 W/m 12,9 C 15,1 C 16,1 km/h (3 Bft) 95,65 %
21.05.2016 11:02 17,8 C 67 % 1020,0 hPa 0,0 l/m 9,0 km/h (2 Bft) O-NO 67 2 min 0,406 mm 4,4 UV-I 641 W/m 11,6 C 16,6 C 14,5 km/h (3 Bft) 100,00 %
21.05.2016 11:03 17,8 C 69 % 1019,9 hPa 0,0 l/m 5,4 km/h (1 Bft) N-NO 20 1 min 0,000 mm 4,4 UV-I 742 W/m 12,0 C 17,8 C 8,0 km/h (2 Bft) 100,00 %
21.05.2016 11:04 17,8 C 69 % 1019,9 hPa 0,0 l/m 6,7 km/h (2 Bft) O-NO 61 1 min 0,000 mm 4,5 UV-I 772 W/m 12,0 C 17,7 C 14,5 km/h (3 Bft) 100,00 %
21.05.2016 11:05 17,8 C 68 % 1019,9 hPa 0,0 l/m 9,5 km/h (2 Bft) O-SO 102 1 min 0,000 mm 4,6 UV-I 779 W/m 11,8 C 16,4 C 14,5 km/h (3 Bft) 100,00 %
21.05.2016 11:06 17,8 C 68 % 1019,9 hPa 0,0 l/m 8,7 km/h (2 Bft) NO 53 1 min 0,000 mm 4,6 UV-I 779 W/m 11,8 C 16,7 C 11,3 km/h (2 Bft) 100,00 %
21.05.2016 11:07 17,9 C 70 % 1019,9 hPa 0,0 l/m 10,5 km/h (2 Bft) O-NO 57 1 min 0,000 mm 4,6 UV-I 782 W/m 12,3 C 16,1 C 14,5 km/h (3 Bft) 100,00 %
21.05.2016 11:08 17,9 C 67 % 1019,9 hPa 0,0 l/m 9,0 km/h (2 Bft) NO 36 1 min 0,000 mm 4,7 UV-I 803 W/m 11,7 C 16,7 C 14,5 km/h (3 Bft) 96,55 %
21.05.2016 11:09 17,8 C 66 % 1019,9 hPa 0,0 l/m 5,6 km/h (1 Bft) N-NO 22 1 min 0,000 mm 4,6 UV-I 795 W/m 11,4 C 17,8 C 8,0 km/h (2 Bft) 100,00 %
21.05.2016 11:10 17,8 C 66 % 1019,9 hPa 0,0 l/m 6,0 km/h (2 Bft) O 83 1 min 0,000 mm 4,7 UV-I 806 W/m 11,4 C 17,8 C 9,7 km/h (2 Bft) 100,00 %
21.05.2016 11:11 17,8 C 67 % 1019,8 hPa 0,0 l/m 6,2 km/h (2 Bft) N-NO 31 1 min 0,000 mm 4,8 UV-I 822 W/m 11,6 C 17,8 C 12,9 km/h (3 Bft) 100,00 %
21.05.2016 11:12 17,9 C 70 % 1019,8 hPa 0,0 l/m 11,7 km/h (2 Bft) NO 38 1 min 0,000 mm 4,8 UV-I 826 W/m 12,3 C 15,7 C 17,7 km/h (3 Bft) 100,00 %
21.05.2016 11:13 18,1 C 73 % 1019,8 hPa 0,0 l/m 10,7 km/h (2 Bft) NO 54 1 min 0,000 mm 4,8 UV-I 826 W/m 13,2 C 16,3 C 14,5 km/h (3 Bft) 100,00 %
21.05.2016 11:14 18,2 C 72 % 1019,8 hPa 0,0 l/m 7,1 km/h (2 Bft) NO 52 1 min 0,000 mm 4,8 UV-I 825 W/m 13,1 C 17,9 C 9,7 km/h (2 Bft) 100,00 %
21.05.2016 11:15 18,2 C 68 % 1019,8 hPa 0,0 l/m 10,2 km/h (2 Bft) O-NO 59 1 min 0,000 mm 4,8 UV-I 823 W/m 12,2 C 16,6 C 14,5 km/h (3 Bft) 100,00 %
21.05.2016 11:16 18,2 C 69 % 1019,8 hPa 0,0 l/m 8,5 km/h (2 Bft) O-NO 61 1 min 0,000 mm 4,8 UV-I 796 W/m 12,4 C 17,2 C 14,5 km/h (3 Bft) 100,00 %
21.05.2016 11:17 18,1 C 68 % 1019,8 hPa 0,0 l/m 7,5 km/h (2 Bft) N-NO 19 1 min 0,000 mm 4,0 UV-I 804 W/m 12,1 C 17,6 C 9,7 km/h (2 Bft) 100,00 %
21.05.2016 11:18 18,2 C 68 % 1019,8 hPa 0,0 l/m 7,6 km/h (2 Bft) NO 46 1 min 0,000 mm 4,8 UV-I 809 W/m 12,2 C 17,6 C 11,3 km/h (2 Bft) 96,30 %
21.05.2016 11:19 18,3 C 68 % 1019,8 hPa 0,0 l/m 10,1 km/h (2 Bft) NO 41 1 min 0,000 mm 4,8 UV-I 813 W/m 12,3 C 16,7 C 17,7 km/h (3 Bft) 92,31 %
21.05.2016 11:20 18,3 C 66 % 1019,8 hPa 0,0 l/m 10,5 km/h (2 Bft) O-NO 62 1 min 0,000 mm 4,9 UV-I 813 W/m 11,8 C 16,6 C 16,1 km/h (3 Bft) 100,00 %
21.05.2016 11:21 18,3 C 68 % 1019,8 hPa 0,0 l/m 10,6 km/h (2 Bft) NO 42 1 min 0,000 mm 4,9 UV-I 827 W/m 12,3 C 16,5 C 14,5 km/h (3 Bft) 100,00 %
21.05.2016 11:22 18,4 C 70 % 1019,7 hPa 0,0 l/m 7,8 km/h (2 Bft) O-NO 69 1 min 0,000 mm 4,9 UV-I 838 W/m 12,8 C 17,8 C 11,3 km/h (2 Bft) 92,59 %
21.05.2016 11:23 18,4 C 64 % 1019,7 hPa 0,0 l/m 7,1 km/h (2 Bft) N-NO 27 1 min 0,000 mm 5,0 UV-I 848 W/m 11,5 C 18,1 C 9,7 km/h (2 Bft) 100,00 %
21.05.2016 11:24 18,4 C 69 % 1019,7 hPa 0,0 l/m 5,5 km/h (1 Bft) NO 42 1 min 0,000 mm 5,0 UV-I 848 W/m 12,6 C 18,4 C 9,7 km/h (2 Bft) 100,00 %
21.05.2016 11:25 18,4 C 65 % 1019,7 hPa 0,0 l/m 9,0 km/h (2 Bft) O 96 1 min 0,000 mm 5,0 UV-I 847 W/m 11,7 C 17,3 C 12,9 km/h (3 Bft) 95,65 %
21.05.2016 11:26 18,4 C 62 % 1019,7 hPa 0,0 l/m 10,4 km/h (2 Bft) O 83 1 min 0,000 mm 5,0 UV-I 850 W/m 11,0 C 16,7 C 14,5 km/h (3 Bft) 100,00 %
21.05.2016 11:27 18,3 C 63 % 1019,7 hPa 0,0 l/m 10,0 km/h (2 Bft) O 84 1 min 0,000 mm 4,9 UV-I 832 W/m 11,1 C 16,8 C 12,9 km/h (3 Bft) 92,31 %
21.05.2016 11:28 18,2 C 59 % 1019,7 hPa 0,0 l/m 6,1 km/h (2 Bft) NO 51 1 min 0,000 mm 4,9 UV-I 824 W/m 10,1 C 18,2 C 8,0 km/h (2 Bft) 95,83 %
21.05.2016 11:29 18,2 C 63 % 1019,7 hPa 0,0 l/m 10,4 km/h (2 Bft) O-NO 67 1 min 0,000 mm 4,9 UV-I 808 W/m 11,0 C 16,5 C 14,5 km/h (3 Bft) 100,00 %
21.05.2016 11:30 18,3 C 66 % 1019,6 hPa 0,0 l/m 10,8 km/h (2 Bft) O-NO 72 1 min 0,000 mm 4,9 UV-I 799 W/m 11,8 C 16,5 C 16,1 km/h (3 Bft) 100,00 %
21.05.2016 11:31 18,3 C 62 % 1019,6 hPa 0,0 l/m 8,8 km/h (2 Bft) NO 51 1 min 0,000 mm 5,0 UV-I 826 W/m 10,9 C 17,2 C 14,5 km/h (3 Bft) 96,55 %
21.05.2016 11:32 18,3 C 62 % 1019,7 hPa 0,0 l/m 9,1 km/h (2 Bft) NO 42 1 min 0,000 mm 5,0 UV-I 832 W/m 10,9 C 17,1 C 12,9 km/h (3 Bft) 95,83 %
21.05.2016 11:33 18,3 C 58 % 1019,6 hPa 0,0 l/m 5,6 km/h (1 Bft) NO 49 1 min 0,000 mm 5,0 UV-I 811 W/m 9,9 C 18,3 C 8,0 km/h (2 Bft) 100,00 %
21.05.2016 11:34 18,3 C 65 % 1019,6 hPa 0,0 l/m 5,2 km/h (1 Bft) N 9 1 min 0,000 mm 5,0 UV-I 821 W/m 11,6 C 18,3 C 8,0 km/h (2 Bft) 92,31 %
21.05.2016 11:35 18,4 C 64 % 1019,6 hPa 0,0 l/m 3,7 km/h (1 Bft) N-NO 22 1 min 0,000 mm 5,0 UV-I 818 W/m 11,5 C 18,4 C 6,4 km/h (2 Bft) 100,00 %
21.05.2016 11:36 18,6 C 68 % 1019,5 hPa 0,0 l/m 3,4 km/h (1 Bft) O-NO 59 1 min 0,000 mm 4,9 UV-I 804 W/m 12,6 C 18,6 C 4,8 km/h (1 Bft) 95,83 %
21.05.2016 11:37 18,6 C 60 % 1019,5 hPa 0,0 l/m 6,5 km/h (2 Bft) O-NO 74 1 min 0,000 mm 4,8 UV-I 766 W/m 10,7 C 18,6 C 8,0 km/h (2 Bft) 95,83 %
21.05.2016 11:38 18,7 C 61 % 1019,5 hPa 0,0 l/m 7,4 km/h (2 Bft) NO 55 1 min 0,000 mm 4,8 UV-I 767 W/m 11,0 C 18,2 C 14,5 km/h (3 Bft) 96,15 %
21.05.2016 11:39 18,7 C 62 % 1019,5 hPa 0,0 l/m 5,7 km/h (1 Bft) NO 42 1 min 0,000 mm 4,9 UV-I 779 W/m 11,3 C 18,7 C 8,0 km/h (2 Bft) 100,00 %
21.05.2016 11:40 18,7 C 65 % 1019,5 hPa 0,0 l/m 5,4 km/h (1 Bft) N-NO 22 1 min 0,000 mm 4,9 UV-I 776 W/m 12,0 C 18,7 C 8,0 km/h (2 Bft) 96,15 %
21.05.2016 11:41 18,7 C 66 % 1019,5 hPa 0,0 l/m 4,3 km/h (1 Bft) O-NO 59 1 min 0,000 mm 5,0 UV-I 794 W/m 12,2 C 18,7 C 11,3 km/h (2 Bft) 91,67 %
21.05.2016 11:42 18,8 C 65 % 1019,5 hPa 0,0 l/m 5,5 km/h (1 Bft) NO 41 1 min 0,000 mm 5,0 UV-I 814 W/m 12,1 C 18,8 C 12,9 km/h (3 Bft) 100,00 %
21.05.2016 11:43 18,8 C 66 % 1019,4 hPa 0,0 l/m 9,1 km/h (2 Bft) NO 52 1 min 0,000 mm 5,1 UV-I 814 W/m 12,3 C 17,6 C 14,5 km/h (3 Bft) 96,30 %
21.05.2016 11:44 18,8 C 63 % 1019,4 hPa 0,0 l/m 11,7 km/h (2 Bft) O 92 1 min 0,000 mm 5,0 UV-I 812 W/m 11,6 C 16,7 C 16,1 km/h (3 Bft) 100,00 %
21.05.2016 11:45 18,8 C 62 % 1019,4 hPa 0,0 l/m 9,6 km/h (2 Bft) O-NO 65 1 min 0,000 mm 4,9 UV-I 788 W/m 11,4 C 17,5 C 14,5 km/h (3 Bft) 95,83 %
21.05.2016 11:46 18,7 C 61 % 1019,4 hPa 0,0 l/m 11,7 km/h (2 Bft) NO 34 1 min 0,000 mm 4,9 UV-I 775 W/m 11,0 C 16,6 C 16,1 km/h (3 Bft) 95,65 %
21.05.2016 11:47 18,7 C 63 % 1019,3 hPa 0,0 l/m 7,1 km/h (2 Bft) O-NO 70 1 min 0,000 mm 4,9 UV-I 784 W/m 11,5 C 18,4 C 11,3 km/h (2 Bft) 96,30 %
21.05.2016 11:48 18,7 C 58 % 1019,4 hPa 0,0 l/m 9,2 km/h (2 Bft) O-NO 67 1 min 0,000 mm 5,0 UV-I 806 W/m 10,3 C 17,5 C 16,1 km/h (3 Bft) 95,65 %
21.05.2016 11:49 18,7 C 60 % 1019,3 hPa 0,0 l/m 8,3 km/h (2 Bft) O-NO 58 1 min 0,000 mm 5,1 UV-I 819 W/m 10,8 C 17,9 C 14,5 km/h (3 Bft) 100,00 %
21.05.2016 11:50 18,8 C 60 % 1019,3 hPa 0,0 l/m 9,3 km/h (2 Bft) O-NO 59 1 min 0,000 mm 5,1 UV-I 830 W/m 10,9 C 17,6 C 12,9 km/h (3 Bft) 96,15 %
21.05.2016 11:51 18,8 C 61 % 1019,3 hPa 0,0 l/m 7,9 km/h (2 Bft) O-NO 67 1 min 0,000 mm 5,0 UV-I 826 W/m 11,1 C 18,1 C 11,3 km/h (2 Bft) 100,00 %
21.05.2016 11:52 18,8 C 61 % 1019,3 hPa 0,0 l/m 7,1 km/h (2 Bft) NO 53 1 min 0,000 mm 5,0 UV-I 799 W/m 11,1 C 18,5 C 8,0 km/h (2 Bft) 96,15 %
21.05.2016 11:53 18,8 C 62 % 1019,2 hPa 0,0 l/m 10,9 km/h (2 Bft) NO 55 1 min 0,000 mm 5,2 UV-I 835 W/m 11,4 C 17,0 C 16,1 km/h (3 Bft) 100,00 %
21.05.2016 11:54 18,9 C 62 % 1019,2 hPa 0,0 l/m 10,7 km/h (2 Bft) O-NO 67 1 min 0,000 mm 5,1 UV-I 805 W/m 11,5 C 17,2 C 16,1 km/h (3 Bft) 96,15 %
21.05.2016 11:55 18,9 C 59 % 1019,2 hPa 0,0 l/m 8,9 km/h (2 Bft) O-NO 67 1 min 0,000 mm 5,1 UV-I 766 W/m 10,7 C 17,8 C 11,3 km/h (2 Bft) 100,00 %
21.05.2016 11:56 18,8 C 58 % 1019,2 hPa 0,0 l/m 9,2 km/h (2 Bft) O-NO 59 1 min 0,000 mm 4,9 UV-I 776 W/m 10,4 C 17,6 C 14,5 km/h (3 Bft) 95,83 %
21.05.2016 11:57 18,8 C 55 % 1019,2 hPa 0,0 l/m 8,0 km/h (2 Bft) O-NO 65 1 min 0,000 mm 5,0 UV-I 792 W/m 9,6 C 18,1 C 11,3 km/h (2 Bft) 100,00 %
21.05.2016 11:58 18,8 C 55 % 1019,2 hPa 0,0 l/m 8,8 km/h (2 Bft) O-NO 61 1 min 0,000 mm 5,2 UV-I 812 W/m 9,6 C 17,8 C 12,9 km/h (3 Bft) 100,00 %
21.05.2016 11:59 18,8 C 54 % 1019,2 hPa 0,0 l/m 9,4 km/h (2 Bft) NO 42 1 min 0,000 mm 5,2 UV-I 824 W/m 9,3 C 17,5 C 12,9 km/h (3 Bft) 100,00 %
21.05.2016 12:00 18,8 C 56 % 1019,2 hPa 0,0 l/m 10,8 km/h (2 Bft) O-NO 73 1 min 0,000 mm 5,1 UV-I 814 W/m 9,8 C 17,0 C 16,1 km/h (3 Bft) 100,00 %
21.05.2016 12:01 18,8 C 55 % 1019,2 hPa 0,0 l/m 9,1 km/h (2 Bft) O-NO 58 1 min 0,483 mm 5,2 UV-I 796 W/m 9,6 C 17,6 C 11,3 km/h (2 Bft) 100,00 %
21.05.2016 12:02 18,9 C 56 % 1019,2 hPa 0,0 l/m 8,2 km/h (2 Bft) O-NO 61 1 min 0,000 mm 5,1 UV-I 821 W/m 9,9 C 18,1 C 9,7 km/h (2 Bft) 100,00 %
21.05.2016 12:03 19,0 C 57 % 1019,2 hPa 0,0 l/m 6,3 km/h (2 Bft) N-NO 30 1 min 0,000 mm 5,3 UV-I 831 W/m 10,3 C 19,0 C 8,0 km/h (2 Bft) 96,15 %
21.05.2016 12:04 19,1 C 58 % 1019,2 hPa 0,0 l/m 6,2 km/h (2 Bft) NO 37 1 min 0,000 mm 5,3 UV-I 840 W/m 10,6 C 19,1 C 9,7 km/h (2 Bft) 100,00 %
21.05.2016 12:05 19,1 C 60 % 1019,2 hPa 0,0 l/m 4,0 km/h (1 Bft) N-NO 13 1 min 0,000 mm 5,4 UV-I 803 W/m 11,1 C 19,1 C 8,0 km/h (2 Bft) 100,00 %
21.05.2016 12:06 19,2 C 62 % 1019,2 hPa 0,0 l/m 11,1 km/h (2 Bft) NO 49 1 min 0,000 mm 5,2 UV-I 827 W/m 11,7 C 17,4 C 16,1 km/h (3 Bft) 100,00 %
21.05.2016 12:07 19,2 C 59 % 1019,2 hPa 0,0 l/m 8,9 km/h (2 Bft) O-NO 67 1 min 0,000 mm 5,3 UV-I 831 W/m 11,0 C 18,2 C 14,5 km/h (3 Bft) 100,00 %
21.05.2016 12:08 19,3 C 53 % 1019,2 hPa 0,0 l/m 11,4 km/h (2 Bft) O-NO 59 1 min 0,000 mm 5,5 UV-I 861 W/m 9,5 C 17,4 C 14,5 km/h (3 Bft) 100,00 %
21.05.2016 12:09 19,2 C 51 % 1019,2 hPa 0,0 l/m 9,3 km/h (2 Bft) O-NO 74 1 min 0,000 mm 5,4 UV-I 865 W/m 8,8 C 18,0 C 14,5 km/h (3 Bft) 96,55 %
21.05.2016 12:10 19,2 C 53 % 1019,2 hPa 0,0 l/m 9,6 km/h (2 Bft) O-NO 65 1 min 0,000 mm 5,4 UV-I 855 W/m 9,4 C 17,9 C 14,5 km/h (3 Bft) 100,00 %
21.05.2016 12:11 19,3 C 57 % 1019,2 hPa 0,0 l/m 11,9 km/h (2 Bft) O-NO 62 1 min 0,000 mm 5,3 UV-I 827 W/m 10,6 C 17,3 C 16,1 km/h (3 Bft) 100,00 %
21.05.2016 12:12 19,3 C 53 % 1019,2 hPa 0,0 l/m 10,9 km/h (2 Bft) O 82 1 min 0,000 mm 5,2 UV-I 803 W/m 9,5 C 17,6 C 14,5 km/h (3 Bft) 100,00 %
21.05.2016 12:13 19,4 C 54 % 1019,2 hPa 0,0 l/m 8,4 km/h (2 Bft) O-NO 61 1 min 0,000 mm 5,1 UV-I 771 W/m 9,8 C 18,6 C 12,9 km/h (3 Bft) 95,65 %
21.05.2016 12:14 19,4 C 55 % 1019,1 hPa 0,0 l/m 8,2 km/h (2 Bft) O-NO 65 1 min 0,000 mm 5,2 UV-I 812 W/m 10,1 C 18,6 C 14,5 km/h (3 Bft) 100,00 %
21.05.2016 12:15 19,4 C 57 % 1019,2 hPa 0,0 l/m 10,9 km/h (2 Bft) O-NO 75 1 min 0,000 mm 5,3 UV-I 765 W/m 10,7 C 17,7 C 16,1 km/h (3 Bft) 100,00 %
21.05.2016 12:16 19,3 C 55 % 1019,1 hPa 0,0 l/m 9,5 km/h (2 Bft) O-NO 71 1 min 0,000 mm 5,3 UV-I 790 W/m 10,0 C 18,0 C 12,9 km/h (3 Bft) 100,00 %
21.05.2016 12:17 19,2 C 56 % 1019,2 hPa 0,0 l/m 4,0 km/h (1 Bft) N-NO 32 1 min 0,000 mm 5,3 UV-I 833 W/m 10,2 C 19,2 C 6,4 km/h (2 Bft) 100,00 %
21.05.2016 12:18 19,2 C 56 % 1019,1 hPa 0,0 l/m 5,6 km/h (1 Bft) N-NO 24 1 min 0,000 mm 5,3 UV-I 828 W/m 10,2 C 19,2 C 8,0 km/h (2 Bft) 100,00 %
21.05.2016 12:19 19,3 C 62 % 1019,1 hPa 0,0 l/m 4,6 km/h (1 Bft) N-NO 13 1 min 0,000 mm 5,3 UV-I 809 W/m 11,8 C 19,3 C 8,0 km/h (2 Bft) 100,00 %
21.05.2016 12:20 19,3 C 59 % 1019,1 hPa 0,0 l/m 10,2 km/h (2 Bft) N-NO 16 1 min 0,000 mm 5,3 UV-I 798 W/m 11,1 C 17,8 C 16,1 km/h (3 Bft) 96,15 %
21.05.2016 12:21 19,4 C 61 % 1019,1 hPa 0,0 l/m 7,4 km/h (2 Bft) O-NO 60 1 min 0,000 mm 5,4 UV-I 839 W/m 11,7 C 19,0 C 12,9 km/h (3 Bft) 100,00 %
21.05.2016 12:22 19,5 C 53 % 1019,0 hPa 0,0 l/m 5,7 km/h (1 Bft) N-NO 30 1 min 0,000 mm 5,5 UV-I 860 W/m 9,7 C 19,5 C 9,7 km/h (2 Bft) 100,00 %
21.05.2016 12:23 19,6 C 59 % 1019,1 hPa 0,0 l/m 5,2 km/h (1 Bft) N 11 1 min 0,000 mm 5,5 UV-I 836 W/m 11,4 C 19,6 C 8,0 km/h (2 Bft) 100,00 %
21.05.2016 12:24 19,6 C 60 % 1019,0 hPa 0,0 l/m 7,2 km/h (2 Bft) N 9 1 min 0,000 mm 5,5 UV-I 845 W/m 11,6 C 19,3 C 12,9 km/h (3 Bft) 100,00 %
21.05.2016 12:25 19,6 C 59 % 1019,0 hPa 0,0 l/m 10,1 km/h (2 Bft) NO 44 1 min 0,000 mm 5,6 UV-I 875 W/m 11,4 C 18,2 C 16,1 km/h (3 Bft) 100,00 %
21.05.2016 12:26 19,6 C 52 % 1019,0 hPa 0,0 l/m 9,5 km/h (2 Bft) NO 38 1 min 0,000 mm 5,6 UV-I 871 W/m 9,5 C 18,4 C 16,1 km/h (3 Bft) 100,00 %
21.05.2016 12:27 19,6 C 59 % 1019,0 hPa 0,0 l/m 9,5 km/h (2 Bft) NO 41 1 min 0,000 mm 5,7 UV-I 884 W/m 11,4 C 18,4 C 14,5 km/h (3 Bft) 100,00 %
21.05.2016 12:28 19,7 C 53 % 1019,0 hPa 0,0 l/m 5,9 km/h (2 Bft) NO 39 1 min 0,000 mm 5,7 UV-I 873 W/m 9,8 C 19,7 C 11,3 km/h (2 Bft) 100,00 %
21.05.2016 12:29 19,7 C 51 % 1019,0 hPa 0,0 l/m 5,6 km/h (1 Bft) NO 41 1 min 0,000 mm 5,6 UV-I 856 W/m 9,3 C 19,7 C 16,1 km/h (3 Bft) 100,00 %
21.05.2016 12:30 19,7 C 55 % 1019,0 hPa 0,0 l/m 9,5 km/h (2 Bft) NO 44 1 min 0,000 mm 5,6 UV-I 858 W/m 10,4 C 18,5 C 11,3 km/h (2 Bft) 100,00 %
21.05.2016 12:31 19,7 C 57 % 1019,0 hPa 0,0 l/m 8,3 km/h (2 Bft) N-NO 16 1 min 0,000 mm 5,5 UV-I 852 W/m 10,9 C 18,9 C 11,3 km/h (2 Bft) 100,00 %
21.05.2016 12:32 19,8 C 56 % 1019,0 hPa 0,0 l/m 7,2 km/h (2 Bft) N-NO 24 1 min 0,000 mm 5,7 UV-I 874 W/m 10,8 C 19,5 C 12,9 km/h (3 Bft) 100,00 %
21.05.2016 12:33 19,8 C 57 % 1019,0 hPa 0,0 l/m 4,9 km/h (1 Bft) O-NO 66 1 min 0,000 mm 5,7 UV-I 882 W/m 11,0 C 19,8 C 8,0 km/h (2 Bft) 100,00 %
21.05.2016 12:34 19,8 C 53 % 1019,0 hPa 0,0 l/m 8,7 km/h (2 Bft) NO 49 1 min 0,000 mm 5,8 UV-I 882 W/m 9,9 C 18,9 C 14,5 km/h (3 Bft) 100,00 %
21.05.2016 12:35 19,9 C 56 % 1019,0 hPa 0,0 l/m 10,4 km/h (2 Bft) O-NO 73 1 min 0,000 mm 5,8 UV-I 895 W/m 10,9 C 18,4 C 16,1 km/h (3 Bft) 100,00 %
21.05.2016 12:36 19,9 C 51 % 1019,0 hPa 0,0 l/m 8,2 km/h (2 Bft) O 83 1 min 0,000 mm 5,8 UV-I 891 W/m 9,5 C 19,2 C 11,3 km/h (2 Bft) 100,00 %
21.05.2016 12:37 20,0 C 54 % 1019,0 hPa 0,0 l/m 9,3 km/h (2 Bft) N 9 1 min 0,000 mm 5,8 UV-I 881 W/m 10,4 C 18,9 C 14,5 km/h (3 Bft) 100,00 %
21.05.2016 12:38 20,1 C 57 % 1018,9 hPa 0,0 l/m 10,1 km/h (2 Bft) N 9 1 min 0,000 mm 5,8 UV-I 881 W/m 11,3 C 18,7 C 16,1 km/h (3 Bft) 100,00 %
21.05.2016 12:39 20,0 C 56 % 1019,0 hPa 0,0 l/m 5,2 km/h (1 Bft) N-NO 22 1 min 0,000 mm 5,7 UV-I 882 W/m 11,0 C 20,0 C 8,0 km/h (2 Bft) 100,00 %
21.05.2016 12:40 19,8 C 57 % 1018,9 hPa 0,0 l/m 2,8 km/h (1 Bft) N-NW 346 1 min 0,000 mm 5,7 UV-I 873 W/m 11,0 C 19,8 C 3,2 km/h (1 Bft) 100,00 %
21.05.2016 12:41 19,8 C 57 % 1019,0 hPa 0,0 l/m 1,7 km/h (1 Bft) N-NW 348 1 min 0,000 mm 5,7 UV-I 866 W/m 11,0 C 19,8 C 3,2 km/h (1 Bft) 100,00 %
21.05.2016 12:42 19,8 C 56 % 1018,9 hPa 0,0 l/m 4,1 km/h (1 Bft) N-NO 32 1 min 0,000 mm 5,6 UV-I 851 W/m 10,8 C 19,8 C 11,3 km/h (2 Bft) 100,00 %
21.05.2016 12:43 19,8 C 55 % 1018,9 hPa 0,0 l/m 9,8 km/h (2 Bft) N-NO 22 1 min 0,000 mm 5,6 UV-I 852 W/m 10,5 C 18,5 C 14,5 km/h (3 Bft) 100,00 %
21.05.2016 12:44 19,7 C 56 % 1018,9 hPa 0,0 l/m 11,4 km/h (2 Bft) NO 35 1 min 0,000 mm 5,5 UV-I 827 W/m 10,7 C 17,9 C 14,5 km/h (3 Bft) 100,00 %
21.05.2016 12:45 19,8 C 56 % 1018,9 hPa 0,0 l/m 14,5 km/h (3 Bft) N-NO 26 1 min 0,000 mm 5,6 UV-I 757 W/m 10,8 C 17,1 C 17,7 km/h (3 Bft) 100,00 %
21.05.2016 12:46 19,7 C 58 % 1018,9 hPa 0,0 l/m 11,2 km/h (2 Bft) N-NO 15 1 min 0,000 mm 5,6 UV-I 752 W/m 11,2 C 17,9 C 14,5 km/h (3 Bft) 100,00 %
21.05.2016 12:47 19,7 C 59 % 1018,9 hPa 0,0 l/m 9,3 km/h (2 Bft) N-NO 17 1 min 0,000 mm 5,6 UV-I 809 W/m 11,5 C 18,6 C 14,5 km/h (3 Bft) 100,00 %
21.05.2016 12:48 19,6 C 56 % 1018,9 hPa 0,0 l/m 7,6 km/h (2 Bft) N-NO 20 1 min 0,000 mm 5,6 UV-I 809 W/m 10,6 C 19,1 C 14,5 km/h (3 Bft) 96,30 %
21.05.2016 12:49 19,6 C 53 % 1018,9 hPa 0,0 l/m 6,4 km/h (2 Bft) N 10 1 min 0,000 mm 5,7 UV-I 854 W/m 9,8 C 19,6 C 9,7 km/h (2 Bft) 98,73 %
21.05.2016 12:50 19,6 C 58 % 1018,9 hPa 0,0 l/m 6,2 km/h (2 Bft) NO 55 1 min 0,000 mm 5,6 UV-I 874 W/m 11,1 C 19,6 C 11,3 km/h (2 Bft) 100,00 %
21.05.2016 12:51 19,6 C 56 % 1018,9 hPa 0,0 l/m 8,0 km/h (2 Bft) N-NO 26 1 min 0,000 mm 5,7 UV-I 880 W/m 10,6 C 18,9 C 14,5 km/h (3 Bft) 100,00 %
21.05.2016 12:52 19,6 C 52 % 1018,9 hPa 0,0 l/m 2,1 km/h (1 Bft) N 9 1 min 0,000 mm 5,8 UV-I 898 W/m 9,5 C 19,6 C 4,8 km/h (1 Bft) 100,00 %
21.05.2016 12:53 19,6 C 51 % 1018,9 hPa 0,0 l/m 3,4 km/h (1 Bft) N 5 1 min 0,000 mm 5,8 UV-I 896 W/m 9,2 C 19,6 C 4,8 km/h (1 Bft) 100,00 %
21.05.2016 12:54 19,7 C 58 % 1018,9 hPa 0,0 l/m 8,6 km/h (2 Bft) N-NO 19 1 min 0,000 mm 5,8 UV-I 879 W/m 11,2 C 18,8 C 14,5 km/h (3 Bft) 100,00 %
21.05.2016 12:55 19,7 C 50 % 1018,9 hPa 0,0 l/m 2,6 km/h (1 Bft) N-NO 19 1 min 0,000 mm 5,8 UV-I 878 W/m 9,0 C 19,7 C 6,4 km/h (2 Bft) 100,00 %
21.05.2016 12:56 19,7 C 56 % 1018,9 hPa 0,0 l/m 8,1 km/h (2 Bft) N-NO 13 1 min 0,000 mm 5,9 UV-I 906 W/m 10,7 C 19,0 C 12,9 km/h (3 Bft) 100,00 %
21.05.2016 12:57 19,7 C 50 % 1018,9 hPa 0,0 l/m 3,3 km/h (1 Bft) N-NO 13 1 min 0,000 mm 5,9 UV-I 908 W/m 9,0 C 19,7 C 4,8 km/h (1 Bft) 100,00 %
21.05.2016 12:58 19,6 C 52 % 1018,9 hPa 0,0 l/m 1,6 km/h (1 Bft) N-NO 17 1 min 0,000 mm 5,8 UV-I 886 W/m 9,5 C 19,6 C 4,8 km/h (1 Bft) 100,00 %
21.05.2016 12:59 19,6 C 55 % 1018,9 hPa 0,0 l/m 3,2 km/h (1 Bft) NO 44 1 min 0,000 mm 5,7 UV-I 861 W/m 10,3 C 19,6 C 4,8 km/h (1 Bft) 100,00 %
21.05.2016 13:00 19,7 C 54 % 1018,8 hPa 0,0 l/m 2,7 km/h (1 Bft) N-NO 26 1 min 0,533 mm 5,7 UV-I 856 W/m 10,1 C 19,7 C 4,8 km/h (1 Bft) 92,86 %
21.05.2016 13:02 19,9 C 53 % 1018,8 hPa 0,0 l/m 6,8 km/h (2 Bft) NO 56 2 min 0,000 mm 5,7 UV-I 864 W/m 10,0 C 19,7 C 12,9 km/h (3 Bft) 100,00 %
21.05.2016 13:03 20,0 C 54 % 1018,7 hPa 0,0 l/m 10,1 km/h (2 Bft) O 84 1 min 0,000 mm 5,7 UV-I 874 W/m 10,4 C 18,6 C 12,9 km/h (3 Bft) 100,00 %
21.05.2016 13:04 20,0 C 47 % 1018,8 hPa 0,0 l/m 6,7 km/h (2 Bft) O-NO 62 1 min 0,000 mm 5,8 UV-I 882 W/m 8,3 C 19,9 C 11,3 km/h (2 Bft) 96,55 %
21.05.2016 13:05 19,9 C 46 % 1018,8 hPa 0,0 l/m 6,9 km/h (2 Bft) NO 46 1 min 0,000 mm 5,7 UV-I 876 W/m 7,9 C 19,7 C 8,0 km/h (2 Bft) 100,00 %
21.05.2016 13:06 19,9 C 48 % 1018,8 hPa 0,0 l/m 2,5 km/h (1 Bft) NO 53 1 min 0,000 mm 5,7 UV-I 865 W/m 8,6 C 19,9 C 6,4 km/h (2 Bft) 100,00 %
21.05.2016 13:07 19,8 C 50 % 1018,7 hPa 0,0 l/m 2,2 km/h (1 Bft) O-NO 68 1 min 0,000 mm 5,7 UV-I 864 W/m 9,1 C 19,8 C 4,8 km/h (1 Bft) 100,00 %
21.05.2016 13:08 19,9 C 51 % 1018,7 hPa 0,0 l/m 4,3 km/h (1 Bft) N-NO 26 1 min 0,000 mm 5,7 UV-I 875 W/m 9,5 C 19,9 C 6,4 km/h (2 Bft) 100,00 %
21.05.2016 13:09 20,1 C 56 % 1018,8 hPa 0,0 l/m 2,9 km/h (1 Bft) N-NW 346 1 min 0,000 mm 5,7 UV-I 861 W/m 11,0 C 20,1 C 6,4 km/h (2 Bft) 100,00 %
21.05.2016 13:10 20,0 C 53 % 1018,7 hPa 0,0 l/m 2,6 km/h (1 Bft) NW 324 1 min 0,000 mm 5,6 UV-I 856 W/m 10,1 C 20,0 C 4,8 km/h (1 Bft) 100,00 %
21.05.2016 13:11 20,1 C 55 % 1018,7 hPa 0,0 l/m 5,5 km/h (1 Bft) O-NO 63 1 min 0,000 mm 5,6 UV-I 872 W/m 10,8 C 20,1 C 14,5 km/h (3 Bft) 100,00 %
21.05.2016 13:12 20,2 C 52 % 1018,7 hPa 0,0 l/m 7,9 km/h (2 Bft) O-NO 67 1 min 0,000 mm 5,7 UV-I 879 W/m 10,0 C 19,6 C 12,9 km/h (3 Bft) 100,00 %
21.05.2016 13:13 20,2 C 52 % 1018,7 hPa 0,0 l/m 7,4 km/h (2 Bft) NO 43 1 min 0,000 mm 5,6 UV-I 857 W/m 10,0 C 19,8 C 9,7 km/h (2 Bft) 100,00 %
21.05.2016 13:14 20,2 C 49 % 1018,7 hPa 0,0 l/m 5,7 km/h (1 Bft) O-NO 59 1 min 0,000 mm 5,3 UV-I 804 W/m 9,1 C 20,2 C 8,0 km/h (2 Bft) 100,00 %
21.05.2016 13:15 20,2 C 50 % 1018,7 hPa 0,0 l/m 7,3 km/h (2 Bft) O 92 1 min 0,000 mm 5,4 UV-I 804 W/m 9,4 C 19,8 C 11,3 km/h (2 Bft) 100,00 %
21.05.2016 13:16 20,2 C 48 % 1018,7 hPa 0,0 l/m 5,2 km/h (1 Bft) N-NO 25 1 min 0,000 mm 5,6 UV-I 839 W/m 8,8 C 20,2 C 6,4 km/h (2 Bft) 100,00 %
21.05.2016 13:17 20,2 C 54 % 1018,7 hPa 0,0 l/m 7,1 km/h (2 Bft) NO 36 1 min 0,000 mm 5,6 UV-I 845 W/m 10,6 C 19,9 C 9,7 km/h (2 Bft) 100,00 %
21.05.2016 13:18 20,2 C 55 % 1018,7 hPa 0,0 l/m 8,6 km/h (2 Bft) N-NO 26 1 min 0,000 mm 5,5 UV-I 820 W/m 10,9 C 19,3 C 12,9 km/h (3 Bft) 96,67 %
21.05.2016 13:19 20,3 C 58 % 1018,7 hPa 0,0 l/m 7,4 km/h (2 Bft) NO 34 1 min 0,000 mm 5,6 UV-I 893 W/m 11,8 C 19,9 C 12,9 km/h (3 Bft) 100,00 %
21.05.2016 13:20 20,2 C 52 % 1018,7 hPa 0,0 l/m 6,6 km/h (2 Bft) NO 36 1 min 0,000 mm 5,7 UV-I 894 W/m 10,0 C 20,1 C 11,3 km/h (2 Bft) 96,67 %
21.05.2016 13:21 20,2 C 53 % 1018,7 hPa 0,0 l/m 9,7 km/h (2 Bft) N 9 1 min 0,000 mm 5,5 UV-I 875 W/m 10,3 C 19,0 C 17,7 km/h (3 Bft) 98,77 %
21.05.2016 13:22 20,2 C 54 % 1018,6 hPa 0,0 l/m 12,9 km/h (3 Bft) N-NO 26 1 min 0,000 mm 5,5 UV-I 865 W/m 10,6 C 18,0 C 16,1 km/h (3 Bft) 97,56 %
21.05.2016 13:23 20,2 C 56 % 1018,7 hPa 0,0 l/m 6,2 km/h (2 Bft) N-NO 19 1 min 0,000 mm 5,5 UV-I 800 W/m 11,1 C 20,2 C 9,7 km/h (2 Bft) 96,55 %
21.05.2016 13:24 20,1 C 53 % 1018,7 hPa 0,0 l/m 3,4 km/h (1 Bft) N-NW 328 1 min 0,000 mm 5,6 UV-I 843 W/m 10,2 C 20,1 C 6,4 km/h (2 Bft) 100,00 %
21.05.2016 13:25 20,0 C 53 % 1018,6 hPa 0,0 l/m 6,4 km/h (2 Bft) N-NO 21 1 min 0,000 mm 5,7 UV-I 869 W/m 10,1 C 20,0 C 12,9 km/h (3 Bft) 95,65 %
21.05.2016 13:26 20,0 C 56 % 1018,7 hPa 0,0 l/m 10,5 km/h (2 Bft) N-NO 13 1 min 0,000 mm 5,7 UV-I 871 W/m 11,0 C 18,5 C 16,1 km/h (3 Bft) 100,00 %
21.05.2016 13:27 19,9 C 54 % 1018,6 hPa 0,0 l/m 6,7 km/h (2 Bft) N-NO 32 1 min 0,000 mm 5,4 UV-I 840 W/m 10,3 C 19,8 C 11,3 km/h (2 Bft) 96,15 %
21.05.2016 13:28 19,9 C 56 % 1018,6 hPa 0,0 l/m 5,4 km/h (1 Bft) NO 36 1 min 0,000 mm 5,4 UV-I 841 W/m 10,9 C 19,9 C 11,3 km/h (2 Bft) 95,83 %
21.05.2016 13:29 20,0 C 55 % 1018,6 hPa 0,0 l/m 11,9 km/h (2 Bft) N-NO 24 1 min 0,000 mm 5,4 UV-I 836 W/m 10,7 C 18,1 C 16,1 km/h (3 Bft) 93,33 %
21.05.2016 13:30 20,1 C 55 % 1018,5 hPa 0,0 l/m 9,3 km/h (2 Bft) N 11 1 min 0,000 mm 5,3 UV-I 831 W/m 10,8 C 19,0 C 14,5 km/h (3 Bft) 100,00 %
21.05.2016 13:31 20,0 C 56 % 1018,5 hPa 0,0 l/m 6,5 km/h (2 Bft) N-NO 26 1 min 0,000 mm 5,1 UV-I 763 W/m 11,0 C 20,0 C 11,3 km/h (2 Bft) 96,55 %
21.05.2016 13:32 20,0 C 57 % 1018,6 hPa 0,0 l/m 8,0 km/h (2 Bft) N-NO 17 1 min 0,000 mm 4,9 UV-I 711 W/m 11,2 C 19,4 C 12,9 km/h (3 Bft) 88,89 %
21.05.2016 13:33 19,9 C 55 % 1018,5 hPa 0,0 l/m 5,3 km/h (1 Bft) NO 38 1 min 0,000 mm 4,9 UV-I 696 W/m 10,6 C 19,9 C 8,0 km/h (2 Bft) 100,00 %
21.05.2016 13:34 19,9 C 52 % 1018,6 hPa 0,0 l/m 7,1 km/h (2 Bft) NO 40 1 min 0,000 mm 4,9 UV-I 714 W/m 9,7 C 19,6 C 9,7 km/h (2 Bft) 93,33 %
21.05.2016 13:35 19,9 C 53 % 1018,6 hPa 0,0 l/m 3,9 km/h (1 Bft) NO 38 1 min 0,000 mm 4,8 UV-I 774 W/m 10,0 C 19,9 C 6,4 km/h (2 Bft) 100,00 %
21.05.2016 13:36 20,0 C 54 % 1018,5 hPa 0,0 l/m 2,3 km/h (1 Bft) NO 38 1 min 0,000 mm 5,2 UV-I 837 W/m 10,4 C 20,0 C 4,8 km/h (1 Bft) 94,12 %
21.05.2016 13:37 20,1 C 49 % 1018,5 hPa 0,0 l/m 4,4 km/h (1 Bft) N-NO 28 1 min 0,000 mm 5,3 UV-I 804 W/m 9,0 C 20,1 C 6,4 km/h (2 Bft) 100,00 %
21.05.2016 13:38 20,3 C 54 % 1018,5 hPa 0,0 l/m 7,5 km/h (2 Bft) NO 43 1 min 0,000 mm 5,3 UV-I 802 W/m 10,7 C 19,9 C 11,3 km/h (2 Bft) 95,65 %
21.05.2016 13:39 20,4 C 55 % 1018,5 hPa 0,0 l/m 4,6 km/h (1 Bft) NO 53 1 min 0,000 mm 5,2 UV-I 803 W/m 11,1 C 20,4 C 8,0 km/h (2 Bft) 96,67 %
21.05.2016 13:40 20,5 C 51 % 1018,5 hPa 0,0 l/m 6,8 km/h (2 Bft) N-NO 23 1 min 0,000 mm 5,2 UV-I 812 W/m 10,0 C 20,3 C 9,7 km/h (2 Bft) 95,65 %
21.05.2016 13:41 20,6 C 51 % 1018,5 hPa 0,0 l/m 8,3 km/h (2 Bft) NO 42 1 min 0,000 mm 5,2 UV-I 816 W/m 10,1 C 19,9 C 11,3 km/h (2 Bft) 100,00 %
21.05.2016 13:42 20,6 C 52 % 1018,5 hPa 0,0 l/m 7,4 km/h (2 Bft) O 82 1 min 0,000 mm 5,4 UV-I 820 W/m 10,4 C 20,2 C 14,5 km/h (3 Bft) 96,55 %
21.05.2016 13:43 20,6 C 47 % 1018,5 hPa 0,0 l/m 10,0 km/h (2 Bft) O-NO 76 1 min 0,000 mm 5,3 UV-I 809 W/m 8,9 C 19,3 C 14,5 km/h (3 Bft) 96,67 %
21.05.2016 13:44 20,5 C 46 % 1018,5 hPa 0,0 l/m 8,8 km/h (2 Bft) O-NO 67 1 min 0,000 mm 5,4 UV-I 845 W/m 8,5 C 19,6 C 11,3 km/h (2 Bft) 100,00 %
21.05.2016 13:45 20,4 C 45 % 1018,5 hPa 0,0 l/m 4,0 km/h (1 Bft) O-NO 63 1 min 0,000 mm 5,3 UV-I 833 W/m 8,1 C 20,4 C 4,8 km/h (1 Bft) 96,30 %
21.05.2016 13:46 20,3 C 50 % 1018,5 hPa 0,0 l/m 2,7 km/h (1 Bft) NO 50 1 min 0,000 mm 5,3 UV-I 842 W/m 9,5 C 20,3 C 4,8 km/h (1 Bft) 100,00 %
21.05.2016 13:47 20,3 C 47 % 1018,5 hPa 0,0 l/m 6,0 km/h (2 Bft) O-NO 69 1 min 0,000 mm 5,5 UV-I 876 W/m 8,6 C 20,3 C 8,0 km/h (2 Bft) 96,30 %
21.05.2016 13:48 20,3 C 46 % 1018,5 hPa 0,0 l/m 2,5 km/h (1 Bft) O-NO 69 1 min 0,000 mm 5,4 UV-I 874 W/m 8,3 C 20,3 C 4,8 km/h (1 Bft) 98,70 %
21.05.2016 13:49 20,3 C 48 % 1018,4 hPa 0,0 l/m 4,7 km/h (1 Bft) O-SO 102 1 min 0,000 mm 5,2 UV-I 826 W/m 8,9 C 20,3 C 6,4 km/h (2 Bft) 97,56 %
21.05.2016 13:50 20,3 C 50 % 1018,4 hPa 0,0 l/m 3,2 km/h (1 Bft) O-SO 113 1 min 0,000 mm 5,0 UV-I 754 W/m 9,5 C 20,3 C 4,8 km/h (1 Bft) 95,65 %
21.05.2016 13:51 20,3 C 47 % 1018,4 hPa 0,0 l/m 5,5 km/h (1 Bft) NO 40 1 min 0,000 mm 4,9 UV-I 761 W/m 8,6 C 20,3 C 9,7 km/h (2 Bft) 100,00 %
21.05.2016 13:52 20,4 C 52 % 1018,4 hPa 0,0 l/m 6,2 km/h (2 Bft) O-NO 62 1 min 0,000 mm 5,0 UV-I 791 W/m 10,2 C 20,4 C 8,0 km/h (2 Bft) 100,00 %
21.05.2016 13:53 20,4 C 48 % 1018,4 hPa 0,0 l/m 7,9 km/h (2 Bft) O-NO 76 1 min 0,000 mm 5,0 UV-I 786 W/m 9,0 C 19,8 C 12,9 km/h (3 Bft) 100,00 %
21.05.2016 13:54 20,4 C 47 % 1018,4 hPa 0,0 l/m 9,6 km/h (2 Bft) O-NO 59 1 min 0,000 mm 4,9 UV-I 744 W/m 8,7 C 19,2 C 12,9 km/h (3 Bft) 100,00 %
21.05.2016 13:55 20,4 C 46 % 1018,4 hPa 0,0 l/m 7,4 km/h (2 Bft) O-NO 76 1 min 0,000 mm 4,8 UV-I 744 W/m 8,4 C 20,0 C 12,9 km/h (3 Bft) 100,00 %
21.05.2016 13:56 20,4 C 46 % 1018,4 hPa 0,0 l/m 9,7 km/h (2 Bft) O-NO 64 1 min 0,000 mm 4,8 UV-I 744 W/m 8,4 C 19,2 C 14,5 km/h (3 Bft) 100,00 %
21.05.2016 13:57 20,4 C 47 % 1018,4 hPa 0,0 l/m 4,7 km/h (1 Bft) O-NO 65 1 min 0,000 mm 4,7 UV-I 724 W/m 8,7 C 20,4 C 8,0 km/h (2 Bft) 100,00 %
21.05.2016 13:58 20,3 C 49 % 1018,4 hPa 0,0 l/m 4,0 km/h (1 Bft) NO 46 1 min 0,000 mm 4,6 UV-I 704 W/m 9,2 C 20,3 C 8,0 km/h (2 Bft) 100,00 %
21.05.2016 13:59 20,3 C 48 % 1018,4 hPa 0,0 l/m 5,1 km/h (1 Bft) NO 54 1 min 0,000 mm 4,1 UV-I 681 W/m 8,9 C 20,3 C 6,4 km/h (2 Bft) 96,15 %
21.05.2016 14:00 20,3 C 45 % 1018,4 hPa 0,0 l/m 2,9 km/h (1 Bft) NO 54 1 min 0,000 mm 3,8 UV-I 674 W/m 8,0 C 20,3 C 6,4 km/h (2 Bft) 100,00 %
21.05.2016 14:02 20,2 C 47 % 1018,3 hPa 0,0 l/m 0,2 km/h (0 Bft) NO 54 2 min 0,508 mm 4,6 UV-I 709 W/m 8,5 C 20,2 C 1,6 km/h (1 Bft) 100,00 %
21.05.2016 14:03 20,1 C 44 % 1018,3 hPa 0,0 l/m 1,5 km/h (1 Bft) NO 54 1 min 0,000 mm 4,6 UV-I 724 W/m 7,5 C 20,1 C 3,2 km/h (1 Bft) 100,00 %
21.05.2016 14:04 20,2 C 48 % 1018,3 hPa 0,0 l/m 3,1 km/h (1 Bft) O 89 1 min 0,000 mm 4,7 UV-I 752 W/m 8,8 C 20,2 C 6,4 km/h (2 Bft) 96,30 %
21.05.2016 14:05 20,3 C 53 % 1018,3 hPa 0,0 l/m 6,0 km/h (2 Bft) N-NO 29 1 min 0,000 mm 4,7 UV-I 736 W/m 10,4 C 20,3 C 11,3 km/h (2 Bft) 100,00 %
21.05.2016 14:06 20,4 C 48 % 1018,3 hPa 0,0 l/m 8,9 km/h (2 Bft) N-NO 33 1 min 0,000 mm 4,6 UV-I 728 W/m 9,0 C 19,4 C 12,9 km/h (3 Bft) 100,00 %
21.05.2016 14:07 20,4 C 54 % 1018,3 hPa 0,0 l/m 7,8 km/h (2 Bft) NO 40 1 min 0,000 mm 4,7 UV-I 747 W/m 10,8 C 19,8 C 11,3 km/h (2 Bft) 100,00 %
21.05.2016 14:08 20,6 C 51 % 1018,4 hPa 0,0 l/m 4,2 km/h (1 Bft) NO 40 1 min 0,000 mm 4,8 UV-I 767 W/m 10,1 C 20,6 C 4,8 km/h (1 Bft) 100,00 %
21.05.2016 14:09 20,5 C 47 % 1018,4 hPa 0,0 l/m 5,2 km/h (1 Bft) O-NO 74 1 min 0,000 mm 4,8 UV-I 762 W/m 8,8 C 20,5 C 6,4 km/h (2 Bft) 100,00 %
21.05.2016 14:10 20,4 C 45 % 1018,4 hPa 0,0 l/m 3,6 km/h (1 Bft) O-NO 74 1 min 0,000 mm 4,6 UV-I 700 W/m 8,1 C 20,4 C 4,8 km/h (1 Bft) 95,83 %
21.05.2016 14:11 20,3 C 45 % 1018,3 hPa 0,0 l/m 2,2 km/h (1 Bft) O-NO 74 1 min 0,000 mm 4,5 UV-I 702 W/m 8,0 C 20,3 C 3,2 km/h (1 Bft) 100,00 %
21.05.2016 14:12 20,2 C 48 % 1018,3 hPa 0,0 l/m 3,8 km/h (1 Bft) NO 49 1 min 0,000 mm 4,4 UV-I 702 W/m 8,8 C 20,2 C 4,8 km/h (1 Bft) 100,00 %
21.05.2016 14:13 20,2 C 48 % 1018,3 hPa 0,0 l/m 3,3 km/h (1 Bft) NO 38 1 min 0,000 mm 4,6 UV-I 718 W/m 8,8 C 20,2 C 4,8 km/h (1 Bft) 100,00 %
21.05.2016 14:14 20,3 C 49 % 1018,3 hPa 0,0 l/m 4,2 km/h (1 Bft) NO 49 1 min 0,000 mm 4,6 UV-I 737 W/m 9,2 C 20,3 C 8,0 km/h (2 Bft) 100,00 %
21.05.2016 14:15 20,3 C 52 % 1018,2 hPa 0,0 l/m 4,6 km/h (1 Bft) NO 42 1 min 0,000 mm 4,7 UV-I 748 W/m 10,1 C 20,3 C 8,0 km/h (2 Bft) 100,00 %
21.05.2016 14:16 20,4 C 49 % 1018,2 hPa 0,0 l/m 4,9 km/h (1 Bft) O-NO 61 1 min 0,000 mm 4,7 UV-I 774 W/m 9,3 C 20,4 C 8,0 km/h (2 Bft) 96,15 %
21.05.2016 14:17 20,4 C 48 % 1018,2 hPa 0,0 l/m 6,9 km/h (2 Bft) NO 40 1 min 0,000 mm 4,9 UV-I 824 W/m 9,0 C 20,2 C 11,3 km/h (2 Bft) 100,00 %
21.05.2016 14:18 20,6 C 47 % 1018,2 hPa 0,0 l/m 9,0 km/h (2 Bft) NO 44 1 min 0,000 mm 5,0 UV-I 833 W/m 8,9 C 19,6 C 16,1 km/h (3 Bft) 100,00 %
21.05.2016 14:19 20,6 C 48 % 1018,2 hPa 0,0 l/m 4,0 km/h (1 Bft) NO 34 1 min 0,000 mm 4,8 UV-I 823 W/m 9,2 C 20,6 C 6,4 km/h (2 Bft) 100,00 %
21.05.2016 14:20 20,6 C 51 % 1018,2 hPa 0,0 l/m 6,7 km/h (2 Bft) NO 36 1 min 0,000 mm 4,3 UV-I 803 W/m 10,1 C 20,5 C 11,3 km/h (2 Bft) 100,00 %
21.05.2016 14:21 20,7 C 55 % 1018,2 hPa 0,0 l/m 6,4 km/h (2 Bft) O-NO 62 1 min 0,000 mm 4,8 UV-I 788 W/m 11,3 C 20,7 C 9,7 km/h (2 Bft) 100,00 %
21.05.2016 14:22 20,8 C 49 % 1018,2 hPa 0,0 l/m 5,2 km/h (1 Bft) O-NO 75 1 min 0,000 mm 4,7 UV-I 771 W/m 9,7 C 20,8 C 6,4 km/h (2 Bft) 100,00 %
21.05.2016 14:23 20,9 C 54 % 1018,2 hPa 0,0 l/m 10,5 km/h (2 Bft) N-NO 32 1 min 0,000 mm 4,7 UV-I 785 W/m 11,2 C 19,5 C 14,5 km/h (3 Bft) 100,00 %
21.05.2016 14:24 20,9 C 53 % 1018,1 hPa 0,0 l/m 8,9 km/h (2 Bft) N-NO 33 1 min 0,000 mm 4,6 UV-I 758 W/m 11,0 C 20,0 C 11,3 km/h (2 Bft) 100,00 %
21.05.2016 14:25 20,8 C 46 % 1018,1 hPa 0,0 l/m 5,6 km/h (1 Bft) NO 49 1 min 0,000 mm 4,6 UV-I 758 W/m 8,8 C 20,8 C 8,0 km/h (2 Bft) 100,00 %
21.05.2016 14:26 20,6 C 47 % 1018,1 hPa 0,0 l/m 5,1 km/h (1 Bft) NO 51 1 min 0,000 mm 4,6 UV-I 759 W/m 8,9 C 20,6 C 8,0 km/h (2 Bft) 96,55 %
21.05.2016 14:27 20,6 C 47 % 1018,1 hPa 0,0 l/m 3,3 km/h (1 Bft) NO 51 1 min 0,000 mm 4,6 UV-I 727 W/m 8,9 C 20,6 C 6,4 km/h (2 Bft) 100,00 %
21.05.2016 14:28 20,5 C 50 % 1018,1 hPa 0,0 l/m 0,9 km/h (0 Bft) NO 35 1 min 0,000 mm 4,4 UV-I 705 W/m 9,7 C 20,5 C 1,6 km/h (1 Bft) 100,00 %
21.05.2016 14:29 20,4 C 47 % 1018,0 hPa 0,0 l/m 1,7 km/h (1 Bft) NO 35 1 min 0,000 mm 4,2 UV-I 664 W/m 8,7 C 20,4 C 4,8 km/h (1 Bft) 100,00 %
21.05.2016 14:30 20,3 C 53 % 1018,1 hPa 0,0 l/m 6,6 km/h (2 Bft) NO 42 1 min 0,000 mm 4,3 UV-I 671 W/m 10,4 C 20,2 C 11,3 km/h (2 Bft) 100,00 %
21.05.2016 14:31 20,4 C 50 % 1018,1 hPa 0,0 l/m 7,5 km/h (2 Bft) O-NO 62 1 min 0,000 mm 4,2 UV-I 664 W/m 9,6 C 20,0 C 11,3 km/h (2 Bft) 96,15 %
21.05.2016 14:32 20,6 C 49 % 1018,1 hPa 0,0 l/m 3,8 km/h (1 Bft) O-NO 67 1 min 0,000 mm 4,3 UV-I 675 W/m 9,5 C 20,6 C 6,4 km/h (2 Bft) 100,00 %
21.05.2016 14:33 20,7 C 58 % 1018,0 hPa 0,0 l/m 7,1 km/h (2 Bft) NO 45 1 min 0,000 mm 4,6 UV-I 753 W/m 12,1 C 20,4 C 9,7 km/h (2 Bft) 100,00 %
21.05.2016 14:34 20,7 C 54 % 1018,0 hPa 0,0 l/m 6,6 km/h (2 Bft) O-NO 60 1 min 0,000 mm 4,8 UV-I 798 W/m 11,1 C 20,6 C 9,7 km/h (2 Bft) 100,00 %
21.05.2016 14:35 20,8 C 46 % 1018,0 hPa 0,0 l/m 5,5 km/h (1 Bft) O-NO 67 1 min 0,000 mm 4,9 UV-I 831 W/m 8,8 C 20,8 C 8,0 km/h (2 Bft) 100,00 %
21.05.2016 14:36 20,8 C 47 % 1018,0 hPa 0,0 l/m 6,0 km/h (2 Bft) NO 52 1 min 0,000 mm 5,0 UV-I 847 W/m 9,1 C 20,8 C 8,0 km/h (2 Bft) 100,00 %
21.05.2016 14:37 20,9 C 47 % 1018,0 hPa 0,0 l/m 6,6 km/h (2 Bft) NO 38 1 min 0,000 mm 5,0 UV-I 856 W/m 9,2 C 20,8 C 8,0 km/h (2 Bft) 100,00 %
21.05.2016 14:38 20,9 C 49 % 1018,0 hPa 0,0 l/m 3,7 km/h (1 Bft) NO 53 1 min 0,000 mm 5,0 UV-I 865 W/m 9,8 C 20,9 C 6,4 km/h (2 Bft) 96,67 %
21.05.2016 14:39 20,9 C 50 % 1018,0 hPa 0,0 l/m 7,8 km/h (2 Bft) NO 48 1 min 0,000 mm 5,0 UV-I 866 W/m 10,1 C 20,4 C 11,3 km/h (2 Bft) 100,00 %
21.05.2016 14:40 21,0 C 49 % 1018,0 hPa 0,0 l/m 8,6 km/h (2 Bft) O-NO 58 1 min 0,000 mm 5,0 UV-I 867 W/m 9,9 C 20,2 C 11,3 km/h (2 Bft) 100,00 %
21.05.2016 14:41 21,1 C 46 % 1018,0 hPa 0,0 l/m 8,0 km/h (2 Bft) O 87 1 min 0,000 mm 5,0 UV-I 861 W/m 9,0 C 20,5 C 12,9 km/h (3 Bft) 96,55 %
21.05.2016 14:42 21,1 C 47 % 1018,0 hPa 0,0 l/m 8,7 km/h (2 Bft) O-NO 61 1 min 0,000 mm 4,9 UV-I 845 W/m 9,3 C 20,3 C 11,3 km/h (2 Bft) 100,00 %
21.05.2016 14:43 21,1 C 44 % 1017,9 hPa 0,0 l/m 5,1 km/h (1 Bft) NO 52 1 min 0,000 mm 4,9 UV-I 848 W/m 8,4 C 21,1 C 9,7 km/h (2 Bft) 100,00 %
21.05.2016 14:44 21,1 C 46 % 1017,9 hPa 0,0 l/m 4,5 km/h (1 Bft) O 93 1 min 0,000 mm 4,9 UV-I 843 W/m 9,0 C 21,1 C 6,4 km/h (2 Bft) 100,00 %
21.05.2016 14:45 21,1 C 45 % 1017,9 hPa 0,0 l/m 4,6 km/h (1 Bft) O 96 1 min 0,000 mm 4,9 UV-I 852 W/m 8,7 C 21,1 C 6,4 km/h (2 Bft) 100,00 %
21.05.2016 14:46 21,0 C 47 % 1017,9 hPa 0,0 l/m 3,2 km/h (1 Bft) O 84 1 min 0,000 mm 4,9 UV-I 852 W/m 9,3 C 21,0 C 4,8 km/h (1 Bft) 100,00 %
21.05.2016 14:47 20,9 C 50 % 1017,9 hPa 0,0 l/m 7,3 km/h (2 Bft) O-NO 61 1 min 0,000 mm 4,8 UV-I 837 W/m 10,1 C 20,6 C 9,7 km/h (2 Bft) 100,00 %
21.05.2016 14:48 21,0 C 50 % 1017,8 hPa 0,0 l/m 7,4 km/h (2 Bft) O-NO 65 1 min 0,000 mm 4,8 UV-I 826 W/m 10,2 C 20,6 C 9,7 km/h (2 Bft) 100,00 %
21.05.2016 14:49 21,1 C 47 % 1017,9 hPa 0,0 l/m 6,8 km/h (2 Bft) O-NO 57 1 min 0,000 mm 4,8 UV-I 818 W/m 9,3 C 21,0 C 9,7 km/h (2 Bft) 100,00 %
21.05.2016 14:50 21,1 C 46 % 1017,8 hPa 0,0 l/m 4,1 km/h (1 Bft) O-NO 61 1 min 0,000 mm 4,7 UV-I 818 W/m 9,0 C 21,1 C 6,4 km/h (2 Bft) 100,00 %
21.05.2016 14:51 21,0 C 45 % 1017,8 hPa 0,0 l/m 3,5 km/h (1 Bft) O-NO 78 1 min 0,000 mm 4,8 UV-I 832 W/m 8,6 C 21,0 C 6,4 km/h (2 Bft) 95,83 %
21.05.2016 14:52 20,9 C 46 % 1017,8 hPa 0,0 l/m 4,8 km/h (1 Bft) NO 40 1 min 0,000 mm 4,7 UV-I 838 W/m 8,8 C 20,9 C 8,0 km/h (2 Bft) 100,00 %
21.05.2016 14:53 21,0 C 44 % 1017,8 hPa 0,0 l/m 5,7 km/h (1 Bft) O-NO 62 1 min 0,000 mm 4,7 UV-I 832 W/m 8,3 C 21,0 C 8,0 km/h (2 Bft) 100,00 %
21.05.2016 14:54 21,0 C 45 % 1017,8 hPa 0,0 l/m 6,0 km/h (2 Bft) NO 53 1 min 0,000 mm 4,7 UV-I 841 W/m 8,6 C 21,0 C 8,0 km/h (2 Bft) 100,00 %
21.05.2016 14:55 21,1 C 47 % 1017,8 hPa 0,0 l/m 6,7 km/h (2 Bft) NO 55 1 min 0,000 mm 4,7 UV-I 851 W/m 9,3 C 21,0 C 8,0 km/h (2 Bft) 100,00 %
21.05.2016 14:56 21,1 C 47 % 1017,8 hPa 0,0 l/m 5,0 km/h (1 Bft) O-NO 70 1 min 0,000 mm 4,7 UV-I 850 W/m 9,3 C 21,1 C 6,4 km/h (2 Bft) 96,88 %
21.05.2016 14:57 21,1 C 45 % 1017,8 hPa 0,0 l/m 2,4 km/h (1 Bft) O-NO 69 1 min 0,000 mm 4,8 UV-I 855 W/m 8,7 C 21,1 C 3,2 km/h (1 Bft) 100,00 %
21.05.2016 14:58 21,0 C 45 % 1017,8 hPa 0,0 l/m 1,9 km/h (1 Bft) O-NO 70 1 min 0,000 mm 4,7 UV-I 860 W/m 8,6 C 21,0 C 3,2 km/h (1 Bft) 100,00 %
21.05.2016 14:59 21,0 C 46 % 1017,8 hPa 0,0 l/m 1,5 km/h (1 Bft) N-NW 348 1 min 0,000 mm 4,7 UV-I 854 W/m 8,9 C 21,0 C 3,2 km/h (1 Bft) 100,00 %
21.05.2016 15:00 21,1 C 51 % 1017,8 hPa 0,0 l/m 2,5 km/h (1 Bft) NO 47 1 min 0,508 mm 4,6 UV-I 812 W/m 10,6 C 21,1 C 4,8 km/h (1 Bft) 100,00 %
21.05.2016 15:01 21,1 C 53 % 1017,8 hPa 0,0 l/m 3,8 km/h (1 Bft) NO 53 1 min 0,000 mm 4,3 UV-I 795 W/m 11,1 C 21,1 C 4,8 km/h (1 Bft) 100,00 %
21.05.2016 15:02 21,2 C 51 % 1017,8 hPa 0,0 l/m 3,4 km/h (1 Bft) N-NO 24 1 min 0,000 mm 4,4 UV-I 760 W/m 10,7 C 21,2 C 4,8 km/h (1 Bft) 100,00 %
21.05.2016 15:03 21,2 C 50 % 1017,8 hPa 0,0 l/m 4,3 km/h (1 Bft) NO 42 1 min 0,000 mm 4,5 UV-I 793 W/m 10,4 C 21,2 C 6,4 km/h (2 Bft) 100,00 %
21.05.2016 15:04 21,2 C 48 % 1017,8 hPa 0,0 l/m 5,4 km/h (1 Bft) O-NO 67 1 min 0,000 mm 4,4 UV-I 824 W/m 9,7 C 21,2 C 8,0 km/h (2 Bft) 100,00 %
21.05.2016 15:05 21,2 C 50 % 1017,8 hPa 0,0 l/m 7,3 km/h (2 Bft) NO 53 1 min 0,000 mm 4,1 UV-I 790 W/m 10,4 C 20,9 C 9,7 km/h (2 Bft) 100,00 %
21.05.2016 15:06 21,3 C 48 % 1017,8 hPa 0,0 l/m 8,8 km/h (2 Bft) NO 43 1 min 0,000 mm 4,4 UV-I 745 W/m 9,8 C 20,4 C 11,3 km/h (2 Bft) 100,00 %
21.05.2016 15:07 21,3 C 50 % 1017,8 hPa 0,0 l/m 6,6 km/h (2 Bft) NO 51 1 min 0,000 mm 4,2 UV-I 753 W/m 10,4 C 21,2 C 9,7 km/h (2 Bft) 100,00 %
21.05.2016 15:08 21,3 C 49 % 1017,8 hPa 0,0 l/m 4,6 km/h (1 Bft) O 100 1 min 0,000 mm 4,2 UV-I 740 W/m 10,1 C 21,3 C 9,7 km/h (2 Bft) 100,00 %
21.05.2016 15:09 21,4 C 50 % 1017,8 hPa 0,0 l/m 6,1 km/h (2 Bft) NO 53 1 min 0,000 mm 4,1 UV-I 709 W/m 10,5 C 21,4 C 9,7 km/h (2 Bft) 100,00 %
21.05.2016 15:10 21,4 C 50 % 1017,8 hPa 0,0 l/m 7,0 km/h (2 Bft) N-NO 30 1 min 0,000 mm 4,0 UV-I 722 W/m 10,5 C 21,2 C 9,7 km/h (2 Bft) 100,00 %
21.05.2016 15:11 21,5 C 54 % 1017,8 hPa 0,0 l/m 5,6 km/h (1 Bft) NO 45 1 min 0,000 mm 4,0 UV-I 689 W/m 11,8 C 21,5 C 8,0 km/h (2 Bft) 100,00 %
21.05.2016 15:12 21,6 C 52 % 1017,8 hPa 0,0 l/m 4,9 km/h (1 Bft) O 94 1 min 0,000 mm 3,8 UV-I 676 W/m 11,3 C 21,6 C 11,3 km/h (2 Bft) 100,00 %
21.05.2016 15:13 21,7 C 51 % 1017,8 hPa 0,0 l/m 8,9 km/h (2 Bft) O-NO 65 1 min 0,000 mm 3,5 UV-I 683 W/m 11,1 C 20,8 C 12,9 km/h (3 Bft) 100,00 %
21.05.2016 15:14 21,6 C 45 % 1017,7 hPa 0,0 l/m 8,1 km/h (2 Bft) O-NO 62 1 min 0,000 mm 3,8 UV-I 673 W/m 9,2 C 21,0 C 9,7 km/h (2 Bft) 100,00 %
21.05.2016 15:15 21,4 C 46 % 1017,7 hPa 0,0 l/m 7,3 km/h (2 Bft) NO 43 1 min 0,000 mm 3,8 UV-I 670 W/m 9,3 C 21,1 C 9,7 km/h (2 Bft) 92,86 %
21.05.2016 15:16 21,4 C 48 % 1017,7 hPa 0,0 l/m 8,5 km/h (2 Bft) NO 44 1 min 0,000 mm 3,8 UV-I 693 W/m 9,9 C 20,7 C 14,5 km/h (3 Bft) 100,00 %
21.05.2016 15:17 21,4 C 45 % 1017,7 hPa 0,0 l/m 7,4 km/h (2 Bft) NO 44 1 min 0,000 mm 3,6 UV-I 644 W/m 9,0 C 21,0 C 12,9 km/h (3 Bft) 96,88 %
21.05.2016 15:18 21,3 C 46 % 1017,7 hPa 0,0 l/m 5,1 km/h (1 Bft) NO 45 1 min 0,000 mm 3,6 UV-I 666 W/m 9,2 C 21,3 C 8,0 km/h (2 Bft) 95,83 %
21.05.2016 15:19 21,3 C 50 % 1017,7 hPa 0,0 l/m 4,8 km/h (1 Bft) NO 56 1 min 0,000 mm 3,3 UV-I 621 W/m 10,4 C 21,3 C 8,0 km/h (2 Bft) 100,00 %
21.05.2016 15:20 21,2 C 44 % 1017,7 hPa 0,0 l/m 1,9 km/h (1 Bft) NO 56 1 min 0,000 mm 3,4 UV-I 621 W/m 8,5 C 21,2 C 3,2 km/h (1 Bft) 95,83 %
21.05.2016 15:21 21,1 C 47 % 1017,7 hPa 0,0 l/m 3,9 km/h (1 Bft) O-NO 68 1 min 0,000 mm 3,6 UV-I 648 W/m 9,3 C 21,1 C 4,8 km/h (1 Bft) 100,00 %
21.05.2016 15:22 21,1 C 47 % 1017,7 hPa 0,0 l/m 5,4 km/h (1 Bft) O 90 1 min 0,000 mm 3,7 UV-I 703 W/m 9,3 C 21,1 C 11,3 km/h (2 Bft) 96,30 %
21.05.2016 15:23 21,0 C 45 % 1017,7 hPa 0,0 l/m 2,9 km/h (1 Bft) N-NO 29 1 min 0,000 mm 3,7 UV-I 722 W/m 8,6 C 21,0 C 4,8 km/h (1 Bft) 95,65 %
21.05.2016 15:24 21,0 C 50 % 1017,7 hPa 0,0 l/m 4,4 km/h (1 Bft) NO 40 1 min 0,000 mm 3,8 UV-I 721 W/m 10,2 C 21,0 C 6,4 km/h (2 Bft) 96,30 %
21.05.2016 15:25 21,2 C 52 % 1017,7 hPa 0,0 l/m 4,3 km/h (1 Bft) N-NO 29 1 min 0,000 mm 3,7 UV-I 725 W/m 10,9 C 21,2 C 6,4 km/h (2 Bft) 100,00 %
21.05.2016 15:26 21,2 C 50 % 1017,7 hPa 0,0 l/m 4,8 km/h (1 Bft) NO 39 1 min 0,000 mm 3,7 UV-I 728 W/m 10,4 C 21,2 C 6,4 km/h (2 Bft) 92,31 %
21.05.2016 15:27 21,3 C 49 % 1017,7 hPa 0,0 l/m 4,7 km/h (1 Bft) NO 34 1 min 0,000 mm 3,7 UV-I 652 W/m 10,1 C 21,3 C 8,0 km/h (2 Bft) 96,55 %
21.05.2016 15:28 21,3 C 52 % 1017,7 hPa 0,0 l/m 7,6 km/h (2 Bft) NO 46 1 min 0,000 mm 3,5 UV-I 610 W/m 11,0 C 20,9 C 9,7 km/h (2 Bft) 100,00 %
21.05.2016 15:29 21,3 C 54 % 1017,6 hPa 0,0 l/m 6,7 km/h (2 Bft) O-NO 57 1 min 0,000 mm 3,2 UV-I 568 W/m 11,6 C 21,2 C 9,7 km/h (2 Bft) 95,65 %
21.05.2016 15:30 21,3 C 48 % 1017,7 hPa 0,0 l/m 5,7 km/h (1 Bft) O-NO 64 1 min 0,000 mm 3,1 UV-I 577 W/m 9,8 C 21,3 C 8,0 km/h (2 Bft) 100,00 %
21.05.2016 15:31 21,3 C 46 % 1017,6 hPa 0,0 l/m 2,8 km/h (1 Bft) O-NO 66 1 min 0,000 mm 2,8 UV-I 521 W/m 9,2 C 21,3 C 4,8 km/h (1 Bft) 96,30 %
21.05.2016 15:32 21,2 C 48 % 1017,7 hPa 0,0 l/m 7,1 km/h (2 Bft) O-SO 107 1 min 0,000 mm 3,0 UV-I 516 W/m 9,7 C 20,9 C 9,7 km/h (2 Bft) 96,15 %
21.05.2016 15:33 21,2 C 45 % 1017,7 hPa 0,0 l/m 6,3 km/h (2 Bft) O-NO 78 1 min 0,000 mm 3,0 UV-I 478 W/m 8,8 C 21,2 C 8,0 km/h (2 Bft) 100,00 %
21.05.2016 15:34 21,1 C 46 % 1017,6 hPa 0,0 l/m 5,2 km/h (1 Bft) O 80 0 min 0,000 mm 2,7 UV-I 399 W/m 9,0 C 21,1 C 6,4 km/h (2 Bft) 92,31 %
21.05.2016 15:35 21,1 C 47 % 1017,6 hPa 0,0 l/m 3,8 km/h (1 Bft) O 94 0 min 0,000 mm 2,5 UV-I 382 W/m 9,3 C 21,1 C 6,4 km/h (2 Bft) 100,00 %
21.05.2016 15:36 21,1 C 47 % 1017,6 hPa 0,0 l/m 4,0 km/h (1 Bft) O 84 1 min 0,000 mm 2,8 UV-I 451 W/m 9,3 C 21,1 C 4,8 km/h (1 Bft) 91,30 %
21.05.2016 15:37 21,0 C 47 % 1017,6 hPa 0,0 l/m 2,3 km/h (1 Bft) O 82 1 min 0,000 mm 2,8 UV-I 454 W/m 9,3 C 21,0 C 4,8 km/h (1 Bft) 96,30 %
21.05.2016 15:38 21,0 C 52 % 1017,6 hPa 0,0 l/m 5,2 km/h (1 Bft) NO 47 1 min 0,000 mm 2,8 UV-I 467 W/m 10,8 C 21,0 C 6,4 km/h (2 Bft) 95,65 %
21.05.2016 15:39 20,9 C 52 % 1017,6 hPa 0,0 l/m 5,5 km/h (1 Bft) N 10 1 min 0,000 mm 3,1 UV-I 454 W/m 10,7 C 20,9 C 8,0 km/h (2 Bft) 100,00 %
21.05.2016 15:40 20,9 C 55 % 1017,6 hPa 0,0 l/m 3,1 km/h (1 Bft) N 355 1 min 0,000 mm 3,0 UV-I 449 W/m 11,5 C 20,9 C 4,8 km/h (1 Bft) 92,86 %
21.05.2016 15:41 20,8 C 51 % 1017,6 hPa 0,0 l/m 5,2 km/h (1 Bft) N-NO 25 1 min 0,000 mm 3,0 UV-I 471 W/m 10,3 C 20,8 C 8,0 km/h (2 Bft) 100,00 %
21.05.2016 15:42 20,7 C 53 % 1017,6 hPa 0,0 l/m 7,4 km/h (2 Bft) N-NO 29 1 min 0,000 mm 3,3 UV-I 471 W/m 10,8 C 20,3 C 11,3 km/h (2 Bft) 94,12 %
21.05.2016 15:43 20,7 C 54 % 1017,6 hPa 0,0 l/m 7,0 km/h (2 Bft) NO 37 1 min 0,000 mm 3,3 UV-I 612 W/m 11,1 C 20,5 C 9,7 km/h (2 Bft) 96,55 %
21.05.2016 15:44 20,9 C 55 % 1017,6 hPa 0,0 l/m 4,4 km/h (1 Bft) N-NO 19 1 min 0,000 mm 3,3 UV-I 729 W/m 11,5 C 20,9 C 6,4 km/h (2 Bft) 100,00 %
21.05.2016 15:45 21,0 C 58 % 1017,5 hPa 0,0 l/m 1,9 km/h (1 Bft) N-NO 30 1 min 0,000 mm 3,5 UV-I 714 W/m 12,4 C 21,0 C 4,8 km/h (1 Bft) 96,88 %
21.05.2016 15:46 21,1 C 53 % 1017,6 hPa 0,0 l/m 6,1 km/h (2 Bft) N-NO 13 1 min 0,000 mm 3,5 UV-I 694 W/m 11,1 C 21,1 C 8,0 km/h (2 Bft) 100,00 %
21.05.2016 15:47 21,1 C 54 % 1017,5 hPa 0,0 l/m 5,6 km/h (1 Bft) NO 40 1 min 0,000 mm 3,6 UV-I 748 W/m 11,4 C 21,1 C 8,0 km/h (2 Bft) 96,55 %
21.05.2016 15:48 21,2 C 53 % 1017,5 hPa 0,0 l/m 7,6 km/h (2 Bft) N-NO 24 1 min 0,000 mm 3,6 UV-I 771 W/m 11,2 C 20,8 C 9,7 km/h (2 Bft) 100,00 %
21.05.2016 15:49 21,3 C 49 % 1017,5 hPa 0,0 l/m 3,6 km/h (1 Bft) N-NO 20 1 min 0,000 mm 3,7 UV-I 771 W/m 10,1 C 21,3 C 9,7 km/h (2 Bft) 100,00 %
21.05.2016 15:50 21,4 C 53 % 1017,5 hPa 0,0 l/m 4,2 km/h (1 Bft) N-NO 32 1 min 0,000 mm 3,4 UV-I 766 W/m 11,4 C 21,4 C 6,4 km/h (2 Bft) 88,46 %
21.05.2016 15:51 21,4 C 55 % 1017,5 hPa 0,0 l/m 2,9 km/h (1 Bft) N-NO 19 1 min 0,000 mm 3,5 UV-I 761 W/m 12,0 C 21,4 C 4,8 km/h (1 Bft) 100,00 %
21.05.2016 15:52 21,4 C 55 % 1017,4 hPa 0,0 l/m 1,4 km/h (1 Bft) N 5 1 min 0,000 mm 3,5 UV-I 736 W/m 12,0 C 21,4 C 3,2 km/h (1 Bft) 100,00 %
21.05.2016 15:53 21,3 C 52 % 1017,5 hPa 0,0 l/m 1,1 km/h (1 Bft) N 5 1 min 0,000 mm 3,5 UV-I 716 W/m 11,0 C 21,3 C 3,2 km/h (1 Bft) 100,00 %
21.05.2016 15:54 21,4 C 52 % 1017,5 hPa 0,0 l/m 1,0 km/h (0 Bft) N 5 1 min 0,000 mm 3,4 UV-I 709 W/m 11,1 C 21,4 C 3,2 km/h (1 Bft) 100,00 %
21.05.2016 15:55 21,3 C 48 % 1017,5 hPa 0,0 l/m 2,9 km/h (1 Bft) NO 43 1 min 0,000 mm 3,2 UV-I 686 W/m 9,8 C 21,3 C 4,8 km/h (1 Bft) 100,00 %
21.05.2016 15:56 21,3 C 51 % 1017,4 hPa 0,0 l/m 4,8 km/h (1 Bft) N 5 1 min 0,000 mm 3,1 UV-I 659 W/m 10,7 C 21,3 C 6,4 km/h (2 Bft) 96,30 %
21.05.2016 15:57 21,3 C 50 % 1017,4 hPa 0,0 l/m 4,1 km/h (1 Bft) NO 42 1 min 0,000 mm 3,1 UV-I 630 W/m 10,4 C 21,3 C 6,4 km/h (2 Bft) 98,69 %
21.05.2016 15:58 21,3 C 54 % 1017,4 hPa 0,0 l/m 1,1 km/h (1 Bft) NO 48 1 min 0,000 mm 3,2 UV-I 668 W/m 11,6 C 21,3 C 1,6 km/h (1 Bft) 100,00 %
21.05.2016 15:59 21,3 C 52 % 1017,4 hPa 0,0 l/m 3,3 km/h (1 Bft) N-NW 329 1 min 0,000 mm 2,6 UV-I 668 W/m 11,0 C 21,3 C 4,8 km/h (1 Bft) 100,00 %
21.05.2016 16:00 21,2 C 53 % 1017,4 hPa 0,0 l/m 1,6 km/h (1 Bft) N-NW 329 1 min 0,000 mm 2,7 UV-I 668 W/m 11,2 C 21,2 C 3,2 km/h (1 Bft) 100,00 %
21.05.2016 16:02 21,1 C 56 % 1017,4 hPa 0,0 l/m 2,3 km/h (1 Bft) N-NW 342 2 min 0,407 mm 3,1 UV-I 637 W/m 12,0 C 21,1 C 4,8 km/h (1 Bft) 100,00 %
21.05.2016 16:03 21,1 C 50 % 1017,3 hPa 0,0 l/m 4,4 km/h (1 Bft) N-NO 13 1 min 0,000 mm 3,1 UV-I 629 W/m 10,3 C 21,1 C 11,3 km/h (2 Bft) 100,00 %
21.05.2016 16:04 21,1 C 56 % 1017,4 hPa 0,0 l/m 4,3 km/h (1 Bft) N-NO 14 1 min 0,000 mm 3,1 UV-I 663 W/m 12,0 C 21,1 C 6,4 km/h (2 Bft) 100,00 %
21.05.2016 16:05 21,1 C 53 % 1017,3 hPa 0,0 l/m 1,7 km/h (1 Bft) N-NW 342 1 min 0,000 mm 3,1 UV-I 665 W/m 11,1 C 21,1 C 3,2 km/h (1 Bft) 100,00 %
21.05.2016 16:06 21,2 C 55 % 1017,4 hPa 0,0 l/m 3,6 km/h (1 Bft) N-NW 338 1 min 0,000 mm 3,1 UV-I 672 W/m 11,8 C 21,2 C 4,8 km/h (1 Bft) 100,00 %
21.05.2016 16:07 21,2 C 55 % 1017,4 hPa 0,0 l/m 2,7 km/h (1 Bft) W-NW 302 1 min 0,000 mm 3,1 UV-I 666 W/m 11,8 C 21,2 C 4,8 km/h (1 Bft) 100,00 %
21.05.2016 16:08 21,2 C 53 % 1017,3 hPa 0,0 l/m 4,2 km/h (1 Bft) N-NW 344 1 min 0,000 mm 3,1 UV-I 674 W/m 11,2 C 21,2 C 6,4 km/h (2 Bft) 100,00 %
21.05.2016 16:09 21,1 C 51 % 1017,3 hPa 0,0 l/m 2,7 km/h (1 Bft) NW 324 1 min 0,000 mm 2,7 UV-I 658 W/m 10,6 C 21,1 C 6,4 km/h (2 Bft) 100,00 %
21.05.2016 16:10 21,2 C 46 % 1017,3 hPa 0,0 l/m 2,2 km/h (1 Bft) NO 55 1 min 0,000 mm 2,7 UV-I 654 W/m 9,1 C 21,2 C 6,4 km/h (2 Bft) 100,00 %
21.05.2016 16:11 21,2 C 52 % 1017,4 hPa 0,0 l/m 9,0 km/h (2 Bft) NO 42 1 min 0,000 mm 2,9 UV-I 654 W/m 10,9 C 20,3 C 12,9 km/h (3 Bft) 100,00 %
21.05.2016 16:12 21,2 C 47 % 1017,3 hPa 0,0 l/m 7,6 km/h (2 Bft) NO 42 1 min 0,000 mm 2,7 UV-I 610 W/m 9,4 C 20,8 C 9,7 km/h (2 Bft) 100,00 %
21.05.2016 16:13 21,2 C 46 % 1017,3 hPa 0,0 l/m 5,8 km/h (2 Bft) NO 49 1 min 0,000 mm 2,6 UV-I 576 W/m 9,1 C 21,2 C 9,7 km/h (2 Bft) 100,00 %
21.05.2016 16:14 21,1 C 47 % 1017,3 hPa 0,0 l/m 2,8 km/h (1 Bft) NO 49 1 min 0,000 mm 2,8 UV-I 575 W/m 9,3 C 21,1 C 3,2 km/h (1 Bft) 100,00 %
21.05.2016 16:15 21,1 C 50 % 1017,3 hPa 0,0 l/m 2,2 km/h (1 Bft) NO 48 1 min 0,000 mm 2,7 UV-I 573 W/m 10,3 C 21,1 C 4,8 km/h (1 Bft) 100,00 %
21.05.2016 16:16 21,2 C 59 % 1017,2 hPa 0,0 l/m 2,3 km/h (1 Bft) NW 322 1 min 0,000 mm 2,3 UV-I 554 W/m 12,9 C 21,2 C 4,8 km/h (1 Bft) 100,00 %
21.05.2016 16:17 21,2 C 53 % 1017,2 hPa 0,0 l/m 2,2 km/h (1 Bft) N-NW 340 1 min 0,000 mm 2,7 UV-I 551 W/m 11,2 C 21,2 C 3,2 km/h (1 Bft) 100,00 %
21.05.2016 16:18 21,2 C 52 % 1017,2 hPa 0,0 l/m 1,2 km/h (1 Bft) N-NO 17 1 min 0,000 mm 2,5 UV-I 533 W/m 10,9 C 21,2 C 3,2 km/h (1 Bft) 100,00 %
21.05.2016 16:19 21,1 C 52 % 1017,2 hPa 0,0 l/m 3,0 km/h (1 Bft) N-NW 348 1 min 0,000 mm 2,3 UV-I 530 W/m 10,9 C 21,1 C 4,8 km/h (1 Bft) 100,00 %
21.05.2016 16:20 21,2 C 49 % 1017,2 hPa 0,0 l/m 3,9 km/h (1 Bft) NW 326 1 min 0,000 mm 2,2 UV-I 542 W/m 10,1 C 21,2 C 11,3 km/h (2 Bft) 100,00 %
21.05.2016 16:21 21,2 C 49 % 1017,2 hPa 0,0 l/m 4,8 km/h (1 Bft) N 10 1 min 0,000 mm 2,1 UV-I 543 W/m 10,1 C 21,2 C 8,0 km/h (2 Bft) 100,00 %
21.05.2016 16:22 21,2 C 56 % 1017,2 hPa 0,0 l/m 3,0 km/h (1 Bft) N-NW 340 1 min 0,000 mm 2,3 UV-I 546 W/m 12,1 C 21,2 C 4,8 km/h (1 Bft) 100,00 %
21.05.2016 16:23 21,2 C 55 % 1017,2 hPa 0,0 l/m 3,9 km/h (1 Bft) NO 44 1 min 0,000 mm 2,6 UV-I 582 W/m 11,8 C 21,2 C 9,7 km/h (2 Bft) 91,67 %
21.05.2016 16:24 21,2 C 53 % 1017,2 hPa 0,0 l/m 4,2 km/h (1 Bft) NO 44 1 min 0,000 mm 2,7 UV-I 623 W/m 11,2 C 21,2 C 8,0 km/h (2 Bft) 100,00 %
21.05.2016 16:25 21,3 C 48 % 1017,2 hPa 0,0 l/m 3,1 km/h (1 Bft) NO 44 1 min 0,000 mm 2,7 UV-I 617 W/m 9,8 C 21,3 C 3,2 km/h (1 Bft) 100,00 %
21.05.2016 16:26 21,4 C 46 % 1017,2 hPa 0,0 l/m 1,7 km/h (1 Bft) NO 44 1 min 0,000 mm 2,7 UV-I 628 W/m 9,3 C 21,4 C 3,2 km/h (1 Bft) 100,00 %
21.05.2016 16:27 21,4 C 45 % 1017,2 hPa 0,0 l/m 0,4 km/h (0 Bft) NO 44 1 min 0,000 mm 2,6 UV-I 607 W/m 9,0 C 21,4 C 1,6 km/h (1 Bft) 100,00 %
21.05.2016 16:28 21,4 C 45 % 1017,2 hPa 0,0 l/m 0,4 km/h (0 Bft) NO 44 1 min 0,000 mm 2,6 UV-I 588 W/m 9,0 C 21,4 C 1,6 km/h (1 Bft) 100,00 %
21.05.2016 16:29 21,4 C 50 % 1017,2 hPa 0,0 l/m 3,9 km/h (1 Bft) NO 46 1 min 0,000 mm 2,6 UV-I 575 W/m 10,5 C 21,4 C 9,7 km/h (2 Bft) 100,00 %
21.05.2016 16:30 21,4 C 51 % 1017,1 hPa 0,0 l/m 6,4 km/h (2 Bft) N-NO 26 1 min 0,000 mm 2,5 UV-I 571 W/m 10,8 C 21,4 C 8,0 km/h (2 Bft) 100,00 %
21.05.2016 16:31 21,6 C 49 % 1017,1 hPa 0,0 l/m 5,4 km/h (1 Bft) NO 49 1 min 0,000 mm 2,5 UV-I 569 W/m 10,4 C 21,6 C 6,4 km/h (2 Bft) 100,00 %
21.05.2016 16:32 21,6 C 52 % 1017,1 hPa 0,0 l/m 5,2 km/h (1 Bft) N-NO 19 1 min 0,000 mm 2,5 UV-I 575 W/m 11,3 C 21,6 C 8,0 km/h (2 Bft) 100,00 %
21.05.2016 16:33 21,7 C 54 % 1017,1 hPa 0,0 l/m 7,0 km/h (2 Bft) NO 39 1 min 0,000 mm 2,5 UV-I 585 W/m 12,0 C 21,5 C 9,7 km/h (2 Bft) 100,00 %
21.05.2016 16:34 21,7 C 46 % 1017,1 hPa 0,0 l/m 5,8 km/h (2 Bft) O-NO 58 1 min 0,000 mm 2,5 UV-I 598 W/m 9,6 C 21,7 C 6,4 km/h (2 Bft) 100,00 %
21.05.2016 16:35 21,7 C 46 % 1017,0 hPa 0,0 l/m 5,4 km/h (1 Bft) O-NO 61 1 min 0,000 mm 2,4 UV-I 572 W/m 9,6 C 21,7 C 8,0 km/h (2 Bft) 100,00 %
21.05.2016 16:36 21,8 C 48 % 1017,0 hPa 0,0 l/m 6,4 km/h (2 Bft) O 100 1 min 0,000 mm 2,5 UV-I 562 W/m 10,3 C 21,8 C 11,3 km/h (2 Bft) 100,00 %
21.05.2016 16:37 21,8 C 44 % 1017,0 hPa 0,0 l/m 7,4 km/h (2 Bft) O-SO 118 1 min 0,000 mm 2,4 UV-I 575 W/m 9,0 C 21,4 C 12,9 km/h (3 Bft) 100,00 %
21.05.2016 16:38 21,8 C 47 % 1017,0 hPa 0,0 l/m 6,0 km/h (2 Bft) O 91 1 min 0,000 mm 2,4 UV-I 582 W/m 10,0 C 21,8 C 9,7 km/h (2 Bft) 100,00 %
21.05.2016 16:39 21,7 C 43 % 1017,0 hPa 0,0 l/m 5,8 km/h (2 Bft) O-SO 115 1 min 0,000 mm 2,4 UV-I 598 W/m 8,6 C 21,7 C 6,4 km/h (2 Bft) 100,00 %
21.05.2016 16:40 21,7 C 45 % 1016,9 hPa 0,0 l/m 3,3 km/h (1 Bft) O-NO 75 1 min 0,000 mm 2,4 UV-I 588 W/m 9,2 C 21,7 C 4,8 km/h (1 Bft) 100,00 %
21.05.2016 16:41 21,7 C 48 % 1016,9 hPa 0,0 l/m 4,0 km/h (1 Bft) NO 34 1 min 0,000 mm 2,4 UV-I 614 W/m 10,2 C 21,7 C 8,0 km/h (2 Bft) 100,00 %
21.05.2016 16:42 21,7 C 47 % 1017,0 hPa 0,0 l/m 2,2 km/h (1 Bft) N-NO 21 1 min 0,000 mm 2,4 UV-I 624 W/m 9,9 C 21,7 C 3,2 km/h (1 Bft) 95,83 %
21.05.2016 16:43 21,7 C 54 % 1016,9 hPa 0,0 l/m 0,2 km/h (0 Bft) N-NO 13 1 min 0,000 mm 2,4 UV-I 619 W/m 12,0 C 21,7 C 1,6 km/h (1 Bft) 100,00 %
21.05.2016 16:44 21,7 C 57 % 1016,9 hPa 0,0 l/m 1,3 km/h (1 Bft) N-NO 13 1 min 0,000 mm 2,4 UV-I 614 W/m 12,8 C 21,7 C 3,2 km/h (1 Bft) 100,00 %
21.05.2016 16:45 21,7 C 47 % 1016,9 hPa 0,0 l/m 2,2 km/h (1 Bft) NW 325 1 min 0,000 mm 2,3 UV-I 620 W/m 9,9 C 21,7 C 3,2 km/h (1 Bft) 100,00 %
21.05.2016 16:46 21,6 C 51 % 1016,9 hPa 0,0 l/m 2,0 km/h (1 Bft) N 360 1 min 0,000 mm 2,3 UV-I 604 W/m 11,0 C 21,6 C 3,2 km/h (1 Bft) 100,00 %
21.05.2016 16:47 21,6 C 47 % 1016,9 hPa 0,0 l/m 1,0 km/h (0 Bft) N 11 1 min 0,000 mm 2,3 UV-I 598 W/m 9,8 C 21,6 C 3,2 km/h (1 Bft) 100,00 %
21.05.2016 16:48 21,6 C 51 % 1016,9 hPa 0,0 l/m 4,4 km/h (1 Bft) NO 48 1 min 0,000 mm 2,2 UV-I 578 W/m 11,0 C 21,6 C 6,4 km/h (2 Bft) 100,00 %
21.05.2016 16:49 21,7 C 45 % 1016,9 hPa 0,0 l/m 3,0 km/h (1 Bft) NO 48 1 min 0,000 mm 2,2 UV-I 566 W/m 9,2 C 21,7 C 4,8 km/h (1 Bft) 100,00 %
21.05.2016 16:50 21,7 C 44 % 1016,9 hPa 0,0 l/m 1,7 km/h (1 Bft) NO 45 1 min 0,000 mm 2,1 UV-I 541 W/m 8,9 C 21,7 C 3,2 km/h (1 Bft) 100,00 %
21.05.2016 16:51 21,7 C 44 % 1016,9 hPa 0,0 l/m 5,7 km/h (1 Bft) N-NO 24 1 min 0,000 mm 2,1 UV-I 554 W/m 8,9 C 21,7 C 9,7 km/h (2 Bft) 95,83 %
21.05.2016 16:52 21,6 C 48 % 1016,9 hPa 0,0 l/m 1,8 km/h (1 Bft) N-NO 25 1 min 0,000 mm 2,1 UV-I 551 W/m 10,1 C 21,6 C 3,2 km/h (1 Bft) 96,55 %
21.05.2016 16:53 21,6 C 47 % 1016,9 hPa 0,0 l/m 0,7 km/h (0 Bft) N-NO 25 1 min 0,000 mm 2,1 UV-I 543 W/m 9,8 C 21,6 C 1,6 km/h (1 Bft) 95,83 %
21.05.2016 16:54 21,6 C 49 % 1016,9 hPa 0,0 l/m 1,1 km/h (1 Bft) N-NO 13 1 min 0,000 mm 2,1 UV-I 530 W/m 10,4 C 21,6 C 1,6 km/h (1 Bft) 100,00 %
21.05.2016 16:55 21,6 C 51 % 1016,9 hPa 0,0 l/m 0,8 km/h (0 Bft) N-NO 13 1 min 0,000 mm 2,1 UV-I 557 W/m 11,0 C 21,6 C 1,6 km/h (1 Bft) 100,00 %
21.05.2016 16:56 21,6 C 47 % 1016,9 hPa 0,0 l/m 1,4 km/h (1 Bft) N 11 1 min 0,000 mm 2,1 UV-I 580 W/m 9,8 C 21,6 C 3,2 km/h (1 Bft) 100,00 %
21.05.2016 16:57 21,6 C 45 % 1016,9 hPa 0,0 l/m 0,7 km/h (0 Bft) N 11 1 min 0,000 mm 2,1 UV-I 574 W/m 9,2 C 21,6 C 1,6 km/h (1 Bft) 100,00 %
21.05.2016 16:58 21,6 C 46 % 1016,9 hPa 0,0 l/m 0,4 km/h (0 Bft) N 11 1 min 0,000 mm 2,0 UV-I 556 W/m 9,5 C 21,6 C 1,6 km/h (1 Bft) 96,15 %
21.05.2016 16:59 21,7 C 50 % 1016,9 hPa 0,0 l/m 3,6 km/h (1 Bft) NO 36 1 min 0,000 mm 1,9 UV-I 518 W/m 10,8 C 21,7 C 8,0 km/h (2 Bft) 98,76 %
21.05.2016 17:00 21,8 C 47 % 1016,9 hPa 0,0 l/m 7,3 km/h (2 Bft) NO 44 1 min 0,000 mm 1,9 UV-I 520 W/m 10,0 C 21,5 C 9,7 km/h (2 Bft) 100,00 %
21.05.2016 17:02 21,7 C 47 % 1016,9 hPa 0,0 l/m 6,0 km/h (2 Bft) NO 48 2 min 0,381 mm 1,9 UV-I 490 W/m 9,9 C 21,7 C 9,7 km/h (2 Bft) 100,00 %
21.05.2016 17:03 21,7 C 49 % 1016,9 hPa 0,0 l/m 4,8 km/h (1 Bft) NO 35 1 min 0,000 mm 1,9 UV-I 432 W/m 10,5 C 21,7 C 9,7 km/h (2 Bft) 95,83 %
21.05.2016 17:04 21,6 C 50 % 1016,8 hPa 0,0 l/m 6,3 km/h (2 Bft) N-NO 14 1 min 0,000 mm 1,8 UV-I 448 W/m 10,7 C 21,6 C 9,7 km/h (2 Bft) 100,00 %
21.05.2016 17:05 21,6 C 47 % 1016,8 hPa 0,0 l/m 4,8 km/h (1 Bft) N-NO 30 1 min 0,000 mm 1,8 UV-I 478 W/m 9,8 C 21,6 C 6,4 km/h (2 Bft) 100,00 %
21.05.2016 17:06 21,7 C 51 % 1016,8 hPa 0,0 l/m 7,0 km/h (2 Bft) N-NO 17 1 min 0,000 mm 1,7 UV-I 525 W/m 11,1 C 21,5 C 8,0 km/h (2 Bft) 98,77 %
21.05.2016 17:07 21,7 C 48 % 1016,8 hPa 0,0 l/m 7,6 km/h (2 Bft) NO 46 1 min 0,000 mm 1,7 UV-I 489 W/m 10,2 C 21,3 C 9,7 km/h (2 Bft) 93,18 %
21.05.2016 17:08 21,7 C 49 % 1016,8 hPa 0,0 l/m 4,3 km/h (1 Bft) N-NO 15 1 min 0,000 mm 1,8 UV-I 516 W/m 10,5 C 21,7 C 8,0 km/h (2 Bft) 100,00 %
21.05.2016 17:09 21,7 C 47 % 1016,8 hPa 0,0 l/m 5,1 km/h (1 Bft) N-NO 19 1 min 0,000 mm 1,6 UV-I 427 W/m 9,9 C 21,7 C 6,4 km/h (2 Bft) 92,31 %
21.05.2016 17:10 21,6 C 49 % 1016,8 hPa 0,0 l/m 2,0 km/h (1 Bft) N-NO 19 1 min 0,000 mm 1,6 UV-I 423 W/m 10,4 C 21,6 C 6,4 km/h (2 Bft) 100,00 %
21.05.2016 17:11 21,6 C 47 % 1016,8 hPa 0,0 l/m 7,7 km/h (2 Bft) NO 35 1 min 0,000 mm 1,7 UV-I 439 W/m 9,8 C 21,1 C 12,9 km/h (3 Bft) 86,67 %
21.05.2016 17:12 21,6 C 53 % 1016,7 hPa 0,0 l/m 3,8 km/h (1 Bft) N-NO 15 1 min 0,000 mm 1,7 UV-I 441 W/m 11,6 C 21,6 C 8,0 km/h (2 Bft) 100,00 %
21.05.2016 17:13 21,5 C 52 % 1016,7 hPa 0,0 l/m 8,7 km/h (2 Bft) N-NO 13 1 min 0,000 mm 1,7 UV-I 493 W/m 11,2 C 20,7 C 14,5 km/h (3 Bft) 95,65 %
21.05.2016 17:14 21,4 C 51 % 1016,7 hPa 0,0 l/m 2,0 km/h (1 Bft) N 9 1 min 0,000 mm 1,8 UV-I 553 W/m 10,8 C 21,4 C 4,8 km/h (1 Bft) 100,00 %
21.05.2016 17:15 21,3 C 51 % 1016,7 hPa 0,0 l/m 5,2 km/h (1 Bft) N-NO 28 1 min 0,000 mm 1,7 UV-I 521 W/m 10,7 C 21,3 C 11,3 km/h (2 Bft) 95,65 %
21.05.2016 17:16 21,3 C 53 % 1016,7 hPa 0,0 l/m 8,6 km/h (2 Bft) N-NO 26 1 min 0,000 mm 1,7 UV-I 505 W/m 11,3 C 20,5 C 12,9 km/h (3 Bft) 96,30 %
21.05.2016 17:17 21,3 C 49 % 1016,7 hPa 0,0 l/m 2,7 km/h (1 Bft) N-NO 25 1 min 0,000 mm 1,6 UV-I 454 W/m 10,1 C 21,3 C 8,0 km/h (2 Bft) 100,00 %
21.05.2016 17:18 21,3 C 50 % 1016,7 hPa 0,0 l/m 3,6 km/h (1 Bft) O-NO 60 1 min 0,000 mm 1,6 UV-I 447 W/m 10,4 C 21,3 C 8,0 km/h (2 Bft) 95,83 %
21.05.2016 17:19 21,3 C 48 % 1016,7 hPa 0,0 l/m 5,4 km/h (1 Bft) NO 36 1 min 0,000 mm 1,6 UV-I 462 W/m 9,8 C 21,3 C 6,4 km/h (2 Bft) 100,00 %
21.05.2016 17:20 21,3 C 53 % 1016,7 hPa 0,0 l/m 3,3 km/h (1 Bft) NO 36 1 min 0,000 mm 1,5 UV-I 455 W/m 11,3 C 21,3 C 6,4 km/h (2 Bft) 95,83 %
21.05.2016 17:21 21,3 C 50 % 1016,7 hPa 0,0 l/m 5,1 km/h (1 Bft) NO 50 1 min 0,000 mm 1,6 UV-I 470 W/m 10,4 C 21,3 C 8,0 km/h (2 Bft) 96,15 %
21.05.2016 17:22 21,3 C 49 % 1016,7 hPa 0,0 l/m 5,3 km/h (1 Bft) NO 37 1 min 0,000 mm 1,5 UV-I 448 W/m 10,1 C 21,3 C 6,4 km/h (2 Bft) 95,83 %
21.05.2016 17:23 21,4 C 51 % 1016,7 hPa 0,0 l/m 6,1 km/h (2 Bft) N-NO 19 1 min 0,000 mm 1,5 UV-I 444 W/m 10,8 C 21,4 C 8,0 km/h (2 Bft) 100,00 %
21.05.2016 17:24 21,4 C 50 % 1016,7 hPa 0,0 l/m 4,0 km/h (1 Bft) N-NO 20 1 min 0,000 mm 1,4 UV-I 450 W/m 10,5 C 21,4 C 6,4 km/h (2 Bft) 92,59 %
21.05.2016 17:25 21,3 C 51 % 1016,7 hPa 0,0 l/m 4,4 km/h (1 Bft) NO 38 1 min 0,000 mm 1,4 UV-I 414 W/m 10,7 C 21,3 C 6,4 km/h (2 Bft) 96,15 %
21.05.2016 17:26 21,4 C 46 % 1016,7 hPa 0,0 l/m 3,7 km/h (1 Bft) O-NO 65 1 min 0,000 mm 1,4 UV-I 417 W/m 9,3 C 21,4 C 6,4 km/h (2 Bft) 100,00 %
21.05.2016 17:27 21,4 C 48 % 1016,7 hPa 0,0 l/m 4,2 km/h (1 Bft) NO 55 1 min 0,000 mm 1,4 UV-I 402 W/m 9,9 C 21,4 C 6,4 km/h (2 Bft) 91,67 %
21.05.2016 17:28 21,6 C 50 % 1016,7 hPa 0,0 l/m 6,4 km/h (2 Bft) O-NO 59 1 min 0,000 mm 1,3 UV-I 350 W/m 10,7 C 21,6 C 9,7 km/h (2 Bft) 100,00 %
21.05.2016 17:29 21,6 C 45 % 1016,7 hPa 0,0 l/m 6,4 km/h (2 Bft) NO 52 1 min 0,000 mm 1,3 UV-I 333 W/m 9,2 C 21,6 C 8,0 km/h (2 Bft) 93,33 %
21.05.2016 17:30 21,6 C 46 % 1016,7 hPa 0,0 l/m 6,6 km/h (2 Bft) O 80 1 min 0,000 mm 1,3 UV-I 327 W/m 9,5 C 21,5 C 9,7 km/h (2 Bft) 100,00 %
21.05.2016 17:31 21,6 C 46 % 1016,7 hPa 0,0 l/m 6,6 km/h (2 Bft) O 79 1 min 0,000 mm 1,3 UV-I 365 W/m 9,5 C 21,5 C 8,0 km/h (2 Bft) 95,83 %
21.05.2016 17:32 21,6 C 47 % 1016,7 hPa 0,0 l/m 3,6 km/h (1 Bft) O-SO 106 1 min 0,000 mm 1,3 UV-I 311 W/m 9,8 C 21,6 C 6,4 km/h (2 Bft) 100,00 %
21.05.2016 17:33 21,6 C 47 % 1016,7 hPa 0,0 l/m 4,8 km/h (1 Bft) O-NO 70 1 min 0,000 mm 1,3 UV-I 379 W/m 9,8 C 21,6 C 6,4 km/h (2 Bft) 96,30 %
21.05.2016 17:34 21,6 C 53 % 1016,6 hPa 0,0 l/m 6,5 km/h (2 Bft) NO 44 1 min 0,000 mm 1,3 UV-I 355 W/m 11,6 C 21,6 C 12,9 km/h (3 Bft) 100,00 %
21.05.2016 17:35 21,6 C 51 % 1016,6 hPa 0,0 l/m 9,5 km/h (2 Bft) NO 50 1 min 0,000 mm 1,2 UV-I 326 W/m 11,0 C 20,6 C 14,5 km/h (3 Bft) 96,30 %
21.05.2016 17:36 21,6 C 47 % 1016,6 hPa 0,0 l/m 6,9 km/h (2 Bft) O-NO 71 1 min 0,000 mm 1,2 UV-I 301 W/m 9,8 C 21,4 C 8,0 km/h (2 Bft) 94,12 %
21.05.2016 17:37 21,5 C 47 % 1016,6 hPa 0,0 l/m 7,4 km/h (2 Bft) O-NO 69 1 min 0,000 mm 1,1 UV-I 284 W/m 9,7 C 21,1 C 9,7 km/h (2 Bft) 100,00 %
21.05.2016 17:38 21,6 C 48 % 1016,6 hPa 0,0 l/m 7,0 km/h (2 Bft) O 84 0 min 0,000 mm 1,1 UV-I 255 W/m 10,1 C 21,4 C 11,3 km/h (2 Bft) 91,30 %
21.05.2016 17:39 21,5 C 48 % 1016,6 hPa 0,0 l/m 6,4 km/h (2 Bft) O-SO 117 1 min 0,000 mm 1,1 UV-I 330 W/m 10,0 C 21,5 C 8,0 km/h (2 Bft) 100,00 %
21.05.2016 17:40 21,5 C 47 % 1016,6 hPa 0,0 l/m 8,1 km/h (2 Bft) O-SO 117 1 min 0,000 mm 1,2 UV-I 375 W/m 9,7 C 20,9 C 11,3 km/h (2 Bft) 96,55 %
21.05.2016 17:41 21,4 C 46 % 1016,6 hPa 0,0 l/m 4,6 km/h (1 Bft) O-NO 74 1 min 0,000 mm 1,2 UV-I 357 W/m 9,3 C 21,4 C 6,4 km/h (2 Bft) 100,00 %
21.05.2016 17:42 21,4 C 48 % 1016,5 hPa 0,0 l/m 7,2 km/h (2 Bft) O-NO 76 1 min 0,000 mm 1,1 UV-I 396 W/m 9,9 C 21,1 C 11,3 km/h (2 Bft) 100,00 %
21.05.2016 17:43 21,5 C 47 % 1016,5 hPa 0,0 l/m 10,5 km/h (2 Bft) O-NO 77 1 min 0,000 mm 1,1 UV-I 390 W/m 9,7 C 20,2 C 14,5 km/h (3 Bft) 96,67 %
21.05.2016 17:44 21,5 C 48 % 1016,5 hPa 0,0 l/m 9,9 km/h (2 Bft) O-NO 61 1 min 0,000 mm 1,1 UV-I 381 W/m 10,0 C 20,3 C 14,5 km/h (3 Bft) 100,00 %
21.05.2016 17:45 21,5 C 46 % 1016,5 hPa 0,0 l/m 7,2 km/h (2 Bft) O-NO 63 1 min 0,000 mm 1,1 UV-I 392 W/m 9,4 C 21,2 C 9,7 km/h (2 Bft) 100,00 %
21.05.2016 17:46 21,5 C 46 % 1016,5 hPa 0,0 l/m 8,1 km/h (2 Bft) O-NO 57 1 min 0,000 mm 1,1 UV-I 371 W/m 9,4 C 20,9 C 9,7 km/h (2 Bft) 100,00 %
21.05.2016 17:47 21,5 C 46 % 1016,5 hPa 0,0 l/m 8,0 km/h (2 Bft) NO 55 1 min 0,000 mm 1,1 UV-I 377 W/m 9,4 C 20,9 C 11,3 km/h (2 Bft) 100,00 %
21.05.2016 17:48 21,6 C 47 % 1016,5 hPa 0,0 l/m 6,0 km/h (2 Bft) O-NO 59 1 min 0,000 mm 1,1 UV-I 396 W/m 9,8 C 21,6 C 9,7 km/h (2 Bft) 100,00 %
21.05.2016 17:49 21,6 C 47 % 1016,5 hPa 0,0 l/m 5,3 km/h (1 Bft) O-NO 59 1 min 0,000 mm 1,1 UV-I 396 W/m 9,8 C 21,6 C 6,4 km/h (2 Bft) 100,00 %
21.05.2016 17:50 21,6 C 48 % 1016,5 hPa 0,0 l/m 5,6 km/h (1 Bft) O-NO 76 1 min 0,000 mm 1,1 UV-I 404 W/m 10,1 C 21,6 C 9,7 km/h (2 Bft) 100,00 %
21.05.2016 17:51 21,6 C 46 % 1016,4 hPa 0,0 l/m 6,6 km/h (2 Bft) O-NO 74 1 min 0,000 mm 1,1 UV-I 407 W/m 9,5 C 21,5 C 11,3 km/h (2 Bft) 100,00 %
21.05.2016 17:52 21,6 C 45 % 1016,5 hPa 0,0 l/m 6,3 km/h (2 Bft) O-NO 59 1 min 0,000 mm 1,1 UV-I 408 W/m 9,2 C 21,6 C 8,0 km/h (2 Bft) 100,00 %
21.05.2016 17:53 21,7 C 46 % 1016,4 hPa 0,0 l/m 8,0 km/h (2 Bft) O-NO 60 1 min 0,000 mm 1,1 UV-I 408 W/m 9,6 C 21,1 C 11,3 km/h (2 Bft) 96,15 %
21.05.2016 17:54 21,7 C 48 % 1016,4 hPa 0,0 l/m 6,7 km/h (2 Bft) O-NO 71 1 min 0,000 mm 1,0 UV-I 375 W/m 10,2 C 21,6 C 8,0 km/h (2 Bft) 100,00 %
21.05.2016 17:55 21,7 C 46 % 1016,4 hPa 0,0 l/m 6,4 km/h (2 Bft) O 84 1 min 0,000 mm 1,0 UV-I 343 W/m 9,6 C 21,7 C 8,0 km/h (2 Bft) 100,00 %
21.05.2016 17:56 21,7 C 47 % 1016,4 hPa 0,0 l/m 3,9 km/h (1 Bft) O-NO 65 1 min 0,000 mm 1,0 UV-I 367 W/m 9,9 C 21,7 C 6,4 km/h (2 Bft) 100,00 %
21.05.2016 17:57 21,7 C 45 % 1016,4 hPa 0,0 l/m 6,4 km/h (2 Bft) O-NO 78 1 min 0,000 mm 0,9 UV-I 365 W/m 9,2 C 21,7 C 8,0 km/h (2 Bft) 100,00 %
21.05.2016 17:58 21,8 C 46 % 1016,4 hPa 0,0 l/m 7,2 km/h (2 Bft) O-NO 76 1 min 0,000 mm 1,0 UV-I 358 W/m 9,7 C 21,5 C 11,3 km/h (2 Bft) 97,56 %
21.05.2016 17:59 21,8 C 44 % 1016,3 hPa 0,0 l/m 7,2 km/h (2 Bft) NO 43 1 min 0,000 mm 0,9 UV-I 356 W/m 9,0 C 21,5 C 11,3 km/h (2 Bft) 100,00 %
21.05.2016 18:00 21,8 C 46 % 1016,4 hPa 0,0 l/m 5,8 km/h (2 Bft) O-NO 64 1 min 0,000 mm 0,9 UV-I 348 W/m 9,7 C 21,8 C 8,0 km/h (2 Bft) 100,00 %
21.05.2016 18:01 21,7 C 46 % 1016,3 hPa 0,0 l/m 7,6 km/h (2 Bft) O-NO 57 1 min 0,279 mm 0,9 UV-I 334 W/m 9,6 C 21,3 C 11,3 km/h (2 Bft) 100,00 %
21.05.2016 18:02 21,8 C 45 % 1016,3 hPa 0,0 l/m 5,8 km/h (2 Bft) O-SO 115 1 min 0,000 mm 0,9 UV-I 345 W/m 9,3 C 21,8 C 8,0 km/h (2 Bft) 100,00 %
21.05.2016 18:03 21,8 C 46 % 1016,3 hPa 0,0 l/m 5,1 km/h (1 Bft) O-SO 109 1 min 0,000 mm 0,9 UV-I 339 W/m 9,7 C 21,8 C 8,0 km/h (2 Bft) 100,00 %
21.05.2016 18:04 21,7 C 47 % 1016,3 hPa 0,0 l/m 5,8 km/h (2 Bft) O-NO 73 1 min 0,000 mm 0,8 UV-I 329 W/m 9,9 C 21,7 C 8,0 km/h (2 Bft) 98,71 %
21.05.2016 18:05 21,7 C 45 % 1016,3 hPa 0,0 l/m 4,6 km/h (1 Bft) O-NO 72 1 min 0,000 mm 0,8 UV-I 327 W/m 9,2 C 21,7 C 6,4 km/h (2 Bft) 100,00 %
21.05.2016 18:06 21,7 C 45 % 1016,3 hPa 0,0 l/m 5,0 km/h (1 Bft) NO 42 1 min 0,000 mm 0,8 UV-I 311 W/m 9,2 C 21,7 C 6,4 km/h (2 Bft) 100,00 %
21.05.2016 18:07 21,7 C 47 % 1016,4 hPa 0,0 l/m 6,4 km/h (2 Bft) NO 52 1 min 0,000 mm 0,8 UV-I 317 W/m 9,9 C 21,7 C 8,0 km/h (2 Bft) 100,00 %
21.05.2016 18:08 21,6 C 46 % 1016,4 hPa 0,0 l/m 5,3 km/h (1 Bft) NO 55 1 min 0,000 mm 0,8 UV-I 300 W/m 9,5 C 21,6 C 6,4 km/h (2 Bft) 100,00 %
21.05.2016 18:09 21,6 C 47 % 1016,4 hPa 0,0 l/m 3,5 km/h (1 Bft) NO 55 1 min 0,000 mm 0,8 UV-I 298 W/m 9,8 C 21,6 C 4,8 km/h (1 Bft) 100,00 %
21.05.2016 18:10 21,6 C 48 % 1016,4 hPa 0,0 l/m 4,7 km/h (1 Bft) N-NO 26 1 min 0,000 mm 0,8 UV-I 308 W/m 10,1 C 21,6 C 6,4 km/h (2 Bft) 93,33 %
21.05.2016 18:11 21,5 C 50 % 1016,5 hPa 0,0 l/m 3,3 km/h (1 Bft) N-NO 21 1 min 0,000 mm 0,8 UV-I 301 W/m 10,6 C 21,5 C 4,8 km/h (1 Bft) 100,00 %
21.05.2016 18:12 21,4 C 51 % 1016,5 hPa 0,0 l/m 3,4 km/h (1 Bft) N-NO 28 1 min 0,000 mm 0,7 UV-I 299 W/m 10,8 C 21,4 C 6,4 km/h (2 Bft) 100,00 %
21.05.2016 18:13 21,3 C 51 % 1016,5 hPa 0,0 l/m 1,0 km/h (0 Bft) N-NO 22 1 min 0,000 mm 0,7 UV-I 301 W/m 10,7 C 21,3 C 3,2 km/h (1 Bft) 100,00 %
21.05.2016 18:14 21,3 C 52 % 1016,5 hPa 0,0 l/m 4,9 km/h (1 Bft) NO 37 1 min 0,000 mm 0,7 UV-I 306 W/m 11,0 C 21,3 C 9,7 km/h (2 Bft) 100,00 %
21.05.2016 18:15 21,2 C 56 % 1016,6 hPa 0,0 l/m 5,6 km/h (1 Bft) O-NO 76 1 min 0,000 mm 0,7 UV-I 303 W/m 12,1 C 21,2 C 6,4 km/h (2 Bft) 100,00 %
21.05.2016 18:16 21,3 C 47 % 1016,6 hPa 0,0 l/m 3,8 km/h (1 Bft) O-NO 59 1 min 0,000 mm 0,7 UV-I 300 W/m 9,5 C 21,3 C 4,8 km/h (1 Bft) 100,00 %
21.05.2016 18:17 21,4 C 46 % 1016,6 hPa 0,0 l/m 4,7 km/h (1 Bft) NO 46 1 min 0,000 mm 0,7 UV-I 301 W/m 9,3 C 21,4 C 8,0 km/h (2 Bft) 100,00 %
21.05.2016 18:18 21,4 C 49 % 1016,6 hPa 0,0 l/m 7,0 km/h (2 Bft) NO 55 1 min 0,000 mm 0,7 UV-I 312 W/m 10,2 C 21,2 C 8,0 km/h (2 Bft) 95,65 %
21.05.2016 18:19 21,4 C 49 % 1016,6 hPa 0,0 l/m 5,4 km/h (1 Bft) N-NO 26 1 min 0,000 mm 0,7 UV-I 302 W/m 10,2 C 21,4 C 8,0 km/h (2 Bft) 100,00 %
21.05.2016 18:20 21,3 C 49 % 1016,7 hPa 0,0 l/m 5,6 km/h (1 Bft) N 11 1 min 0,000 mm 0,7 UV-I 292 W/m 10,1 C 21,3 C 8,0 km/h (2 Bft) 100,00 %
21.05.2016 18:21 21,2 C 49 % 1016,6 hPa 0,0 l/m 4,9 km/h (1 Bft) NO 42 1 min 0,000 mm 0,6 UV-I 291 W/m 10,1 C 21,2 C 9,7 km/h (2 Bft) 100,00 %
21.05.2016 18:22 21,2 C 51 % 1016,6 hPa 0,0 l/m 6,9 km/h (2 Bft) NO 48 1 min 0,000 mm 0,6 UV-I 312 W/m 10,7 C 21,0 C 8,0 km/h (2 Bft) 100,00 %
21.05.2016 18:23 21,2 C 51 % 1016,6 hPa 0,0 l/m 6,3 km/h (2 Bft) NO 44 1 min 0,000 mm 0,6 UV-I 318 W/m 10,7 C 21,2 C 8,0 km/h (2 Bft) 100,00 %
21.05.2016 18:24 21,2 C 51 % 1016,6 hPa 0,0 l/m 5,1 km/h (1 Bft) O-NO 71 1 min 0,000 mm 0,6 UV-I 317 W/m 10,7 C 21,2 C 9,7 km/h (2 Bft) 96,15 %
21.05.2016 18:25 21,3 C 47 % 1016,6 hPa 0,0 l/m 5,7 km/h (1 Bft) O-NO 70 1 min 0,000 mm 0,6 UV-I 313 W/m 9,5 C 21,3 C 8,0 km/h (2 Bft) 100,00 %
21.05.2016 18:26 21,4 C 49 % 1016,6 hPa 0,0 l/m 6,0 km/h (2 Bft) NO 55 1 min 0,000 mm 0,6 UV-I 314 W/m 10,2 C 21,4 C 8,0 km/h (2 Bft) 100,00 %
21.05.2016 18:27 21,4 C 45 % 1016,6 hPa 0,0 l/m 6,2 km/h (2 Bft) O-NO 61 1 min 0,000 mm 0,6 UV-I 311 W/m 9,0 C 21,4 C 9,7 km/h (2 Bft) 96,15 %
21.05.2016 18:28 21,5 C 47 % 1016,6 hPa 0,0 l/m 5,7 km/h (1 Bft) NO 54 1 min 0,000 mm 0,6 UV-I 300 W/m 9,7 C 21,5 C 8,0 km/h (2 Bft) 100,00 %
21.05.2016 18:29 21,6 C 47 % 1016,6 hPa 0,0 l/m 4,5 km/h (1 Bft) O-NO 69 1 min 0,000 mm 0,6 UV-I 291 W/m 9,8 C 21,6 C 6,4 km/h (2 Bft) 100,00 %
21.05.2016 18:30 21,6 C 50 % 1016,5 hPa 0,0 l/m 5,7 km/h (1 Bft) NO 52 1 min 0,000 mm 0,6 UV-I 271 W/m 10,7 C 21,6 C 8,0 km/h (2 Bft) 100,00 %
21.05.2016 18:31 21,6 C 46 % 1016,6 hPa 0,0 l/m 6,8 km/h (2 Bft) O-NO 69 1 min 0,000 mm 0,6 UV-I 264 W/m 9,5 C 21,5 C 8,0 km/h (2 Bft) 91,30 %
21.05.2016 18:32 21,6 C 45 % 1016,5 hPa 0,0 l/m 4,1 km/h (1 Bft) O-NO 62 1 min 0,000 mm 0,5 UV-I 258 W/m 9,2 C 21,6 C 4,8 km/h (1 Bft) 96,30 %
21.05.2016 18:33 21,6 C 45 % 1016,5 hPa 0,0 l/m 5,4 km/h (1 Bft) O-NO 67 1 min 0,000 mm 0,5 UV-I 256 W/m 9,2 C 21,6 C 6,4 km/h (2 Bft) 100,00 %
21.05.2016 18:34 21,6 C 44 % 1016,5 hPa 0,0 l/m 5,6 km/h (1 Bft) O-NO 64 1 min 0,000 mm 0,5 UV-I 188 W/m 8,8 C 21,6 C 8,0 km/h (2 Bft) 100,00 %
21.05.2016 18:35 21,6 C 45 % 1016,5 hPa 0,0 l/m 5,3 km/h (1 Bft) NO 49 1 min 0,000 mm 0,5 UV-I 223 W/m 9,2 C 21,6 C 6,4 km/h (2 Bft) 100,00 %
21.05.2016 18:36 21,5 C 47 % 1016,5 hPa 0,0 l/m 4,3 km/h (1 Bft) O-NO 61 1 min 0,000 mm 0,5 UV-I 238 W/m 9,7 C 21,5 C 6,4 km/h (2 Bft) 100,00 %
21.05.2016 18:37 21,5 C 48 % 1016,5 hPa 0,0 l/m 4,2 km/h (1 Bft) O-NO 63 1 min 0,000 mm 0,5 UV-I 245 W/m 10,0 C 21,5 C 4,8 km/h (1 Bft) 100,00 %
21.05.2016 18:38 21,4 C 49 % 1016,5 hPa 0,0 l/m 5,4 km/h (1 Bft) O-NO 78 1 min 0,000 mm 0,5 UV-I 243 W/m 10,2 C 21,4 C 6,4 km/h (2 Bft) 100,00 %
21.05.2016 18:39 21,4 C 51 % 1016,5 hPa 0,0 l/m 5,6 km/h (1 Bft) NO 55 1 min 0,000 mm 0,5 UV-I 237 W/m 10,8 C 21,4 C 8,0 km/h (2 Bft) 100,00 %
21.05.2016 18:40 21,4 C 48 % 1016,5 hPa 0,0 l/m 5,2 km/h (1 Bft) O-NO 70 1 min 0,000 mm 0,5 UV-I 235 W/m 9,9 C 21,4 C 6,4 km/h (2 Bft) 100,00 %
21.05.2016 18:41 21,4 C 47 % 1016,5 hPa 0,0 l/m 5,8 km/h (2 Bft) O-NO 59 1 min 0,000 mm 0,5 UV-I 236 W/m 9,6 C 21,4 C 8,0 km/h (2 Bft) 100,00 %
21.05.2016 18:42 21,4 C 46 % 1016,5 hPa 0,0 l/m 6,0 km/h (2 Bft) O 84 1 min 0,000 mm 0,5 UV-I 242 W/m 9,3 C 21,4 C 8,0 km/h (2 Bft) 100,00 %
21.05.2016 18:43 21,4 C 47 % 1016,5 hPa 0,0 l/m 5,1 km/h (1 Bft) O-NO 73 1 min 0,000 mm 0,5 UV-I 245 W/m 9,6 C 21,4 C 8,0 km/h (2 Bft) 100,00 %
21.05.2016 18:44 21,4 C 45 % 1016,5 hPa 0,0 l/m 4,8 km/h (1 Bft) NO 35 1 min 0,000 mm 0,3 UV-I 244 W/m 9,0 C 21,4 C 6,4 km/h (2 Bft) 100,00 %
21.05.2016 18:45 21,4 C 47 % 1016,5 hPa 0,0 l/m 5,3 km/h (1 Bft) NO 35 1 min 0,000 mm 0,0 UV-I 261 W/m 9,6 C 21,4 C 6,4 km/h (2 Bft) 100,00 %
21.05.2016 18:46 21,4 C 51 % 1016,5 hPa 0,0 l/m 5,6 km/h (1 Bft) NO 43 1 min 0,000 mm 0,0 UV-I 265 W/m 10,8 C 21,4 C 6,4 km/h (2 Bft) 100,00 %
21.05.2016 18:47 21,3 C 50 % 1016,5 hPa 0,0 l/m 5,7 km/h (1 Bft) O-NO 59 1 min 0,000 mm 0,0 UV-I 263 W/m 10,4 C 21,3 C 8,0 km/h (2 Bft) 100,00 %
21.05.2016 18:48 21,3 C 47 % 1016,5 hPa 0,0 l/m 5,6 km/h (1 Bft) O-NO 60 1 min 0,000 mm 0,0 UV-I 222 W/m 9,5 C 21,3 C 9,7 km/h (2 Bft) 95,65 %
21.05.2016 18:49 21,4 C 48 % 1016,5 hPa 0,0 l/m 6,2 km/h (2 Bft) O-NO 59 1 min 0,000 mm 0,0 UV-I 258 W/m 9,9 C 21,4 C 9,7 km/h (2 Bft) 100,00 %
21.05.2016 18:50 21,4 C 46 % 1016,4 hPa 0,0 l/m 7,1 km/h (2 Bft) O-NO 57 1 min 0,000 mm 0,0 UV-I 262 W/m 9,3 C 21,1 C 9,7 km/h (2 Bft) 96,15 %
21.05.2016 18:51 21,4 C 47 % 1016,4 hPa 0,0 l/m 5,3 km/h (1 Bft) NO 55 1 min 0,000 mm 0,0 UV-I 226 W/m 9,6 C 21,4 C 6,4 km/h (2 Bft) 100,00 %
21.05.2016 18:52 21,5 C 47 % 1016,4 hPa 0,0 l/m 3,9 km/h (1 Bft) NO 40 1 min 0,000 mm 0,0 UV-I 260 W/m 9,7 C 21,5 C 4,8 km/h (1 Bft) 100,00 %
21.05.2016 18:53 21,4 C 49 % 1016,4 hPa 0,0 l/m 5,4 km/h (1 Bft) NO 42 1 min 0,000 mm 0,0 UV-I 258 W/m 10,2 C 21,4 C 8,0 km/h (2 Bft) 100,00 %
21.05.2016 18:54 21,4 C 48 % 1016,4 hPa 0,0 l/m 3,8 km/h (1 Bft) NO 42 1 min 0,000 mm 0,0 UV-I 260 W/m 9,9 C 21,4 C 4,8 km/h (1 Bft) 100,00 %
21.05.2016 18:55 21,3 C 51 % 1016,4 hPa 0,0 l/m 5,3 km/h (1 Bft) NO 35 1 min 0,000 mm 0,0 UV-I 243 W/m 10,7 C 21,3 C 8,0 km/h (2 Bft) 96,30 %
21.05.2016 18:56 21,3 C 52 % 1016,4 hPa 0,0 l/m 5,1 km/h (1 Bft) NO 45 1 min 0,000 mm 0,0 UV-I 216 W/m 11,0 C 21,3 C 6,4 km/h (2 Bft) 100,00 %
21.05.2016 18:57 21,2 C 52 % 1016,4 hPa 0,0 l/m 3,6 km/h (1 Bft) NO 40 1 min 0,000 mm 0,0 UV-I 229 W/m 10,9 C 21,2 C 4,8 km/h (1 Bft) 96,30 %
21.05.2016 18:58 21,2 C 49 % 1016,4 hPa 0,0 l/m 3,7 km/h (1 Bft) NO 40 1 min 0,000 mm 0,0 UV-I 228 W/m 10,1 C 21,2 C 4,8 km/h (1 Bft) 100,00 %
21.05.2016 18:59 21,2 C 50 % 1016,4 hPa 0,0 l/m 4,2 km/h (1 Bft) NO 51 1 min 0,000 mm 0,0 UV-I 217 W/m 10,4 C 21,2 C 6,4 km/h (2 Bft) 100,00 %
21.05.2016 19:00 21,2 C 50 % 1016,3 hPa 0,0 l/m 5,6 km/h (1 Bft) NO 37 1 min 0,000 mm 0,0 UV-I 215 W/m 10,4 C 21,2 C 8,0 km/h (2 Bft) 100,00 %
21.05.2016 19:02 21,1 C 51 % 1016,4 hPa 0,0 l/m 4,8 km/h (1 Bft) NO 39 2 min 0,203 mm 0,0 UV-I 184 W/m 10,6 C 21,1 C 8,0 km/h (2 Bft) 98,00 %
21.05.2016 19:03 21,1 C 52 % 1016,4 hPa 0,0 l/m 4,5 km/h (1 Bft) O-NO 65 1 min 0,000 mm 0,0 UV-I 147 W/m 10,9 C 21,1 C 6,4 km/h (2 Bft) 100,00 %
21.05.2016 19:04 21,1 C 50 % 1016,4 hPa 0,0 l/m 6,2 km/h (2 Bft) NO 46 0 min 0,000 mm 0,0 UV-I 128 W/m 10,3 C 21,1 C 9,7 km/h (2 Bft) 100,00 %
21.05.2016 19:05 21,2 C 50 % 1016,3 hPa 0,0 l/m 6,6 km/h (2 Bft) NO 54 1 min 0,000 mm 0,0 UV-I 144 W/m 10,4 C 21,1 C 9,7 km/h (2 Bft) 95,83 %
21.05.2016 19:06 21,2 C 48 % 1016,3 hPa 0,0 l/m 5,2 km/h (1 Bft) NO 56 0 min 0,000 mm 0,0 UV-I 126 W/m 9,7 C 21,2 C 6,4 km/h (2 Bft) 91,67 %
21.05.2016 19:07 21,2 C 49 % 1016,3 hPa 0,0 l/m 5,1 km/h (1 Bft) O-NO 57 1 min 0,000 mm 0,0 UV-I 148 W/m 10,1 C 21,2 C 8,0 km/h (2 Bft) 96,15 %
21.05.2016 19:08 21,2 C 50 % 1016,3 hPa 0,0 l/m 6,3 km/h (2 Bft) O-NO 75 1 min 0,000 mm 0,0 UV-I 174 W/m 10,4 C 21,2 C 8,0 km/h (2 Bft) 100,00 %
21.05.2016 19:09 21,1 C 50 % 1016,3 hPa 0,0 l/m 5,4 km/h (1 Bft) O-NO 60 1 min 0,000 mm 0,0 UV-I 168 W/m 10,3 C 21,1 C 8,0 km/h (2 Bft) 93,10 %
21.05.2016 19:10 21,1 C 50 % 1016,3 hPa 0,0 l/m 5,3 km/h (1 Bft) NO 44 1 min 0,000 mm 0,0 UV-I 155 W/m 10,3 C 21,1 C 8,0 km/h (2 Bft) 100,00 %
21.05.2016 19:11 21,1 C 49 % 1016,3 hPa 0,0 l/m 7,1 km/h (2 Bft) NO 53 0 min 0,000 mm 0,0 UV-I 112 W/m 10,0 C 20,8 C 11,3 km/h (2 Bft) 96,15 %
21.05.2016 19:12 21,1 C 50 % 1016,3 hPa 0,0 l/m 7,9 km/h (2 Bft) O-NO 59 0 min 0,000 mm 0,0 UV-I 117 W/m 10,3 C 20,5 C 12,9 km/h (3 Bft) 100,00 %
21.05.2016 19:13 21,1 C 49 % 1016,2 hPa 0,0 l/m 6,6 km/h (2 Bft) NO 55 1 min 0,000 mm 0,0 UV-I 133 W/m 10,0 C 21,0 C 9,7 km/h (2 Bft) 96,15 %
21.05.2016 19:14 21,1 C 50 % 1016,3 hPa 0,0 l/m 6,5 km/h (2 Bft) NO 49 1 min 0,000 mm 0,0 UV-I 138 W/m 10,3 C 21,1 C 8,0 km/h (2 Bft) 100,00 %
21.05.2016 19:15 21,1 C 50 % 1016,3 hPa 0,0 l/m 6,0 km/h (2 Bft) NO 55 1 min 0,000 mm 0,0 UV-I 136 W/m 10,3 C 21,1 C 8,0 km/h (2 Bft) 92,86 %
21.05.2016 19:16 21,0 C 50 % 1016,3 hPa 0,0 l/m 6,3 km/h (2 Bft) O-NO 60 1 min 0,000 mm 0,0 UV-I 126 W/m 10,2 C 21,0 C 8,0 km/h (2 Bft) 96,30 %
21.05.2016 19:17 21,0 C 49 % 1016,3 hPa 0,0 l/m 6,5 km/h (2 Bft) NO 54 1 min 0,000 mm 0,0 UV-I 119 W/m 9,9 C 21,0 C 8,0 km/h (2 Bft) 91,30 %
21.05.2016 19:18 20,9 C 50 % 1016,3 hPa 0,0 l/m 5,6 km/h (1 Bft) NO 50 1 min 0,000 mm 0,0 UV-I 125 W/m 10,1 C 20,9 C 8,0 km/h (2 Bft) 100,00 %
21.05.2016 19:19 20,8 C 51 % 1016,2 hPa 0,0 l/m 5,7 km/h (1 Bft) O-NO 62 1 min 0,000 mm 0,0 UV-I 123 W/m 10,3 C 20,8 C 6,4 km/h (2 Bft) 96,15 %
21.05.2016 19:20 20,8 C 53 % 1016,2 hPa 0,0 l/m 5,0 km/h (1 Bft) O-NO 59 1 min 0,000 mm 0,0 UV-I 116 W/m 10,9 C 20,8 C 6,4 km/h (2 Bft) 95,83 %
21.05.2016 19:21 20,7 C 53 % 1016,2 hPa 0,0 l/m 4,3 km/h (1 Bft) O-NO 65 1 min 0,000 mm 0,0 UV-I 117 W/m 10,8 C 20,7 C 4,8 km/h (1 Bft) 100,00 %
21.05.2016 19:22 20,7 C 54 % 1016,3 hPa 0,0 l/m 3,7 km/h (1 Bft) O-NO 70 1 min 0,000 mm 0,0 UV-I 116 W/m 11,1 C 20,7 C 6,4 km/h (2 Bft) 93,33 %
21.05.2016 19:23 20,6 C 54 % 1016,2 hPa 0,0 l/m 3,5 km/h (1 Bft) O-NO 70 1 min 0,000 mm 0,0 UV-I 117 W/m 11,0 C 20,6 C 4,8 km/h (1 Bft) 100,00 %
21.05.2016 19:24 20,6 C 53 % 1016,2 hPa 0,0 l/m 5,1 km/h (1 Bft) O-NO 77 1 min 0,000 mm 0,0 UV-I 120 W/m 10,7 C 20,6 C 6,4 km/h (2 Bft) 96,15 %
21.05.2016 19:25 20,6 C 53 % 1016,2 hPa 0,0 l/m 5,0 km/h (1 Bft) O-NO 64 1 min 0,000 mm 0,0 UV-I 120 W/m 10,7 C 20,6 C 8,0 km/h (2 Bft) 100,00 %
21.05.2016 19:26 20,6 C 52 % 1016,2 hPa 0,0 l/m 6,4 km/h (2 Bft) O-NO 74 1 min 0,000 mm 0,0 UV-I 123 W/m 10,4 C 20,6 C 9,7 km/h (2 Bft) 96,15 %
21.05.2016 19:27 20,6 C 53 % 1016,2 hPa 0,0 l/m 7,2 km/h (2 Bft) O-NO 72 1 min 0,000 mm 0,0 UV-I 121 W/m 10,7 C 20,3 C 9,7 km/h (2 Bft) 100,00 %
21.05.2016 19:28 20,6 C 52 % 1016,2 hPa 0,0 l/m 6,0 km/h (2 Bft) O-NO 77 1 min 0,000 mm 0,0 UV-I 105 W/m 10,4 C 20,6 C 12,9 km/h (3 Bft) 96,15 %
21.05.2016 19:29 20,6 C 51 % 1016,2 hPa 0,0 l/m 5,8 km/h (2 Bft) O 81 0 min 0,000 mm 0,0 UV-I 95 W/m 10,1 C 20,6 C 8,0 km/h (2 Bft) 95,83 %
21.05.2016 19:30 20,6 C 50 % 1016,2 hPa 0,0 l/m 4,2 km/h (1 Bft) O-NO 63 1 min 0,000 mm 0,0 UV-I 101 W/m 9,8 C 20,6 C 6,4 km/h (2 Bft) 96,15 %
21.05.2016 19:31 20,6 C 51 % 1016,2 hPa 0,0 l/m 5,1 km/h (1 Bft) O-NO 69 1 min 0,000 mm 0,0 UV-I 108 W/m 10,1 C 20,6 C 6,4 km/h (2 Bft) 95,83 %
21.05.2016 19:32 20,6 C 52 % 1016,2 hPa 0,0 l/m 4,1 km/h (1 Bft) O-NO 69 1 min 0,000 mm 0,0 UV-I 96 W/m 10,4 C 20,6 C 6,4 km/h (2 Bft) 100,00 %
21.05.2016 19:33 20,5 C 51 % 1016,2 hPa 0,0 l/m 5,7 km/h (1 Bft) O-NO 70 0 min 0,000 mm 0,0 UV-I 84 W/m 10,0 C 20,5 C 8,0 km/h (2 Bft) 95,83 %
21.05.2016 19:34 20,5 C 51 % 1016,2 hPa 0,0 l/m 7,0 km/h (2 Bft) O-NO 59 1 min 0,000 mm 0,0 UV-I 100 W/m 10,0 C 20,3 C 11,3 km/h (2 Bft) 100,00 %
21.05.2016 19:35 20,5 C 49 % 1016,2 hPa 0,0 l/m 6,5 km/h (2 Bft) O-NO 78 0 min 0,000 mm 0,0 UV-I 70 W/m 9,4 C 20,5 C 8,0 km/h (2 Bft) 96,30 %
21.05.2016 19:36 20,5 C 51 % 1016,2 hPa 0,0 l/m 4,4 km/h (1 Bft) O 88 0 min 0,000 mm 0,0 UV-I 67 W/m 10,0 C 20,5 C 8,0 km/h (2 Bft) 96,15 %
21.05.2016 19:37 20,4 C 51 % 1016,2 hPa 0,0 l/m 5,7 km/h (1 Bft) O-NO 76 0 min 0,000 mm 0,0 UV-I 78 W/m 9,9 C 20,4 C 8,0 km/h (2 Bft) 100,00 %
21.05.2016 19:38 20,4 C 50 % 1016,2 hPa 0,0 l/m 5,6 km/h (1 Bft) O-NO 66 0 min 0,000 mm 0,0 UV-I 82 W/m 9,6 C 20,4 C 8,0 km/h (2 Bft) 100,00 %
21.05.2016 19:39 20,4 C 51 % 1016,1 hPa 0,0 l/m 4,3 km/h (1 Bft) O-NO 69 0 min 0,000 mm 0,0 UV-I 71 W/m 9,9 C 20,4 C 6,4 km/h (2 Bft) 100,00 %
21.05.2016 19:40 20,3 C 50 % 1016,2 hPa 0,0 l/m 5,9 km/h (2 Bft) O 90 0 min 0,000 mm 0,0 UV-I 78 W/m 9,5 C 20,3 C 8,0 km/h (2 Bft) 86,96 %
21.05.2016 19:41 20,3 C 51 % 1016,2 hPa 0,0 l/m 4,9 km/h (1 Bft) O-NO 74 1 min 0,000 mm 0,0 UV-I 83 W/m 9,8 C 20,3 C 6,4 km/h (2 Bft) 100,00 %
21.05.2016 19:42 20,3 C 50 % 1016,2 hPa 0,0 l/m 4,0 km/h (1 Bft) O-NO 69 1 min 0,000 mm 0,0 UV-I 85 W/m 9,5 C 20,3 C 4,8 km/h (1 Bft) 100,00 %
21.05.2016 19:43 20,3 C 51 % 1016,2 hPa 0,0 l/m 5,7 km/h (1 Bft) O 80 1 min 0,000 mm 0,0 UV-I 86 W/m 9,8 C 20,3 C 8,0 km/h (2 Bft) 100,00 %
21.05.2016 19:44 20,3 C 50 % 1016,2 hPa 0,0 l/m 3,8 km/h (1 Bft) O 94 1 min 0,000 mm 0,0 UV-I 87 W/m 9,5 C 20,3 C 4,8 km/h (1 Bft) 100,00 %
21.05.2016 19:45 20,3 C 50 % 1016,2 hPa 0,0 l/m 3,3 km/h (1 Bft) O 94 0 min 0,000 mm 0,0 UV-I 73 W/m 9,5 C 20,3 C 4,8 km/h (1 Bft) 100,00 %
21.05.2016 19:46 20,4 C 51 % 1016,2 hPa 0,0 l/m 3,5 km/h (1 Bft) O 81 1 min 0,000 mm 0,0 UV-I 74 W/m 9,9 C 20,4 C 4,8 km/h (1 Bft) 100,00 %
21.05.2016 19:47 20,4 C 50 % 1016,2 hPa 0,0 l/m 4,4 km/h (1 Bft) O 80 1 min 0,000 mm 0,0 UV-I 84 W/m 9,6 C 20,4 C 6,4 km/h (2 Bft) 100,00 %
21.05.2016 19:48 20,4 C 51 % 1016,3 hPa 0,0 l/m 4,5 km/h (1 Bft) O-NO 62 1 min 0,000 mm 0,0 UV-I 77 W/m 9,9 C 20,4 C 6,4 km/h (2 Bft) 95,83 %
21.05.2016 19:49 20,4 C 50 % 1016,3 hPa 0,0 l/m 4,1 km/h (1 Bft) O-NO 62 0 min 0,000 mm 0,0 UV-I 68 W/m 9,6 C 20,4 C 6,4 km/h (2 Bft) 95,65 %
21.05.2016 19:50 20,3 C 52 % 1016,3 hPa 0,0 l/m 5,4 km/h (1 Bft) O 92 1 min 0,000 mm 0,0 UV-I 68 W/m 10,1 C 20,3 C 8,0 km/h (2 Bft) 100,00 %
21.05.2016 19:51 20,3 C 52 % 1016,3 hPa 0,0 l/m 7,3 km/h (2 Bft) O 80 0 min 0,000 mm 0,0 UV-I 51 W/m 10,1 C 19,9 C 8,0 km/h (2 Bft) 100,00 %
21.05.2016 19:52 20,3 C 51 % 1016,2 hPa 0,0 l/m 5,8 km/h (2 Bft) O 82 0 min 0,000 mm 0,0 UV-I 50 W/m 9,8 C 20,3 C 8,0 km/h (2 Bft) 100,00 %
21.05.2016 19:53 20,2 C 51 % 1016,3 hPa 0,0 l/m 5,6 km/h (1 Bft) O-NO 74 0 min 0,000 mm 0,0 UV-I 63 W/m 9,7 C 20,2 C 8,0 km/h (2 Bft) 100,00 %
21.05.2016 19:54 20,2 C 51 % 1016,2 hPa 0,0 l/m 6,4 km/h (2 Bft) O-NO 74 0 min 0,000 mm 0,0 UV-I 60 W/m 9,7 C 20,2 C 8,0 km/h (2 Bft) 100,00 %
21.05.2016 19:55 20,2 C 51 % 1016,2 hPa 0,0 l/m 6,0 km/h (2 Bft) O-NO 76 0 min 0,000 mm 0,0 UV-I 55 W/m 9,7 C 20,2 C 8,0 km/h (2 Bft) 100,00 %
21.05.2016 19:56 20,2 C 51 % 1016,2 hPa 0,0 l/m 5,6 km/h (1 Bft) O-NO 66 0 min 0,000 mm 0,0 UV-I 46 W/m 9,7 C 20,2 C 8,0 km/h (2 Bft) 100,00 %
21.05.2016 19:57 20,2 C 52 % 1016,2 hPa 0,0 l/m 4,4 km/h (1 Bft) O-NO 69 0 min 0,000 mm 0,0 UV-I 47 W/m 10,0 C 20,2 C 8,0 km/h (2 Bft) 100,00 %
21.05.2016 19:58 20,1 C 52 % 1016,2 hPa 0,0 l/m 4,1 km/h (1 Bft) O-NO 75 0 min 0,000 mm 0,0 UV-I 46 W/m 9,9 C 20,1 C 6,4 km/h (2 Bft) 100,00 %
21.05.2016 19:59 20,1 C 52 % 1016,2 hPa 0,0 l/m 5,0 km/h (1 Bft) O-NO 75 0 min 0,000 mm 0,0 UV-I 43 W/m 9,9 C 20,1 C 6,4 km/h (2 Bft) 100,00 %
21.05.2016 20:00 20,0 C 53 % 1016,2 hPa 0,0 l/m 5,3 km/h (1 Bft) O-NO 71 0 min 0,000 mm 0,0 UV-I 41 W/m 10,1 C 20,0 C 6,4 km/h (2 Bft) 100,00 %
21.05.2016 20:01 19,9 C 53 % 1016,2 hPa 0,0 l/m 4,6 km/h (1 Bft) O 82 0 min 0,102 mm 0,0 UV-I 39 W/m 10,0 C 19,9 C 6,4 km/h (2 Bft) 100,00 %
21.05.2016 20:02 19,8 C 53 % 1016,2 hPa 0,0 l/m 4,8 km/h (1 Bft) O 80 0 min 0,000 mm 0,0 UV-I 38 W/m 9,9 C 19,8 C 6,4 km/h (2 Bft) 100,00 %
21.05.2016 20:03 19,8 C 53 % 1016,2 hPa 0,0 l/m 4,3 km/h (1 Bft) O 80 0 min 0,000 mm 0,0 UV-I 35 W/m 9,9 C 19,8 C 4,8 km/h (1 Bft) 100,00 %
21.05.2016 20:04 19,7 C 53 % 1016,2 hPa 0,0 l/m 4,1 km/h (1 Bft) O-NO 73 0 min 0,000 mm 0,0 UV-I 33 W/m 9,8 C 19,7 C 6,4 km/h (2 Bft) 96,15 %
21.05.2016 20:05 19,7 C 54 % 1016,2 hPa 0,0 l/m 3,9 km/h (1 Bft) O-NO 73 0 min 0,000 mm 0,0 UV-I 33 W/m 10,1 C 19,7 C 6,4 km/h (2 Bft) 96,30 %
21.05.2016 20:06 19,6 C 53 % 1016,2 hPa 0,0 l/m 4,2 km/h (1 Bft) O-NO 73 0 min 0,000 mm 0,0 UV-I 31 W/m 9,8 C 19,6 C 6,4 km/h (2 Bft) 98,68 %
21.05.2016 20:07 19,6 C 54 % 1016,1 hPa 0,0 l/m 3,4 km/h (1 Bft) O-NO 73 0 min 0,000 mm 0,0 UV-I 30 W/m 10,0 C 19,6 C 4,8 km/h (1 Bft) 100,00 %
21.05.2016 20:08 19,4 C 55 % 1016,1 hPa 0,0 l/m 3,0 km/h (1 Bft) O-NO 73 0 min 0,000 mm 0,0 UV-I 29 W/m 10,1 C 19,4 C 4,8 km/h (1 Bft) 100,00 %
21.05.2016 20:09 19,3 C 55 % 1016,2 hPa 0,0 l/m 4,8 km/h (1 Bft) O-NO 76 0 min 0,000 mm 0,0 UV-I 26 W/m 10,0 C 19,3 C 6,4 km/h (2 Bft) 100,00 %
21.05.2016 20:10 19,2 C 56 % 1016,3 hPa 0,0 l/m 5,1 km/h (1 Bft) O 87 0 min 0,000 mm 0,0 UV-I 26 W/m 10,2 C 19,2 C 6,4 km/h (2 Bft) 100,00 %
21.05.2016 20:11 19,1 C 55 % 1016,3 hPa 0,0 l/m 4,8 km/h (1 Bft) O-NO 77 0 min 0,000 mm 0,0 UV-I 24 W/m 9,8 C 19,1 C 6,4 km/h (2 Bft) 100,00 %
21.05.2016 20:12 19,0 C 55 % 1016,2 hPa 0,0 l/m 5,0 km/h (1 Bft) O-NO 65 0 min 0,000 mm 0,0 UV-I 23 W/m 9,8 C 19,0 C 6,4 km/h (2 Bft) 100,00 %
21.05.2016 20:13 18,9 C 56 % 1016,2 hPa 0,0 l/m 3,9 km/h (1 Bft) O-NO 76 0 min 0,000 mm 0,0 UV-I 22 W/m 9,9 C 18,9 C 4,8 km/h (1 Bft) 100,00 %
21.05.2016 20:14 18,9 C 56 % 1016,2 hPa 0,0 l/m 5,1 km/h (1 Bft) O-NO 78 0 min 0,000 mm 0,0 UV-I 21 W/m 9,9 C 18,9 C 6,4 km/h (2 Bft) 100,00 %
21.05.2016 20:15 18,8 C 55 % 1016,2 hPa 0,0 l/m 4,4 km/h (1 Bft) O 82 0 min 0,000 mm 0,0 UV-I 19 W/m 9,6 C 18,8 C 6,4 km/h (2 Bft) 100,00 %
21.05.2016 20:16 18,8 C 56 % 1016,2 hPa 0,0 l/m 5,0 km/h (1 Bft) O-NO 69 0 min 0,000 mm 0,0 UV-I 19 W/m 9,8 C 18,8 C 6,4 km/h (2 Bft) 95,65 %
21.05.2016 20:17 18,8 C 56 % 1016,2 hPa 0,0 l/m 4,9 km/h (1 Bft) O 86 0 min 0,000 mm 0,0 UV-I 18 W/m 9,8 C 18,8 C 6,4 km/h (2 Bft) 100,00 %
21.05.2016 20:18 18,8 C 55 % 1016,2 hPa 0,0 l/m 4,3 km/h (1 Bft) O-NO 67 0 min 0,000 mm 0,0 UV-I 18 W/m 9,6 C 18,8 C 6,4 km/h (2 Bft) 100,00 %
21.05.2016 20:19 18,8 C 56 % 1016,2 hPa 0,0 l/m 4,1 km/h (1 Bft) O-NO 67 0 min 0,000 mm 0,0 UV-I 17 W/m 9,8 C 18,8 C 4,8 km/h (1 Bft) 100,00 %
21.05.2016 20:20 18,8 C 55 % 1016,2 hPa 0,0 l/m 5,3 km/h (1 Bft) O 79 0 min 0,000 mm 0,0 UV-I 16 W/m 9,6 C 18,8 C 8,0 km/h (2 Bft) 100,00 %
21.05.2016 20:21 18,8 C 56 % 1016,2 hPa 0,0 l/m 3,9 km/h (1 Bft) O 79 0 min 0,000 mm 0,0 UV-I 14 W/m 9,8 C 18,8 C 6,4 km/h (2 Bft) 100,00 %
21.05.2016 20:22 18,8 C 56 % 1016,2 hPa 0,0 l/m 4,8 km/h (1 Bft) O 79 0 min 0,000 mm 0,0 UV-I 14 W/m 9,8 C 18,8 C 6,4 km/h (2 Bft) 96,15 %
21.05.2016 20:23 18,8 C 56 % 1016,2 hPa 0,0 l/m 5,0 km/h (1 Bft) O-NO 69 0 min 0,000 mm 0,0 UV-I 13 W/m 9,8 C 18,8 C 6,4 km/h (2 Bft) 100,00 %
21.05.2016 20:24 18,7 C 56 % 1016,2 hPa 0,0 l/m 4,2 km/h (1 Bft) O-NO 74 0 min 0,000 mm 0,0 UV-I 12 W/m 9,7 C 18,7 C 6,4 km/h (2 Bft) 96,15 %
21.05.2016 20:25 18,7 C 56 % 1016,1 hPa 0,0 l/m 3,7 km/h (1 Bft) O-NO 74 0 min 0,000 mm 0,0 UV-I 12 W/m 9,7 C 18,7 C 4,8 km/h (1 Bft) 100,00 %
21.05.2016 20:26 18,7 C 56 % 1016,1 hPa 0,0 l/m 3,5 km/h (1 Bft) O-NO 74 0 min 0,000 mm 0,0 UV-I 12 W/m 9,7 C 18,7 C 4,8 km/h (1 Bft) 100,00 %
21.05.2016 20:27 18,7 C 57 % 1016,1 hPa 0,0 l/m 3,4 km/h (1 Bft) O-NO 74 0 min 0,000 mm 0,0 UV-I 11 W/m 10,0 C 18,7 C 4,8 km/h (1 Bft) 100,00 %
21.05.2016 20:28 18,7 C 56 % 1016,2 hPa 0,0 l/m 3,4 km/h (1 Bft) O-NO 74 0 min 0,000 mm 0,0 UV-I 11 W/m 9,7 C 18,7 C 4,8 km/h (1 Bft) 100,00 %
21.05.2016 20:29 18,7 C 57 % 1016,1 hPa 0,0 l/m 2,5 km/h (1 Bft) O-NO 74 0 min 0,000 mm 0,0 UV-I 10 W/m 10,0 C 18,7 C 3,2 km/h (1 Bft) 100,00 %
21.05.2016 20:30 18,6 C 57 % 1016,1 hPa 0,0 l/m 3,4 km/h (1 Bft) O-NO 74 0 min 0,000 mm 0,0 UV-I 9 W/m 9,9 C 18,6 C 4,8 km/h (1 Bft) 100,00 %
21.05.2016 20:31 18,6 C 57 % 1016,2 hPa 0,0 l/m 2,6 km/h (1 Bft) O-NO 74 0 min 0,000 mm 0,0 UV-I 9 W/m 9,9 C 18,6 C 4,8 km/h (1 Bft) 96,15 %
21.05.2016 20:32 18,6 C 57 % 1016,1 hPa 0,0 l/m 4,2 km/h (1 Bft) O-NO 74 1 min 0,000 mm 0,0 UV-I 9 W/m 9,9 C 18,6 C 4,8 km/h (1 Bft) 100,00 %
21.05.2016 20:33 18,5 C 57 % 1016,1 hPa 0,0 l/m 3,4 km/h (1 Bft) O-NO 74 0 min 0,000 mm 0,0 UV-I 7 W/m 9,8 C 18,5 C 4,8 km/h (1 Bft) 100,00 %
21.05.2016 20:34 18,5 C 57 % 1016,1 hPa 0,0 l/m 3,9 km/h (1 Bft) O-NO 74 0 min 0,000 mm 0,0 UV-I 7 W/m 9,8 C 18,5 C 4,8 km/h (1 Bft) 100,00 %
21.05.2016 20:35 18,4 C 58 % 1016,1 hPa 0,0 l/m 2,8 km/h (1 Bft) O-NO 74 0 min 0,000 mm 0,0 UV-I 7 W/m 10,0 C 18,4 C 3,2 km/h (1 Bft) 100,00 %
21.05.2016 20:36 18,4 C 58 % 1016,1 hPa 0,0 l/m 2,9 km/h (1 Bft) O-NO 74 0 min 0,000 mm 0,0 UV-I 6 W/m 10,0 C 18,4 C 3,2 km/h (1 Bft) 100,00 %
21.05.2016 20:37 18,4 C 58 % 1016,1 hPa 0,0 l/m 3,5 km/h (1 Bft) O-NO 74 0 min 0,000 mm 0,0 UV-I 5 W/m 10,0 C 18,4 C 4,8 km/h (1 Bft) 100,00 %
21.05.2016 20:38 18,4 C 58 % 1016,1 hPa 0,0 l/m 2,0 km/h (1 Bft) O-NO 74 0 min 0,000 mm 0,0 UV-I 5 W/m 10,0 C 18,4 C 3,2 km/h (1 Bft) 100,00 %
21.05.2016 20:39 18,3 C 59 % 1016,1 hPa 0,0 l/m 3,1 km/h (1 Bft) O-NO 74 0 min 0,000 mm 0,0 UV-I 5 W/m 10,1 C 18,3 C 4,8 km/h (1 Bft) 98,71 %
21.05.2016 20:40 18,3 C 58 % 1016,1 hPa 0,0 l/m 2,8 km/h (1 Bft) O-NO 74 0 min 0,000 mm 0,0 UV-I 3 W/m 9,9 C 18,3 C 4,8 km/h (1 Bft) 100,00 %
21.05.2016 20:41 18,2 C 58 % 1016,1 hPa 0,0 l/m 3,9 km/h (1 Bft) O-NO 74 0 min 0,000 mm 0,0 UV-I 0 W/m 9,8 C 18,2 C 6,4 km/h (2 Bft) 100,00 %
21.05.2016 20:42 18,2 C 58 % 1016,1 hPa 0,0 l/m 4,0 km/h (1 Bft) O-NO 74 0 min 0,000 mm 0,0 UV-I 0 W/m 9,8 C 18,2 C 4,8 km/h (1 Bft) 95,65 %
21.05.2016 20:43 18,2 C 58 % 1016,1 hPa 0,0 l/m 4,0 km/h (1 Bft) O-NO 74 0 min 0,000 mm 0,0 UV-I 0 W/m 9,8 C 18,2 C 4,8 km/h (1 Bft) 95,83 %
21.05.2016 20:44 18,2 C 59 % 1016,1 hPa 0,0 l/m 2,9 km/h (1 Bft) O-NO 74 0 min 0,000 mm 0,0 UV-I 0 W/m 10,1 C 18,2 C 4,8 km/h (1 Bft) 95,65 %
21.05.2016 20:45 18,2 C 59 % 1016,1 hPa 0,0 l/m 3,4 km/h (1 Bft) O-NO 74 0 min 0,000 mm 0,0 UV-I 0 W/m 10,1 C 18,2 C 4,8 km/h (1 Bft) 100,00 %
21.05.2016 20:46 18,1 C 59 % 1016,1 hPa 0,0 l/m 3,4 km/h (1 Bft) O-NO 74 0 min 0,000 mm 0,0 UV-I 0 W/m 10,0 C 18,1 C 4,8 km/h (1 Bft) 100,00 %
21.05.2016 20:47 18,1 C 59 % 1016,1 hPa 0,0 l/m 3,1 km/h (1 Bft) O-NO 74 0 min 0,000 mm 0,0 UV-I 0 W/m 10,0 C 18,1 C 4,8 km/h (1 Bft) 96,30 %
21.05.2016 20:48 18,1 C 59 % 1016,1 hPa 0,0 l/m 3,0 km/h (1 Bft) O-NO 74 0 min 0,000 mm 0,0 UV-I 0 W/m 10,0 C 18,1 C 4,8 km/h (1 Bft) 100,00 %
21.05.2016 20:49 18,1 C 59 % 1016,1 hPa 0,0 l/m 2,7 km/h (1 Bft) O-NO 74 0 min 0,000 mm 0,0 UV-I 0 W/m 10,0 C 18,1 C 3,2 km/h (1 Bft) 100,00 %
21.05.2016 20:50 18,1 C 59 % 1016,1 hPa 0,0 l/m 3,2 km/h (1 Bft) O-NO 74 0 min 0,000 mm 0,0 UV-I 0 W/m 10,0 C 18,1 C 4,8 km/h (1 Bft) 100,00 %
21.05.2016 20:51 18,1 C 60 % 1016,1 hPa 0,0 l/m 2,8 km/h (1 Bft) O-NO 74 0 min 0,000 mm 0,0 UV-I 0 W/m 10,2 C 18,1 C 3,2 km/h (1 Bft) 100,00 %
21.05.2016 20:52 18,1 C 59 % 1016,1 hPa 0,0 l/m 2,2 km/h (1 Bft) O-NO 74 0 min 0,000 mm 0,0 UV-I 0 W/m 10,0 C 18,1 C 3,2 km/h (1 Bft) 100,00 %
21.05.2016 20:53 18,1 C 60 % 1016,1 hPa 0,0 l/m 2,8 km/h (1 Bft) O-NO 74 0 min 0,000 mm 0,0 UV-I 0 W/m 10,2 C 18,1 C 3,2 km/h (1 Bft) 100,00 %
21.05.2016 20:54 18,0 C 60 % 1016,0 hPa 0,0 l/m 3,0 km/h (1 Bft) O-NO 74 0 min 0,000 mm 0,0 UV-I 0 W/m 10,1 C 18,0 C 3,2 km/h (1 Bft) 100,00 %
21.05.2016 20:55 17,9 C 60 % 1016,1 hPa 0,0 l/m 3,2 km/h (1 Bft) O-NO 74 0 min 0,000 mm 0,0 UV-I 0 W/m 10,0 C 17,9 C 4,8 km/h (1 Bft) 100,00 %
21.05.2016 20:56 17,9 C 60 % 1016,1 hPa 0,0 l/m 3,2 km/h (1 Bft) O-NO 74 0 min 0,000 mm 0,0 UV-I 0 W/m 10,0 C 17,9 C 4,8 km/h (1 Bft) 100,00 %
21.05.2016 20:57 17,8 C 60 % 1016,1 hPa 0,0 l/m 2,8 km/h (1 Bft) O-NO 74 0 min 0,000 mm 0,0 UV-I 0 W/m 9,9 C 17,8 C 3,2 km/h (1 Bft) 100,00 %
21.05.2016 20:58 17,7 C 60 % 1016,1 hPa 0,0 l/m 3,2 km/h (1 Bft) O-NO 74 0 min 0,000 mm 0,0 UV-I 0 W/m 9,8 C 17,7 C 4,8 km/h (1 Bft) 100,00 %
21.05.2016 20:59 17,7 C 61 % 1016,1 hPa 0,0 l/m 2,5 km/h (1 Bft) O-NO 74 0 min 0,000 mm 0,0 UV-I 0 W/m 10,1 C 17,7 C 3,2 km/h (1 Bft) 100,00 %
21.05.2016 21:00 17,6 C 61 % 1016,1 hPa 0,0 l/m 2,4 km/h (1 Bft) O-NO 74 0 min 0,000 mm 0,0 UV-I 0 W/m 10,0 C 17,6 C 3,2 km/h (1 Bft) 100,00 %
21.05.2016 21:02 17,4 C 61 % 1016,1 hPa 0,0 l/m 2,4 km/h (1 Bft) O-NO 74 0 min 0,025 mm 0,0 UV-I 0 W/m 9,8 C 17,4 C 3,2 km/h (1 Bft) 100,00 %
21.05.2016 21:03 17,3 C 61 % 1016,1 hPa 0,0 l/m 2,8 km/h (1 Bft) O-NO 74 0 min 0,000 mm 0,0 UV-I 0 W/m 9,7 C 17,3 C 4,8 km/h (1 Bft) 100,00 %
21.05.2016 21:04 17,3 C 62 % 1016,1 hPa 0,0 l/m 3,2 km/h (1 Bft) O-NO 74 0 min 0,000 mm 0,0 UV-I 0 W/m 9,9 C 17,3 C 4,8 km/h (1 Bft) 100,00 %
21.05.2016 21:05 17,2 C 63 % 1016,0 hPa 0,0 l/m 2,7 km/h (1 Bft) O-NO 74 0 min 0,000 mm 0,0 UV-I 0 W/m 10,1 C 17,2 C 3,2 km/h (1 Bft) 100,00 %
21.05.2016 21:06 17,1 C 63 % 1016,1 hPa 0,0 l/m 3,6 km/h (1 Bft) O-NO 74 0 min 0,000 mm 0,0 UV-I 0 W/m 10,0 C 17,1 C 4,8 km/h (1 Bft) 95,83 %
21.05.2016 21:07 17,1 C 63 % 1016,1 hPa 0,0 l/m 3,2 km/h (1 Bft) O-NO 74 0 min 0,000 mm 0,0 UV-I 0 W/m 10,0 C 17,1 C 4,8 km/h (1 Bft) 100,00 %
21.05.2016 21:08 17,1 C 63 % 1016,1 hPa 0,0 l/m 3,5 km/h (1 Bft) O-NO 74 0 min 0,000 mm 0,0 UV-I 0 W/m 10,0 C 17,1 C 4,8 km/h (1 Bft) 96,30 %
21.05.2016 21:09 17,0 C 63 % 1016,0 hPa 0,0 l/m 2,3 km/h (1 Bft) O-NO 74 0 min 0,000 mm 0,0 UV-I 0 W/m 9,9 C 17,0 C 3,2 km/h (1 Bft) 100,00 %
21.05.2016 21:10 17,0 C 63 % 1016,1 hPa 0,0 l/m 3,8 km/h (1 Bft) O-NO 74 0 min 0,000 mm 0,0 UV-I 0 W/m 9,9 C 17,0 C 4,8 km/h (1 Bft) 95,83 %
21.05.2016 21:11 17,0 C 63 % 1016,1 hPa 0,0 l/m 3,3 km/h (1 Bft) O-NO 74 0 min 0,000 mm 0,0 UV-I 0 W/m 9,9 C 17,0 C 4,8 km/h (1 Bft) 96,15 %
21.05.2016 21:12 17,0 C 62 % 1016,1 hPa 0,0 l/m 3,4 km/h (1 Bft) O-NO 74 0 min 0,000 mm 0,0 UV-I 0 W/m 9,7 C 17,0 C 4,8 km/h (1 Bft) 95,83 %
21.05.2016 21:13 17,1 C 63 % 1016,1 hPa 0,0 l/m 2,3 km/h (1 Bft) O-NO 74 0 min 0,000 mm 0,0 UV-I 0 W/m 10,0 C 17,1 C 4,8 km/h (1 Bft) 91,30 %
21.05.2016 21:14 17,1 C 63 % 1016,1 hPa 0,0 l/m 4,0 km/h (1 Bft) O-NO 74 0 min 0,000 mm 0,0 UV-I 0 W/m 10,0 C 17,1 C 4,8 km/h (1 Bft) 100,00 %
21.05.2016 21:15 17,1 C 63 % 1016,1 hPa 0,0 l/m 2,5 km/h (1 Bft) O-NO 74 0 min 0,000 mm 0,0 UV-I 0 W/m 10,0 C 17,1 C 3,2 km/h (1 Bft) 95,65 %
21.05.2016 21:16 17,1 C 62 % 1016,1 hPa 0,0 l/m 3,0 km/h (1 Bft) O-NO 74 0 min 0,000 mm 0,0 UV-I 0 W/m 9,8 C 17,1 C 4,8 km/h (1 Bft) 95,83 %
21.05.2016 21:17 17,2 C 62 % 1016,1 hPa 0,0 l/m 3,5 km/h (1 Bft) O-NO 74 0 min 0,000 mm 0,0 UV-I 0 W/m 9,9 C 17,2 C 4,8 km/h (1 Bft) 91,67 %
21.05.2016 21:18 17,2 C 63 % 1016,1 hPa 0,0 l/m 3,3 km/h (1 Bft) O-NO 74 0 min 0,000 mm 0,0 UV-I 0 W/m 10,1 C 17,2 C 4,8 km/h (1 Bft) 100,00 %
21.05.2016 21:19 17,2 C 62 % 1016,1 hPa 0,0 l/m 2,9 km/h (1 Bft) O-NO 74 0 min 0,000 mm 0,0 UV-I 0 W/m 9,9 C 17,2 C 3,2 km/h (1 Bft) 95,65 %
21.05.2016 21:20 17,2 C 62 % 1016,1 hPa 0,0 l/m 3,3 km/h (1 Bft) O-NO 74 0 min 0,000 mm 0,0 UV-I 0 W/m 9,9 C 17,2 C 4,8 km/h (1 Bft) 95,83 %
21.05.2016 21:21 17,2 C 62 % 1016,1 hPa 0,0 l/m 3,0 km/h (1 Bft) O-NO 74 0 min 0,000 mm 0,0 UV-I 0 W/m 9,9 C 17,2 C 3,2 km/h (1 Bft) 96,15 %
21.05.2016 21:22 17,2 C 62 % 1016,1 hPa 0,0 l/m 3,0 km/h (1 Bft) O-NO 74 0 min 0,000 mm 0,0 UV-I 0 W/m 9,9 C 17,2 C 4,8 km/h (1 Bft) 91,67 %
21.05.2016 21:23 17,2 C 62 % 1016,1 hPa 0,0 l/m 3,1 km/h (1 Bft) O-NO 74 0 min 0,000 mm 0,0 UV-I 0 W/m 9,9 C 17,2 C 4,8 km/h (1 Bft) 100,00 %
21.05.2016 21:24 17,1 C 62 % 1016,1 hPa 0,0 l/m 4,4 km/h (1 Bft) O-NO 74 0 min 0,000 mm 0,0 UV-I 0 W/m 9,8 C 17,1 C 4,8 km/h (1 Bft) 100,00 %
21.05.2016 21:25 17,1 C 63 % 1016,1 hPa 0,0 l/m 4,5 km/h (1 Bft) O-NO 74 0 min 0,000 mm 0,0 UV-I 0 W/m 10,0 C 17,1 C 4,8 km/h (1 Bft) 97,44 %
21.05.2016 21:26 17,1 C 62 % 1016,1 hPa 0,0 l/m 4,2 km/h (1 Bft) O-NO 74 0 min 0,000 mm 0,0 UV-I 0 W/m 9,8 C 17,1 C 6,4 km/h (2 Bft) 95,65 %
21.05.2016 21:27 17,0 C 63 % 1016,1 hPa 0,0 l/m 4,0 km/h (1 Bft) O-NO 74 0 min 0,000 mm 0,0 UV-I 0 W/m 9,9 C 17,0 C 6,4 km/h (2 Bft) 95,83 %
21.05.2016 21:28 17,0 C 62 % 1016,1 hPa 0,0 l/m 3,9 km/h (1 Bft) O-NO 74 0 min 0,000 mm 0,0 UV-I 0 W/m 9,7 C 17,0 C 4,8 km/h (1 Bft) 100,00 %
21.05.2016 21:29 17,0 C 63 % 1016,1 hPa 0,0 l/m 3,4 km/h (1 Bft) O-NO 74 0 min 0,000 mm 0,0 UV-I 0 W/m 9,9 C 17,0 C 4,8 km/h (1 Bft) 95,83 %
21.05.2016 21:30 16,9 C 63 % 1016,1 hPa 0,0 l/m 3,5 km/h (1 Bft) O-NO 74 0 min 0,000 mm 0,0 UV-I 0 W/m 9,8 C 16,9 C 4,8 km/h (1 Bft) 100,00 %
21.05.2016 21:31 16,9 C 62 % 1016,1 hPa 0,0 l/m 4,1 km/h (1 Bft) O-NO 74 0 min 0,000 mm 0,0 UV-I 0 W/m 9,6 C 16,9 C 4,8 km/h (1 Bft) 95,83 %
21.05.2016 21:32 16,9 C 62 % 1016,1 hPa 0,0 l/m 3,8 km/h (1 Bft) O-NO 74 0 min 0,000 mm 0,0 UV-I 0 W/m 9,6 C 16,9 C 4,8 km/h (1 Bft) 100,00 %
21.05.2016 21:33 16,9 C 63 % 1016,1 hPa 0,0 l/m 3,2 km/h (1 Bft) O-NO 74 0 min 0,000 mm 0,0 UV-I 0 W/m 9,8 C 16,9 C 4,8 km/h (1 Bft) 93,33 %
21.05.2016 21:34 16,9 C 63 % 1016,2 hPa 0,0 l/m 3,2 km/h (1 Bft) O-NO 74 0 min 0,000 mm 0,0 UV-I 0 W/m 9,8 C 16,9 C 3,2 km/h (1 Bft) 100,00 %
21.05.2016 21:35 16,9 C 63 % 1016,2 hPa 0,0 l/m 3,2 km/h (1 Bft) O-NO 74 0 min 0,000 mm 0,0 UV-I 0 W/m 9,8 C 16,9 C 4,8 km/h (1 Bft) 95,83 %
21.05.2016 21:36 16,9 C 63 % 1016,2 hPa 0,0 l/m 3,0 km/h (1 Bft) O-NO 74 0 min 0,000 mm 0,0 UV-I 0 W/m 9,8 C 16,9 C 4,8 km/h (1 Bft) 95,65 %
21.05.2016 21:37 16,9 C 64 % 1016,2 hPa 0,0 l/m 2,4 km/h (1 Bft) O-NO 74 0 min 0,000 mm 0,0 UV-I 0 W/m 10,0 C 16,9 C 3,2 km/h (1 Bft) 100,00 %
21.05.2016 21:38 16,9 C 63 % 1016,2 hPa 0,0 l/m 2,1 km/h (1 Bft) O-NO 74 0 min 0,000 mm 0,0 UV-I 0 W/m 9,8 C 16,9 C 3,2 km/h (1 Bft) 96,30 %
21.05.2016 21:39 16,9 C 64 % 1016,1 hPa 0,0 l/m 1,6 km/h (1 Bft) O-NO 74 0 min 0,000 mm 0,0 UV-I 0 W/m 10,0 C 16,9 C 3,2 km/h (1 Bft) 100,00 %
21.05.2016 21:40 16,9 C 63 % 1016,2 hPa 0,0 l/m 1,5 km/h (1 Bft) O-NO 74 0 min 0,000 mm 0,0 UV-I 0 W/m 9,8 C 16,9 C 3,2 km/h (1 Bft) 95,83 %
21.05.2016 21:41 16,9 C 63 % 1016,2 hPa 0,0 l/m 1,1 km/h (1 Bft) O-NO 74 0 min 0,000 mm 0,0 UV-I 0 W/m 9,8 C 16,9 C 1,6 km/h (1 Bft) 100,00 %
21.05.2016 21:42 16,9 C 62 % 1016,2 hPa 0,0 l/m 0,8 km/h (0 Bft) O-NO 74 0 min 0,000 mm 0,0 UV-I 0 W/m 9,6 C 16,9 C 1,6 km/h (1 Bft) 91,67 %
21.05.2016 21:43 16,9 C 62 % 1016,2 hPa 0,0 l/m 1,4 km/h (1 Bft) O-NO 74 0 min 0,000 mm 0,0 UV-I 0 W/m 9,6 C 16,9 C 3,2 km/h (1 Bft) 100,00 %
21.05.2016 21:44 16,9 C 64 % 1016,2 hPa 0,0 l/m 2,0 km/h (1 Bft) O-NO 74 0 min 0,000 mm 0,0 UV-I 0 W/m 10,0 C 16,9 C 3,2 km/h (1 Bft) 100,00 %
21.05.2016 21:45 16,7 C 66 % 1016,2 hPa 0,0 l/m 2,3 km/h (1 Bft) O-NO 74 0 min 0,000 mm 0,0 UV-I 0 W/m 10,3 C 16,7 C 3,2 km/h (1 Bft) 91,30 %
21.05.2016 21:46 16,5 C 67 % 1016,2 hPa 0,0 l/m 2,2 km/h (1 Bft) O-NO 74 0 min 0,000 mm 0,0 UV-I 0 W/m 10,4 C 16,5 C 3,2 km/h (1 Bft) 100,00 %
21.05.2016 21:47 16,3 C 68 % 1016,2 hPa 0,0 l/m 2,9 km/h (1 Bft) O-NO 74 0 min 0,000 mm 0,0 UV-I 0 W/m 10,4 C 16,3 C 3,2 km/h (1 Bft) 100,00 %
21.05.2016 21:48 16,1 C 69 % 1016,2 hPa 0,0 l/m 2,8 km/h (1 Bft) O-NO 74 0 min 0,000 mm 0,0 UV-I 0 W/m 10,4 C 16,1 C 3,2 km/h (1 Bft) 100,00 %
21.05.2016 21:49 15,9 C 69 % 1016,2 hPa 0,0 l/m 3,2 km/h (1 Bft) O-NO 74 0 min 0,000 mm 0,0 UV-I 0 W/m 10,2 C 15,9 C 4,8 km/h (1 Bft) 100,00 %
21.05.2016 21:50 15,8 C 69 % 1016,1 hPa 0,0 l/m 2,7 km/h (1 Bft) O-NO 74 0 min 0,000 mm 0,0 UV-I 0 W/m 10,1 C 15,8 C 3,2 km/h (1 Bft) 100,00 %
21.05.2016 21:51 15,8 C 68 % 1016,2 hPa 0,0 l/m 2,8 km/h (1 Bft) O-NO 74 0 min 0,000 mm 0,0 UV-I 0 W/m 9,9 C 15,8 C 3,2 km/h (1 Bft) 100,00 %
21.05.2016 21:52 15,7 C 68 % 1016,1 hPa 0,0 l/m 3,4 km/h (1 Bft) O-NO 74 0 min 0,000 mm 0,0 UV-I 0 W/m 9,8 C 15,7 C 4,8 km/h (1 Bft) 100,00 %
21.05.2016 21:53 15,7 C 68 % 1016,1 hPa 0,0 l/m 3,3 km/h (1 Bft) O-NO 74 0 min 0,000 mm 0,0 UV-I 0 W/m 9,8 C 15,7 C 4,8 km/h (1 Bft) 90,91 %
21.05.2016 21:54 15,7 C 68 % 1016,1 hPa 0,0 l/m 3,0 km/h (1 Bft) O-NO 74 0 min 0,000 mm 0,0 UV-I 0 W/m 9,8 C 15,7 C 3,2 km/h (1 Bft) 100,00 %
21.05.2016 21:55 15,7 C 69 % 1016,1 hPa 0,0 l/m 3,1 km/h (1 Bft) O-NO 74 0 min 0,000 mm 0,0 UV-I 0 W/m 10,0 C 15,7 C 3,2 km/h (1 Bft) 95,65 %
21.05.2016 21:56 15,7 C 67 % 1016,1 hPa 0,0 l/m 3,1 km/h (1 Bft) O-NO 74 0 min 0,000 mm 0,0 UV-I 0 W/m 9,6 C 15,7 C 3,2 km/h (1 Bft) 95,83 %
21.05.2016 21:57 15,7 C 68 % 1016,1 hPa 0,0 l/m 3,1 km/h (1 Bft) O-NO 74 0 min 0,000 mm 0,0 UV-I 0 W/m 9,8 C 15,7 C 3,2 km/h (1 Bft) 100,00 %
21.05.2016 21:58 15,8 C 66 % 1016,1 hPa 0,0 l/m 3,0 km/h (1 Bft) O-NO 74 0 min 0,000 mm 0,0 UV-I 0 W/m 9,5 C 15,8 C 4,8 km/h (1 Bft) 100,00 %
21.05.2016 21:59 15,9 C 67 % 1016,1 hPa 0,0 l/m 2,5 km/h (1 Bft) O-NO 74 0 min 0,000 mm 0,0 UV-I 0 W/m 9,8 C 15,9 C 3,2 km/h (1 Bft) 100,00 %
21.05.2016 22:00 15,9 C 66 % 1016,1 hPa 0,0 l/m 3,1 km/h (1 Bft) O-NO 74 0 min 0,000 mm 0,0 UV-I 0 W/m 9,6 C 15,9 C 3,2 km/h (1 Bft) 100,00 %
21.05.2016 22:02 16,0 C 66 % 1016,0 hPa 0,0 l/m 2,8 km/h (1 Bft) O-NO 74 0 min 0,026 mm 0,0 UV-I 0 W/m 9,7 C 16,0 C 3,2 km/h (1 Bft) 100,00 %
21.05.2016 22:03 16,1 C 66 % 1016,0 hPa 0,0 l/m 2,3 km/h (1 Bft) O-NO 74 0 min 0,000 mm 0,0 UV-I 0 W/m 9,7 C 16,1 C 3,2 km/h (1 Bft) 96,15 %
21.05.2016 22:04 16,1 C 65 % 1016,0 hPa 0,0 l/m 2,7 km/h (1 Bft) O-NO 74 0 min 0,000 mm 0,0 UV-I 0 W/m 9,5 C 16,1 C 3,2 km/h (1 Bft) 100,00 %
21.05.2016 22:05 16,2 C 65 % 1016,0 hPa 0,0 l/m 2,7 km/h (1 Bft) O-NO 74 0 min 0,000 mm 0,0 UV-I 0 W/m 9,6 C 16,2 C 3,2 km/h (1 Bft) 95,83 %
21.05.2016 22:06 16,2 C 65 % 1016,0 hPa 0,0 l/m 2,7 km/h (1 Bft) O-NO 74 0 min 0,000 mm 0,0 UV-I 0 W/m 9,6 C 16,2 C 3,2 km/h (1 Bft) 100,00 %
21.05.2016 22:07 16,2 C 65 % 1016,0 hPa 0,0 l/m 2,3 km/h (1 Bft) O-NO 74 0 min 0,000 mm 0,0 UV-I 0 W/m 9,6 C 16,2 C 3,2 km/h (1 Bft) 100,00 %
21.05.2016 22:08 16,3 C 65 % 1016,0 hPa 0,0 l/m 2,7 km/h (1 Bft) O-NO 74 0 min 0,000 mm 0,0 UV-I 0 W/m 9,7 C 16,3 C 3,2 km/h (1 Bft) 100,00 %
21.05.2016 22:09 16,3 C 65 % 1016,0 hPa 0,0 l/m 3,4 km/h (1 Bft) O-NO 74 0 min 0,000 mm 0,0 UV-I 0 W/m 9,7 C 16,3 C 4,8 km/h (1 Bft) 100,00 %
21.05.2016 22:10 16,3 C 65 % 1016,0 hPa 0,0 l/m 3,2 km/h (1 Bft) O-NO 74 0 min 0,000 mm 0,0 UV-I 0 W/m 9,7 C 16,3 C 4,8 km/h (1 Bft) 92,86 %
21.05.2016 22:11 16,2 C 65 % 1016,0 hPa 0,0 l/m 4,2 km/h (1 Bft) O-NO 74 0 min 0,000 mm 0,0 UV-I 0 W/m 9,6 C 16,2 C 4,8 km/h (1 Bft) 93,10 %
21.05.2016 22:12 16,2 C 65 % 1016,1 hPa 0,0 l/m 3,7 km/h (1 Bft) O-NO 74 0 min 0,000 mm 0,0 UV-I 0 W/m 9,6 C 16,2 C 4,8 km/h (1 Bft) 100,00 %
21.05.2016 22:13 16,1 C 65 % 1016,0 hPa 0,0 l/m 4,1 km/h (1 Bft) O-NO 74 0 min 0,000 mm 0,0 UV-I 0 W/m 9,5 C 16,1 C 4,8 km/h (1 Bft) 100,00 %
21.05.2016 22:14 16,1 C 64 % 1016,0 hPa 0,0 l/m 3,7 km/h (1 Bft) O-NO 74 0 min 0,000 mm 0,0 UV-I 0 W/m 9,3 C 16,1 C 4,8 km/h (1 Bft) 100,00 %
21.05.2016 22:15 16,1 C 64 % 1016,0 hPa 0,0 l/m 3,3 km/h (1 Bft) O-NO 74 0 min 0,000 mm 0,0 UV-I 0 W/m 9,3 C 16,1 C 4,8 km/h (1 Bft) 100,00 %
21.05.2016 22:16 16,1 C 63 % 1016,0 hPa 0,0 l/m 4,4 km/h (1 Bft) O-NO 74 0 min 0,000 mm 0,0 UV-I 0 W/m 9,1 C 16,1 C 6,4 km/h (2 Bft) 100,00 %
21.05.2016 22:17 16,2 C 63 % 1016,0 hPa 0,0 l/m 3,6 km/h (1 Bft) O-NO 74 0 min 0,000 mm 0,0 UV-I 0 W/m 9,1 C 16,2 C 4,8 km/h (1 Bft) 96,30 %
21.05.2016 22:18 16,2 C 63 % 1016,0 hPa 0,0 l/m 3,8 km/h (1 Bft) O-NO 74 0 min 0,000 mm 0,0 UV-I 0 W/m 9,1 C 16,2 C 4,8 km/h (1 Bft) 100,00 %
21.05.2016 22:19 16,3 C 63 % 1016,0 hPa 0,0 l/m 3,6 km/h (1 Bft) O-NO 74 0 min 0,000 mm 0,0 UV-I 0 W/m 9,2 C 16,3 C 4,8 km/h (1 Bft) 100,00 %
21.05.2016 22:20 16,3 C 63 % 1016,0 hPa 0,0 l/m 3,8 km/h (1 Bft) O-NO 74 0 min 0,000 mm 0,0 UV-I 0 W/m 9,2 C 16,3 C 4,8 km/h (1 Bft) 100,00 %
21.05.2016 22:21 16,3 C 63 % 1016,0 hPa 0,0 l/m 3,7 km/h (1 Bft) O-NO 74 0 min 0,000 mm 0,0 UV-I 0 W/m 9,2 C 16,3 C 4,8 km/h (1 Bft) 100,00 %
21.05.2016 22:22 16,3 C 62 % 1016,0 hPa 0,0 l/m 3,9 km/h (1 Bft) O-NO 74 0 min 0,000 mm 0,0 UV-I 0 W/m 9,0 C 16,3 C 4,8 km/h (1 Bft) 100,00 %
21.05.2016 22:23 16,3 C 65 % 1016,0 hPa 0,0 l/m 3,5 km/h (1 Bft) O-NO 74 0 min 0,000 mm 0,0 UV-I 0 W/m 9,7 C 16,3 C 4,8 km/h (1 Bft) 100,00 %
21.05.2016 22:24 16,2 C 64 % 1016,0 hPa 0,0 l/m 4,2 km/h (1 Bft) O-NO 74 0 min 0,000 mm 0,0 UV-I 0 W/m 9,4 C 16,2 C 4,8 km/h (1 Bft) 100,00 %
21.05.2016 22:25 16,1 C 64 % 1016,0 hPa 0,0 l/m 3,4 km/h (1 Bft) O-NO 74 0 min 0,000 mm 0,0 UV-I 0 W/m 9,3 C 16,1 C 4,8 km/h (1 Bft) 96,55 %
21.05.2016 22:26 15,9 C 65 % 1016,0 hPa 0,0 l/m 2,7 km/h (1 Bft) O-NO 74 0 min 0,000 mm 0,0 UV-I 0 W/m 9,3 C 15,9 C 3,2 km/h (1 Bft) 98,67 %
21.05.2016 22:27 15,8 C 65 % 1015,9 hPa 0,0 l/m 2,9 km/h (1 Bft) O-NO 74 0 min 0,000 mm 0,0 UV-I 0 W/m 9,2 C 15,8 C 4,8 km/h (1 Bft) 97,56 %
21.05.2016 22:28 15,7 C 66 % 1015,9 hPa 0,0 l/m 5,4 km/h (1 Bft) O-NO 78 0 min 0,000 mm 0,0 UV-I 0 W/m 9,4 C 15,7 C 8,0 km/h (2 Bft) 100,00 %
21.05.2016 22:29 15,6 C 65 % 1015,9 hPa 0,0 l/m 4,6 km/h (1 Bft) O-NO 78 0 min 0,000 mm 0,0 UV-I 0 W/m 9,0 C 15,6 C 8,0 km/h (2 Bft) 100,00 %
21.05.2016 22:30 15,6 C 65 % 1015,9 hPa 0,0 l/m 4,8 km/h (1 Bft) O-NO 67 0 min 0,000 mm 0,0 UV-I 0 W/m 9,0 C 15,6 C 8,0 km/h (2 Bft) 99,12 %
21.05.2016 22:32 15,6 C 65 % 1015,9 hPa 0,0 l/m 4,8 km/h (1 Bft) O 80 0 min 0,000 mm 0,0 UV-I 0 W/m 9,0 C 15,6 C 4,8 km/h (1 Bft) 100,00 %
21.05.2016 22:33 15,6 C 64 % 1015,9 hPa 0,0 l/m 5,1 km/h (1 Bft) O 80 0 min 0,000 mm 0,0 UV-I 0 W/m 8,8 C 15,6 C 8,0 km/h (2 Bft) 96,77 %
21.05.2016 22:34 15,7 C 64 % 1015,9 hPa 0,0 l/m 3,8 km/h (1 Bft) O 80 0 min 0,000 mm 0,0 UV-I 0 W/m 8,9 C 15,7 C 4,8 km/h (1 Bft) 100,00 %
21.05.2016 22:35 15,7 C 65 % 1015,9 hPa 0,0 l/m 6,6 km/h (2 Bft) O 82 0 min 0,000 mm 0,0 UV-I 0 W/m 9,1 C 15,6 C 9,7 km/h (2 Bft) 100,00 %
21.05.2016 22:36 15,7 C 66 % 1015,9 hPa 0,0 l/m 3,8 km/h (1 Bft) O 80 0 min 0,000 mm 0,0 UV-I 0 W/m 9,4 C 15,7 C 6,4 km/h (2 Bft) 100,00 %
21.05.2016 22:37 15,6 C 66 % 1015,9 hPa 0,0 l/m 1,9 km/h (1 Bft) O 80 0 min 0,000 mm 0,0 UV-I 0 W/m 9,3 C 15,6 C 3,2 km/h (1 Bft) 100,00 %
21.05.2016 22:38 15,6 C 65 % 1015,9 hPa 0,0 l/m 2,1 km/h (1 Bft) O 80 0 min 0,000 mm 0,0 UV-I 0 W/m 9,0 C 15,6 C 3,2 km/h (1 Bft) 100,00 %
21.05.2016 22:39 15,4 C 66 % 1015,9 hPa 0,0 l/m 4,0 km/h (1 Bft) O-NO 76 0 min 0,000 mm 0,0 UV-I 0 W/m 9,1 C 15,4 C 6,4 km/h (2 Bft) 100,00 %
21.05.2016 22:40 15,4 C 68 % 1015,9 hPa 0,0 l/m 2,7 km/h (1 Bft) O-NO 76 0 min 0,000 mm 0,0 UV-I 0 W/m 9,5 C 15,4 C 3,2 km/h (1 Bft) 100,00 %
21.05.2016 22:41 15,3 C 69 % 1015,9 hPa 0,0 l/m 2,7 km/h (1 Bft) O 82 0 min 0,000 mm 0,0 UV-I 0 W/m 9,6 C 15,3 C 4,8 km/h (1 Bft) 100,00 %
21.05.2016 22:42 15,2 C 68 % 1015,8 hPa 0,0 l/m 3,2 km/h (1 Bft) O 98 0 min 0,000 mm 0,0 UV-I 0 W/m 9,3 C 15,2 C 4,8 km/h (1 Bft) 100,00 %
21.05.2016 22:43 15,1 C 69 % 1015,9 hPa 0,0 l/m 2,6 km/h (1 Bft) O 98 0 min 0,000 mm 0,0 UV-I 0 W/m 9,5 C 15,1 C 4,8 km/h (1 Bft) 100,00 %
21.05.2016 22:44 14,9 C 70 % 1015,8 hPa 0,0 l/m 2,0 km/h (1 Bft) O 98 0 min 0,000 mm 0,0 UV-I 0 W/m 9,5 C 14,9 C 3,2 km/h (1 Bft) 100,00 %
21.05.2016 22:45 14,8 C 70 % 1015,9 hPa 0,0 l/m 2,0 km/h (1 Bft) O 98 0 min 0,000 mm 0,0 UV-I 0 W/m 9,4 C 14,8 C 3,2 km/h (1 Bft) 100,00 %
21.05.2016 22:46 14,7 C 70 % 1015,9 hPa 0,0 l/m 1,5 km/h (1 Bft) O 98 0 min 0,000 mm 0,0 UV-I 0 W/m 9,3 C 14,7 C 3,2 km/h (1 Bft) 100,00 %
21.05.2016 22:47 14,6 C 71 % 1015,9 hPa 0,0 l/m 2,7 km/h (1 Bft) O 98 0 min 0,000 mm 0,0 UV-I 0 W/m 9,4 C 14,6 C 3,2 km/h (1 Bft) 100,00 %
21.05.2016 22:48 14,6 C 72 % 1015,9 hPa 0,0 l/m 2,9 km/h (1 Bft) O 98 0 min 0,000 mm 0,0 UV-I 0 W/m 9,6 C 14,6 C 4,8 km/h (1 Bft) 100,00 %
21.05.2016 22:49 14,4 C 73 % 1015,8 hPa 0,0 l/m 2,5 km/h (1 Bft) O-SO 111 0 min 0,000 mm 0,0 UV-I 0 W/m 9,6 C 14,4 C 4,8 km/h (1 Bft) 100,00 %
21.05.2016 22:50 14,3 C 74 % 1015,9 hPa 0,0 l/m 2,5 km/h (1 Bft) O-SO 111 0 min 0,000 mm 0,0 UV-I 0 W/m 9,7 C 14,3 C 3,2 km/h (1 Bft) 100,00 %
21.05.2016 22:51 14,2 C 74 % 1015,9 hPa 0,0 l/m 2,1 km/h (1 Bft) O-SO 113 0 min 0,000 mm 0,0 UV-I 0 W/m 9,6 C 14,2 C 3,2 km/h (1 Bft) 100,00 %
21.05.2016 22:52 14,1 C 75 % 1015,8 hPa 0,0 l/m 2,1 km/h (1 Bft) O-SO 113 0 min 0,000 mm 0,0 UV-I 0 W/m 9,7 C 14,1 C 3,2 km/h (1 Bft) 100,00 %
21.05.2016 22:53 14,1 C 75 % 1015,8 hPa 0,0 l/m 3,3 km/h (1 Bft) O-SO 106 0 min 0,000 mm 0,0 UV-I 0 W/m 9,7 C 14,1 C 4,8 km/h (1 Bft) 100,00 %
21.05.2016 22:54 14,1 C 74 % 1015,8 hPa 0,0 l/m 2,5 km/h (1 Bft) O-SO 106 0 min 0,000 mm 0,0 UV-I 0 W/m 9,5 C 14,1 C 3,2 km/h (1 Bft) 100,00 %
21.05.2016 22:55 14,1 C 74 % 1015,9 hPa 0,0 l/m 1,5 km/h (1 Bft) O-SO 106 0 min 0,000 mm 0,0 UV-I 0 W/m 9,5 C 14,1 C 3,2 km/h (1 Bft) 100,00 %
21.05.2016 22:56 14,1 C 74 % 1015,9 hPa 0,0 l/m 2,8 km/h (1 Bft) O-SO 106 0 min 0,000 mm 0,0 UV-I 0 W/m 9,5 C 14,1 C 4,8 km/h (1 Bft) 100,00 %
21.05.2016 22:57 14,2 C 75 % 1015,9 hPa 0,0 l/m 2,9 km/h (1 Bft) O 101 0 min 0,000 mm 0,0 UV-I 0 W/m 9,8 C 14,2 C 4,8 km/h (1 Bft) 100,00 %
21.05.2016 22:58 14,2 C 75 % 1015,8 hPa 0,0 l/m 2,3 km/h (1 Bft) O 101 0 min 0,000 mm 0,0 UV-I 0 W/m 9,8 C 14,2 C 4,8 km/h (1 Bft) 100,00 %
21.05.2016 22:59 14,1 C 75 % 1015,9 hPa 0,0 l/m 1,0 km/h (0 Bft) O 101 0 min 0,000 mm 0,0 UV-I 0 W/m 9,7 C 14,1 C 1,6 km/h (1 Bft) 100,00 %
21.05.2016 23:00 14,1 C 75 % 1015,8 hPa 0,0 l/m 0,8 km/h (0 Bft) O 101 0 min 0,000 mm 0,0 UV-I 0 W/m 9,7 C 14,1 C 1,6 km/h (1 Bft) 100,00 %
21.05.2016 23:02 14,0 C 76 % 1015,8 hPa 0,0 l/m 0,4 km/h (0 Bft) O 101 0 min 0,025 mm 0,0 UV-I 0 W/m 9,8 C 14,0 C 1,6 km/h (1 Bft) 100,00 %
21.05.2016 23:03 13,9 C 76 % 1015,9 hPa 0,0 l/m 0,0 km/h (0 Bft) O 101 0 min 0,000 mm 0,0 UV-I 0 W/m 9,7 C 13,9 C 0,0 km/h (0 Bft) 100,00 %
21.05.2016 23:04 13,8 C 77 % 1015,8 hPa 0,0 l/m 0,0 km/h (0 Bft) O 101 0 min 0,000 mm 0,0 UV-I 0 W/m 9,8 C 13,8 C 0,0 km/h (0 Bft) 100,00 %
21.05.2016 23:05 13,7 C 77 % 1015,9 hPa 0,0 l/m 0,2 km/h (0 Bft) O 101 0 min 0,000 mm 0,0 UV-I 0 W/m 9,7 C 13,7 C 1,6 km/h (1 Bft) 100,00 %
21.05.2016 23:06 13,7 C 78 % 1015,9 hPa 0,0 l/m 0,0 km/h (0 Bft) O 101 0 min 0,000 mm 0,0 UV-I 0 W/m 9,9 C 13,7 C 0,0 km/h (0 Bft) 92,86 %
21.05.2016 23:07 13,6 C 78 % 1015,8 hPa 0,0 l/m 0,1 km/h (0 Bft) O 101 0 min 0,000 mm 0,0 UV-I 0 W/m 9,8 C 13,6 C 1,6 km/h (1 Bft) 100,00 %
21.05.2016 23:08 13,6 C 79 % 1015,8 hPa 0,0 l/m 0,0 km/h (0 Bft) O 101 0 min 0,000 mm 0,0 UV-I 0 W/m 10,0 C 13,6 C 0,0 km/h (0 Bft) 100,00 %
21.05.2016 23:09 13,5 C 79 % 1015,9 hPa 0,0 l/m 0,3 km/h (0 Bft) O 101 0 min 0,000 mm 0,0 UV-I 0 W/m 9,9 C 13,5 C 1,6 km/h (1 Bft) 97,37 %
21.05.2016 23:10 13,4 C 79 % 1015,8 hPa 0,0 l/m 0,5 km/h (0 Bft) O 101 0 min 0,000 mm 0,0 UV-I 0 W/m 9,8 C 13,4 C 1,6 km/h (1 Bft) 100,00 %
21.05.2016 23:11 13,4 C 79 % 1015,9 hPa 0,0 l/m 0,1 km/h (0 Bft) O 101 0 min 0,000 mm 0,0 UV-I 0 W/m 9,8 C 13,4 C 1,6 km/h (1 Bft) 100,00 %
21.05.2016 23:12 13,4 C 80 % 1015,9 hPa 0,0 l/m 0,0 km/h (0 Bft) O 101 0 min 0,000 mm 0,0 UV-I 0 W/m 10,0 C 13,4 C 0,0 km/h (0 Bft) 100,00 %
21.05.2016 23:13 13,4 C 79 % 1015,9 hPa 0,0 l/m 0,0 km/h (0 Bft) O 101 0 min 0,000 mm 0,0 UV-I 0 W/m 9,8 C 13,4 C 0,0 km/h (0 Bft) 100,00 %
21.05.2016 23:14 13,4 C 80 % 1015,9 hPa 0,0 l/m 0,0 km/h (0 Bft) O 101 0 min 0,000 mm 0,0 UV-I 0 W/m 10,0 C 13,4 C 0,0 km/h (0 Bft) 100,00 %
21.05.2016 23:15 13,4 C 79 % 1015,8 hPa 0,0 l/m 0,0 km/h (0 Bft) O 101 0 min 0,000 mm 0,0 UV-I 0 W/m 9,8 C 13,4 C 0,0 km/h (0 Bft) 100,00 %
21.05.2016 23:16 13,4 C 79 % 1015,9 hPa 0,0 l/m 0,0 km/h (0 Bft) O 101 0 min 0,000 mm 0,0 UV-I 0 W/m 9,8 C 13,4 C 0,0 km/h (0 Bft) 100,00 %
21.05.2016 23:17 13,4 C 79 % 1015,9 hPa 0,0 l/m 0,0 km/h (0 Bft) O 101 0 min 0,000 mm 0,0 UV-I 0 W/m 9,8 C 13,4 C 0,0 km/h (0 Bft) 95,83 %
21.05.2016 23:18 13,4 C 79 % 1015,8 hPa 0,0 l/m 0,0 km/h (0 Bft) O 101 0 min 0,000 mm 0,0 UV-I 0 W/m 9,8 C 13,4 C 0,0 km/h (0 Bft) 100,00 %
21.05.2016 23:19 13,4 C 79 % 1015,8 hPa 0,0 l/m 0,0 km/h (0 Bft) O 101 0 min 0,000 mm 0,0 UV-I 0 W/m 9,8 C 13,4 C 0,0 km/h (0 Bft) 100,00 %
21.05.2016 23:20 13,3 C 79 % 1015,9 hPa 0,0 l/m 0,0 km/h (0 Bft) O 101 0 min 0,000 mm 0,0 UV-I 0 W/m 9,7 C 13,3 C 0,0 km/h (0 Bft) 100,00 %
21.05.2016 23:21 13,3 C 79 % 1015,8 hPa 0,0 l/m 0,0 km/h (0 Bft) O 101 0 min 0,000 mm 0,0 UV-I 0 W/m 9,7 C 13,3 C 0,0 km/h (0 Bft) 100,00 %
21.05.2016 23:22 13,2 C 80 % 1015,8 hPa 0,0 l/m 0,0 km/h (0 Bft) O 101 0 min 0,000 mm 0,0 UV-I 0 W/m 9,8 C 13,2 C 0,0 km/h (0 Bft) 95,83 %
21.05.2016 23:23 13,2 C 80 % 1015,8 hPa 0,0 l/m 0,0 km/h (0 Bft) O 101 0 min 0,000 mm 0,0 UV-I 0 W/m 9,8 C 13,2 C 0,0 km/h (0 Bft) 100,00 %
21.05.2016 23:24 13,2 C 80 % 1015,8 hPa 0,0 l/m 0,0 km/h (0 Bft) O 101 0 min 0,000 mm 0,0 UV-I 0 W/m 9,8 C 13,2 C 0,0 km/h (0 Bft) 91,67 %
21.05.2016 23:25 13,2 C 80 % 1015,8 hPa 0,0 l/m 0,0 km/h (0 Bft) O 101 0 min 0,000 mm 0,0 UV-I 0 W/m 9,8 C 13,2 C 0,0 km/h (0 Bft) 100,00 %
21.05.2016 23:26 13,1 C 80 % 1015,8 hPa 0,0 l/m 0,0 km/h (0 Bft) O 101 0 min 0,000 mm 0,0 UV-I 0 W/m 9,7 C 13,1 C 0,0 km/h (0 Bft) 95,83 %
21.05.2016 23:27 13,1 C 80 % 1015,8 hPa 0,0 l/m 0,0 km/h (0 Bft) O 101 0 min 0,000 mm 0,0 UV-I 0 W/m 9,7 C 13,1 C 0,0 km/h (0 Bft) 92,31 %
21.05.2016 23:28 13,1 C 80 % 1015,8 hPa 0,0 l/m 0,0 km/h (0 Bft) O 101 0 min 0,000 mm 0,0 UV-I 0 W/m 9,7 C 13,1 C 0,0 km/h (0 Bft) 100,00 %
21.05.2016 23:29 13,1 C 80 % 1015,8 hPa 0,0 l/m 0,0 km/h (0 Bft) O 101 0 min 0,000 mm 0,0 UV-I 0 W/m 9,7 C 13,1 C 0,0 km/h (0 Bft) 95,65 %
21.05.2016 23:30 13,0 C 80 % 1015,8 hPa 0,0 l/m 0,0 km/h (0 Bft) O 101 0 min 0,000 mm 0,0 UV-I 0 W/m 9,6 C 13,0 C 0,0 km/h (0 Bft) 100,00 %
21.05.2016 23:31 13,0 C 80 % 1015,8 hPa 0,0 l/m 0,0 km/h (0 Bft) O 101 0 min 0,000 mm 0,0 UV-I 0 W/m 9,6 C 13,0 C 0,0 km/h (0 Bft) 91,30 %
21.05.2016 23:32 13,0 C 80 % 1015,8 hPa 0,0 l/m 0,0 km/h (0 Bft) O 101 0 min 0,000 mm 0,0 UV-I 0 W/m 9,6 C 13,0 C 0,0 km/h (0 Bft) 100,00 %
21.05.2016 23:33 13,1 C 79 % 1015,8 hPa 0,0 l/m 0,0 km/h (0 Bft) O 101 0 min 0,000 mm 0,0 UV-I 0 W/m 9,5 C 13,1 C 0,0 km/h (0 Bft) 96,15 %
21.05.2016 23:34 13,1 C 79 % 1015,8 hPa 0,0 l/m 0,0 km/h (0 Bft) O 101 0 min 0,000 mm 0,0 UV-I 0 W/m 9,5 C 13,1 C 0,0 km/h (0 Bft) 100,00 %
21.05.2016 23:35 13,1 C 78 % 1015,9 hPa 0,0 l/m 0,0 km/h (0 Bft) O 101 0 min 0,000 mm 0,0 UV-I 0 W/m 9,4 C 13,1 C 0,0 km/h (0 Bft) 96,15 %
21.05.2016 23:36 13,1 C 79 % 1015,9 hPa 0,0 l/m 0,0 km/h (0 Bft) O 101 0 min 0,000 mm 0,0 UV-I 0 W/m 9,5 C 13,1 C 0,0 km/h (0 Bft) 100,00 %
21.05.2016 23:37 13,1 C 79 % 1015,9 hPa 0,0 l/m 0,0 km/h (0 Bft) O 101 0 min 0,000 mm 0,0 UV-I 0 W/m 9,5 C 13,1 C 0,0 km/h (0 Bft) 91,30 %
21.05.2016 23:38 13,1 C 79 % 1015,9 hPa 0,0 l/m 0,0 km/h (0 Bft) O 101 0 min 0,000 mm 0,0 UV-I 0 W/m 9,5 C 13,1 C 0,0 km/h (0 Bft) 95,83 %
21.05.2016 23:39 13,1 C 79 % 1015,9 hPa 0,0 l/m 0,0 km/h (0 Bft) O 101 0 min 0,000 mm 0,0 UV-I 0 W/m 9,5 C 13,1 C 0,0 km/h (0 Bft) 100,00 %
21.05.2016 23:40 13,1 C 79 % 1015,9 hPa 0,0 l/m 0,2 km/h (0 Bft) O 101 0 min 0,000 mm 0,0 UV-I 0 W/m 9,5 C 13,1 C 1,6 km/h (1 Bft) 95,83 %
21.05.2016 23:41 13,1 C 79 % 1015,9 hPa 0,0 l/m 1,1 km/h (1 Bft) O 101 0 min 0,000 mm 0,0 UV-I 0 W/m 9,5 C 13,1 C 1,6 km/h (1 Bft) 100,00 %
21.05.2016 23:42 13,1 C 78 % 1015,8 hPa 0,0 l/m 1,4 km/h (1 Bft) O 101 0 min 0,000 mm 0,0 UV-I 0 W/m 9,4 C 13,1 C 1,6 km/h (1 Bft) 95,65 %
21.05.2016 23:43 13,1 C 78 % 1015,9 hPa 0,0 l/m 0,9 km/h (0 Bft) O 101 0 min 0,000 mm 0,0 UV-I 0 W/m 9,4 C 13,1 C 1,6 km/h (1 Bft) 100,00 %
21.05.2016 23:44 13,1 C 79 % 1015,8 hPa 0,0 l/m 0,7 km/h (0 Bft) O 101 0 min 0,000 mm 0,0 UV-I 0 W/m 9,5 C 13,1 C 1,6 km/h (1 Bft) 95,65 %
21.05.2016 23:45 13,0 C 80 % 1015,9 hPa 0,0 l/m 0,0 km/h (0 Bft) O 101 0 min 0,000 mm 0,0 UV-I 0 W/m 9,6 C 13,0 C 0,0 km/h (0 Bft) 100,00 %
21.05.2016 23:46 12,9 C 80 % 1015,9 hPa 0,0 l/m 0,0 km/h (0 Bft) O 101 0 min 0,000 mm 0,0 UV-I 0 W/m 9,5 C 12,9 C 0,0 km/h (0 Bft) 95,65 %
21.05.2016 23:47 12,9 C 80 % 1015,9 hPa 0,0 l/m 0,0 km/h (0 Bft) O 101 0 min 0,000 mm 0,0 UV-I 0 W/m 9,5 C 12,9 C 0,0 km/h (0 Bft) 96,30 %
21.05.2016 23:48 12,8 C 80 % 1015,9 hPa 0,0 l/m 0,0 km/h (0 Bft) O 101 0 min 0,000 mm 0,0 UV-I 0 W/m 9,4 C 12,8 C 0,0 km/h (0 Bft) 100,00 %
21.05.2016 23:49 12,8 C 80 % 1015,8 hPa 0,0 l/m 0,0 km/h (0 Bft) O 101 0 min 0,000 mm 0,0 UV-I 0 W/m 9,4 C 12,8 C 0,0 km/h (0 Bft) 95,83 %
21.05.2016 23:50 12,8 C 81 % 1015,9 hPa 0,0 l/m 0,0 km/h (0 Bft) O 101 0 min 0,000 mm 0,0 UV-I 0 W/m 9,6 C 12,8 C 0,0 km/h (0 Bft) 95,65 %
21.05.2016 23:51 12,8 C 81 % 1015,9 hPa 0,0 l/m 0,0 km/h (0 Bft) O 101 0 min 0,000 mm 0,0 UV-I 0 W/m 9,6 C 12,8 C 0,0 km/h (0 Bft) 95,83 %
21.05.2016 23:52 12,7 C 82 % 1015,9 hPa 0,0 l/m 0,0 km/h (0 Bft) O 101 0 min 0,000 mm 0,0 UV-I 0 W/m 9,7 C 12,7 C 0,0 km/h (0 Bft) 100,00 %
21.05.2016 23:53 12,7 C 83 % 1015,9 hPa 0,0 l/m 0,0 km/h (0 Bft) O 101 0 min 0,000 mm 0,0 UV-I 0 W/m 9,9 C 12,7 C 0,0 km/h (0 Bft) 95,83 %
21.05.2016 23:54 12,6 C 83 % 1015,8 hPa 0,0 l/m 0,0 km/h (0 Bft) O 101 0 min 0,000 mm 0,0 UV-I 0 W/m 9,8 C 12,6 C 0,0 km/h (0 Bft) 100,00 %
21.05.2016 23:55 12,6 C 83 % 1015,8 hPa 0,0 l/m 0,0 km/h (0 Bft) O 101 0 min 0,000 mm 0,0 UV-I 0 W/m 9,8 C 12,6 C 0,0 km/h (0 Bft) 95,83 %
21.05.2016 23:56 12,6 C 83 % 1015,8 hPa 0,0 l/m 0,0 km/h (0 Bft) O 101 0 min 0,000 mm 0,0 UV-I 0 W/m 9,8 C 12,6 C 0,0 km/h (0 Bft) 91,30 %
21.05.2016 23:57 12,5 C 83 % 1015,8 hPa 0,0 l/m 0,0 km/h (0 Bft) O 101 0 min 0,000 mm 0,0 UV-I 0 W/m 9,7 C 12,5 C 0,0 km/h (0 Bft) 100,00 %
21.05.2016 23:58 12,4 C 83 % 1015,8 hPa 0,0 l/m 0,0 km/h (0 Bft) O 101 0 min 0,000 mm 0,0 UV-I 0 W/m 9,6 C 12,4 C 0,0 km/h (0 Bft) 100,00 %
21.05.2016 23:59 12,3 C 83 % 1015,8 hPa 0,0 l/m 0,0 km/h (0 Bft) O 101 0 min 0,000 mm 0,0 UV-I 0 W/m 9,5 C 12,3 C 0,0 km/h (0 Bft) 100,00 %
_ Min-Zeit 05:39 16:39 22:42 - 02:50 - - - - - - 05:39 05:39 02:50 17:11
Minimum _ 5,7 C 43 % 1015,8 hPa - 0,0 km/h (0 Bft) - - - - - - 4,8 C 5,7 C 0,0 km/h (0 Bft) 86,67 %
_ Max-Zeit 16:36 06:05 06:15 00:00 12:45 - - 07:02 13:00 12:56 12:57 11:13 16:36 11:12 00:00
Maximum _ 21,8 C 96 % 1020,6 hPa 0,0 l/m 14,5 km/h
N-NO (3 Bft)
- - 2 min 0,533 mm 5,9 UV-I 908 W/m 13,2 C 21,8 C 17,7 km/h
NO (3 Bft)
100,00 %
Durchschnitt _ 14,8 C 71 % 1018,6 hPa #0,0 l/m 4,2 km/h (1 Bft) O-NO - #12:45 h #4,521 mm 3,2 UV-I 471 W/m 9,0 C 14,7 C 6,3 km/h (2 Bft) 98,62 %